AXGD066 Flymaster F1, V1.2, S/N 191
HFDTE260512
HOPLTPILOT: manugorrion
HOGTYGLIDERTYPE: Sigma 8
HOGIDGLIDERID: Advance
HODTM100GPSDATUM: WGS-84
HOCIDCOMPETITIONID: 
HOCCLCOMPETITION CLASS: Sport
HOSITSite: El Valle de Abdalajis-Capilla
B1306433657148N00442692WA0068500756
B1306443657150N00442695WA0068500756
B1306453657153N00442696WA0068700757
B1306463657156N00442696WA0068800756
B1306473657159N00442695WA0068800758
B1306483657162N00442694WA0069100759
B1306493657165N00442694WA0069300761
B1306503657167N00442695WA0069500764
B1306513657168N00442696WA0069600766
B1306523657169N00442696WA0069500766
B1306533657170N00442695WA0069400766
B1306543657173N00442695WA0069100765
B1306553657176N00442696WA0069200764
B1306563657178N00442698WA0069400763
B1306573657180N00442699WA0069500764
B1306583657182N00442700WA0069500765
B1306593657184N00442700WA0069500766
B1307003657188N00442699WA0069600767
B1307013657189N00442699WA0069600767
B1307023657191N00442699WA0069700768
B1307033657194N00442699WA0070000769
B1307043657197N00442697WA0070200771
B1307053657200N00442693WA0070200772
B1307063657202N00442688WA0070400774
B1307073657204N00442684WA0070800776
B1307083657206N00442681WA0071200779
B1307093657208N00442681WA0071300782
B1307103657210N00442681WA0071400784
B1307113657212N00442680WA0071700786
B1307123657215N00442679WA0071800788
B1307133657217N00442678WA0071900789
B1307143657219N00442677WA0072000789
B1307153657221N00442677WA0072100790
B1307163657223N00442677WA0072100791
B1307173657225N00442677WA0072200792
B1307183657228N00442676WA0072200793
B1307193657231N00442676WA0072400794
B1307203657234N00442674WA0072600796
B1307213657237N00442673WA0072700798
B1307223657238N00442671WA0072900799
B1307233657240N00442670WA0072900801
B1307243657242N00442670WA0073000802
B1307253657244N00442670WA0073100802
B1307263657247N00442669WA0073400805
B1307273657248N00442668WA0073500805
B1307283657250N00442665WA0073700807
B1307293657251N00442662WA0073800809
B1307303657252N00442659WA0074100811
B1307313657254N00442657WA0074300813
B1307323657256N00442656WA0074600815
B1307333657257N00442656WA0074600817
B1307343657259N00442655WA0074800819
B1307353657259N00442654WA0075000821
B1307363657260N00442654WA0075100823
B1307373657261N00442653WA0075200824
B1307383657263N00442653WA0074900825
B1307393657264N00442655WA0075400825
B1307403657265N00442658WA0075500826
B1307413657264N00442661WA0075600827
B1307423657263N00442662WA0075900830
B1307433657263N00442662WA0076200832
B1307443657264N00442662WA0076300834
B1307453657266N00442662WA0076300835
B1307463657267N00442662WA0076400837
B1307473657269N00442663WA0076800838
B1307483657269N00442665WA0077100841
B1307493657270N00442665WA0077300843
B1307503657270N00442666WA0077500846
B1307523657272N00442668WA0077900850
B1307533657273N00442670WA0078000851
B1307543657274N00442672WA0078300854
B1307553657275N00442672WA0078700857
B1307563657276N00442673WA0078900860
B1307573657277N00442673WA0079000862
B1307583657279N00442674WA0079200864
B1307593657281N00442676WA0079400866
B1308003657283N00442678WA0079700868
B1308013657284N00442681WA0079900870
B1308023657285N00442684WA0080400874
B1308033657287N00442687WA0080700878
B1308043657288N00442688WA0081100882
B1308053657290N00442690WA0081500885
B1308063657291N00442692WA0081800889
B1308073657293N00442693WA0082200893
B1308083657295N00442693WA0082500897
B1308093657296N00442692WA0082700901
B1308103657298N00442692WA0082900903
B1308113657299N00442692WA0083000905
B1308123657301N00442693WA0083100906
B1308133657303N00442694WA0083200907
B1308143657305N00442694WA0083300908
B1308153657308N00442692WA0083400909
B1308163657310N00442690WA0083300910
B1308173657315N00442685WA0083300909
B1308183657316N00442683WA0083300909
B1308193657319N00442676WA0083400909
B1308203657320N00442668WA0083400909
B1308213657320N00442657WA0083400909
B1308223657317N00442646WA0083400909
B1308233657313N00442637WA0083500910
B1308243657308N00442628WA0083700911
B1308253657302N00442622WA0084000914
B1308263657296N00442617WA0084100916
B1308273657289N00442614WA0084300917
B1308283657283N00442611WA0084300919
B1308293657277N00442611WA0084500920
B1308303657271N00442611WA0084600921
B1308313657266N00442612WA0084800923
B1308323657261N00442613WA0085000924
B1308333657257N00442614WA0085100926
B1308343657252N00442615WA0085300927
B1308353657247N00442617WA0085300929
B1308363657242N00442619WA0085600930
B1308373657238N00442622WA0086000933
B1308383657235N00442625WA0086300938
B1308393657232N00442627WA0086700941
B1308403657230N00442629WA0087000945
B1308413657228N00442631WA0087200948
B1308423657226N00442632WA0087400951
B1308433657223N00442633WA0087500954
B1308443657222N00442633WA0087500954
B1308453657220N00442635WA0087400954
B1308463657218N00442638WA0087400953
B1308473657215N00442641WA0087400953
B1308483657213N00442644WA0087400953
B1308493657211N00442646WA0087400953
B1308503657208N00442647WA0087400953
B1308513657205N00442649WA0087300953
B1308523657200N00442651WA0087200952
B1308533657195N00442654WA0087200951
B1308543657191N00442655WA0087200951
B1308553657186N00442657WA0087100951
B1308563657181N00442660WA0087000951
B1308573657177N00442664WA0087000951
B1308583657174N00442667WA0087000950
B1308593657170N00442671WA0087100950
B1309003657168N00442674WA0087000950
B1309013657166N00442678WA0087000950
B1309023657167N00442683WA0087000949
B1309033657167N00442687WA0087100949
B1309043657167N00442691WA0087200949
B1309053657166N00442695WA0087200950
B1309063657165N00442699WA0087300951
B1309073657164N00442703WA0087200951
B1309083657162N00442710WA0087200951
B1309093657162N00442711WA0087200951
B1309103657160N00442714WA0087200951
B1309113657156N00442718WA0087200951
B1309123657153N00442721WA0087200950
B1309133657150N00442725WA0087100950
B1309143657147N00442729WA0087100950
B1309153657145N00442732WA0087100950
B1309163657143N00442735WA0087100950
B1309173657144N00442739WA0087000949
B1309183657145N00442742WA0086900948
B1309193657148N00442745WA0086800947
B1309203657151N00442747WA0086900947
B1309213657153N00442748WA0087000948
B1309223657155N00442749WA0087000948
B1309233657157N00442750WA0086900948
B1309243657160N00442750WA0086900947
B1309253657164N00442750WA0086800947
B1309263657167N00442748WA0086800946
B1309273657171N00442745WA0086700946
B1309283657174N00442741WA0086600945
B1309293657177N00442735WA0086600944
B1309303657179N00442729WA0086500944
B1309313657180N00442722WA0086600943
B1309323657181N00442715WA0086500943
B1309333657181N00442708WA0086500943
B1309343657181N00442699WA0086400942
B1309353657181N00442693WA0086400942
B1309363657182N00442686WA0086400942
B1309373657182N00442678WA0086400942
B1309383657182N00442670WA0086500942
B1309393657180N00442663WA0086500942
B1309403657177N00442655WA0086600943
B1309413657171N00442649WA0086700943
B1309423657165N00442644WA0086800944
B1309433657158N00442641WA0087000945
B1309443657152N00442639WA0087100947
B1309453657147N00442638WA0087200948
B1309463657141N00442638WA0087300950
B1309473657135N00442637WA0087300950
B1309483657129N00442636WA0087400951
B1309493657123N00442636WA0087400952
B1309503657117N00442636WA0087500952
B1309513657111N00442636WA0087500952
B1309523657106N00442635WA0087600953
B1309533657102N00442636WA0087700954
B1309543657098N00442637WA0087800955
B1309553657095N00442639WA0087900956
B1309563657092N00442641WA0088100957
B1309573657089N00442644WA0088100958
B1309583657087N00442648WA0088100959
B1310003657084N00442655WA0088300960
B1310013657083N00442659WA0088300961
B1310023657081N00442663WA0088400962
B1310033657079N00442667WA0088600962
B1310043657078N00442671WA0088600963
B1310053657076N00442675WA0088400964
B1310063657075N00442679WA0088400963
B1310073657074N00442684WA0088300962
B1310083657073N00442688WA0088400962
B1310093657072N00442691WA0088300962
B1310103657073N00442695WA0088200961
B1310113657075N00442697WA0088200961
B1310123657077N00442700WA0088100959
B1310133657080N00442701WA0088200959
B1310143657083N00442701WA0088200960
B1310153657086N00442700WA0088400961
B1310163657089N00442698WA0088400961
B1310173657091N00442696WA0088500962
B1310183657094N00442693WA0088500962
B1310193657097N00442690WA0088500962
B1310203657099N00442686WA0088400962
B1310213657101N00442682WA0088400962
B1310223657103N00442677WA0088200961
B1310233657106N00442672WA0088200960
B1310243657109N00442667WA0088300959
B1310253657112N00442659WA0088400960
B1310263657113N00442657WA0088500960
B1310273657114N00442650WA0088600961
B1310283657114N00442644WA0088700963
B1310293657114N00442637WA0088700963
B1310303657113N00442629WA0088700964
B1310313657114N00442622WA0088800964
B1310323657115N00442615WA0088900964
B1310333657116N00442608WA0089000965
B1310343657118N00442602WA0089100967
B1310353657119N00442597WA0089300968
B1310363657121N00442592WA0089300970
B1310373657123N00442588WA0089400970
B1310383657126N00442586WA0089500971
B1310393657129N00442586WA0089600972
B1310403657131N00442587WA0089600973
B1310413657132N00442590WA0089700973
B1310423657131N00442593WA0089800974
B1310433657130N00442596WA0089900975
B1310443657127N00442599WA0089800975
B1310453657122N00442602WA0089900975
B1310463657117N00442604WA0089900975
B1310473657110N00442605WA0090000976
B1310483657104N00442605WA0090100977
B1310493657098N00442605WA0090100978
B1310503657092N00442605WA0090100979
B1310513657085N00442605WA0090100979
B1310523657080N00442606WA0090200979
B1310533657073N00442607WA0090300979
B1310543657067N00442609WA0090400980
B1310553657062N00442611WA0090500981
B1310563657057N00442613WA0090800983
B1310573657053N00442615WA0091000984
B1310583657048N00442617WA0091100986
B1310593657042N00442620WA0091100988
B1311003657037N00442624WA0091100989
B1311013657033N00442628WA0091300990
B1311023657030N00442632WA0091400991
B1311033657028N00442635WA0091400993
B1311043657027N00442639WA0091500993
B1311053657027N00442642WA0091600994
B1311063657027N00442644WA0091700995
B1311073657028N00442645WA0091700996
B1311083657030N00442645WA0091600996
B1311093657032N00442644WA0091500995
B1311103657035N00442642WA0091400994
B1311113657038N00442639WA0091400993
B1311123657040N00442636WA0091400993
B1311133657042N00442631WA0091400993
B1311143657044N00442626WA0091400993
B1311153657045N00442621WA0091400993
B1311163657046N00442610WA0091600994
B1311173657046N00442608WA0091700994
B1311183657047N00442602WA0091900996
B1311193657048N00442597WA0092100998
B1311203657051N00442592WA0092100999
B1311213657053N00442587WA0092401001
B1311223657055N00442584WA0092501003
B1311233657058N00442582WA0092701005
B1311243657061N00442580WA0092801007
B1311253657064N00442579WA0092801008
B1311263657067N00442579WA0092901008
B1311273657069N00442580WA0092901009
B1311283657070N00442582WA0092901009
B1311293657070N00442585WA0092901009
B1311303657070N00442587WA0092901010
B1311313657068N00442590WA0092901010
B1311323657065N00442593WA0092901009
B1311333657061N00442596WA0092901009
B1311343657057N00442598WA0093001009
B1311353657053N00442599WA0093001009
B1311363657048N00442599WA0093101010
B1311373657042N00442600WA0093101010
B1311383657037N00442602WA0093301012
B1311393657032N00442605WA0093601014
B1311403657028N00442607WA0093901017
B1311413657022N00442609WA0094101019
B1311423657016N00442613WA0094701026
B1311433657013N00442615WA0095101026
B1311443657010N00442618WA0095401031
B1311453657007N00442620WA0095601034
B1311463657004N00442623WA0095801038
B1311473656999N00442625WA0095901040
B1311483656993N00442628WA0096001041
B1311493656987N00442630WA0096001041
B1311503656981N00442631WA0096101043
B1311513656975N00442633WA0096101044
B1311523656970N00442636WA0096001044
B1311533656966N00442639WA0095901043
B1311543656962N00442644WA0096001042
B1311553656959N00442648WA0096001042
B1311563656957N00442652WA0096101043
B1311573656955N00442656WA0096101043
B1311583656954N00442660WA0096201043
B1311593656954N00442664WA0096201043
B1312003656953N00442669WA0096401044
B1312013656953N00442672WA0096701047
B1312023656953N00442675WA0097001050
B1312033656954N00442677WA0097101052
B1312043656955N00442680WA0097201054
B1312053656956N00442682WA0097201054
B1312063656958N00442685WA0097301055
B1312083656961N00442688WA0097401057
B1312093656962N00442690WA0097301058
B1312103656963N00442692WA0097301057
B1312113656963N00442696WA0097301057
B1312123656962N00442700WA0097301057
B1312133656961N00442703WA0097401057
B1312143656959N00442706WA0097301058
B1312153656956N00442709WA0097301057
B1312163656954N00442713WA0097301057
B1312173656951N00442718WA0097301056
B1312183656947N00442721WA0097401056
B1312193656944N00442724WA0097401057
B1312203656940N00442726WA0097501058
B1312213656936N00442727WA0097501058
B1312223656931N00442729WA0097501058
B1312233656927N00442731WA0097501058
B1312243656922N00442733WA0097601058
B1312253656917N00442734WA0097801059
B1312263656913N00442735WA0097901061
B1312273656909N00442737WA0097901062
B1312283656905N00442738WA0097801062
B1312293656901N00442741WA0097701061
B1312303656896N00442743WA0097801061
B1312313656892N00442745WA0097801061
B1312323656888N00442746WA0097701061
B1312333656884N00442750WA0097401059
B1312343656882N00442752WA0097301059
B1312353656880N00442756WA0097101056
B1312363656880N00442760WA0096701053
B1312373656880N00442763WA0096501050
B1312383656880N00442765WA0096301048
B1312393656881N00442766WA0096201046
B1312403656881N00442766WA0095901044
B1312413656882N00442767WA0095601041
B1312423656884N00442768WA0095201038
B1312433656887N00442769WA0095101034
B1312443656889N00442769WA0095001032
B1312453656892N00442768WA0094901031
B1312463656894N00442766WA0094701030
B1312473656896N00442764WA0094501029
B1312483656899N00442763WA0094201026
B1312493656901N00442761WA0094001023
B1312503656903N00442759WA0093701021
B1312513656905N00442758WA0093301018
B1312523656908N00442756WA0093101014
B1312533656911N00442754WA0092601011
B1312543656914N00442753WA0092201007
B1312553656917N00442751WA0092001003
B1312563656921N00442751WA0091701000
B1312573656925N00442750WA0091500997
B1312583656929N00442750WA0091400995
B1312593656933N00442749WA0091200992
B1313003656936N00442749WA0091100992
B1313013656939N00442748WA0091100990
B1313023656943N00442748WA0091000989
B1313033656947N00442747WA0091000988
B1313043656951N00442746WA0090900988
B1313053656954N00442746WA0090900988
B1313063656957N00442744WA0090800987
B1313073656961N00442742WA0090600986
B1313083656965N00442740WA0090400984
B1313093656969N00442737WA0090200982
B1313103656973N00442735WA0090200980
B1313113656977N00442732WA0090100979
B1313123656981N00442729WA0090100978
B1313133656985N00442725WA0090000977
B1313143656990N00442721WA0089900977
B1313153656994N00442717WA0089800976
B1313163656998N00442713WA0089700975
B1313173657002N00442708WA0089600974
B1313183657005N00442703WA0089500973
B1313193657008N00442697WA0089300972
B1313203657012N00442692WA0089200971
B1313213657016N00442686WA0089100969
B1313223657021N00442681WA0089100967
B1313233657025N00442676WA0089100967
B1313243657031N00442667WA0089200969
B1313253657032N00442666WA0089200969
B1313263657035N00442661WA0089300969
B1313273657039N00442656WA0089200970
B1313283657042N00442652WA0089200969
B1313293657046N00442647WA0089100969
B1313303657050N00442642WA0089100969
B1313313657053N00442636WA0089100969
B1313323657055N00442631WA0089200969
B1313333657058N00442625WA0089200969
B1313343657061N00442620WA0089200969
B1313353657064N00442614WA0089200969
B1313363657068N00442608WA0089100969
B1313373657071N00442603WA0089200969
B1313383657073N00442598WA0089200969
B1313393657076N00442592WA0089300970
B1313403657080N00442587WA0089300970
B1313413657083N00442582WA0089300970
B1313423657087N00442577WA0089400970
B1313433657090N00442573WA0089400971
B1313443657094N00442569WA0089400971
B1313453657098N00442566WA0089300971
B1313463657101N00442562WA0089300971
B1313473657104N00442557WA0089300970
B1313483657107N00442552WA0089300970
B1313493657110N00442548WA0089300970
B1313503657114N00442542WA0089400971
B1313513657117N00442539WA0089400971
B1313523657120N00442535WA0089500972
B1313533657124N00442530WA0089500972
B1313543657127N00442526WA0089500972
B1313553657131N00442522WA0089600972
B1313563657135N00442518WA0089600972
B1313573657138N00442514WA0089700973
B1313583657140N00442510WA0089700974
B1313593657143N00442507WA0089700974
B1314003657146N00442504WA0089700975
B1314013657149N00442501WA0089600974
B1314023657152N00442500WA0089600973
B1314033657154N00442499WA0089400972
B1314043657156N00442497WA0089300971
B1314053657159N00442494WA0089100969
B1314063657162N00442490WA0089100968
B1314073657165N00442485WA0089100967
B1314083657167N00442481WA0089100967
B1314093657169N00442477WA0089100968
B1314103657171N00442472WA0089100968
B1314113657173N00442466WA0089000967
B1314123657175N00442461WA0088900966
B1314133657178N00442456WA0088800965
B1314143657181N00442451WA0088700963
B1314163657185N00442439WA0088700962
B1314173657187N00442432WA0088600962
B1314183657189N00442426WA0088600962
B1314193657191N00442419WA0088700962
B1314203657193N00442412WA0088800962
B1314213657195N00442406WA0089100963
B1314223657199N00442402WA0089200965
B1314233657202N00442400WA0089500968
B1314243657205N00442400WA0089600970
B1314253657207N00442402WA0089900972
B1314263657209N00442405WA0090100974
B1314273657210N00442409WA0090300976
B1314283657211N00442412WA0090700979
B1314293657211N00442415WA0091000983
B1314303657211N00442418WA0091200986
B1314313657210N00442421WA0091500990
B1314323657208N00442423WA0091800993
B1314333657205N00442425WA0091900995
B1314343657203N00442427WA0091900997
B1314353657201N00442430WA0092000998
B1314363657198N00442433WA0091900998
B1314373657195N00442435WA0091800997
B1314383657192N00442438WA0091800997
B1314393657189N00442441WA0091600996
B1314403657185N00442443WA0091600995
B1314413657179N00442446WA0091400993
B1314423657177N00442447WA0091400993
B1314433657173N00442449WA0091200993
B1314443657168N00442451WA0091100991
B1314453657163N00442454WA0091100990
B1314463657159N00442458WA0091100989
B1314473657155N00442462WA0091200990
B1314483657152N00442465WA0091400991
B1314493657150N00442468WA0091600993
B1314503657148N00442471WA0091500994
B1314513657146N00442473WA0091400995
B1314523657144N00442475WA0091300994
B1314533657141N00442478WA0091100992
B1314543657138N00442480WA0091000990
B1314553657134N00442483WA0090700988
B1314563657131N00442486WA0090700987
B1314573657127N00442488WA0090700986
B1314583657123N00442490WA0090800985
B1314593657118N00442493WA0090800985
B1315003657115N00442497WA0090700985
B1315013657111N00442500WA0090800985
B1315023657108N00442504WA0091000986
B1315033657104N00442506WA0091100987
B1315043657101N00442508WA0091100988
B1315053657097N00442511WA0091000988
B1315063657094N00442514WA0090800987
B1315073657092N00442519WA0090600984
B1315083657092N00442522WA0090500984
B1315093657093N00442526WA0090400982
B1315103657094N00442529WA0090300982
B1315113657097N00442530WA0090300981
B1315123657100N00442530WA0090100980
B1315133657103N00442529WA0090100978
B1315143657107N00442528WA0090100977
B1315153657110N00442526WA0090200977
B1315163657114N00442525WA0090300978
B1315173657118N00442524WA0090600979
B1315183657121N00442523WA0090700981
B1315193657124N00442525WA0090900983
B1315203657126N00442527WA0091100985
B1315213657128N00442529WA0091100987
B1315223657130N00442531WA0091300989
B1315233657134N00442531WA0091400990
B1315243657138N00442529WA0091500990
B1315253657141N00442524WA0091500991
B1315263657142N00442517WA0091500991
B1315273657142N00442508WA0091500991
B1315283657139N00442500WA0091500991
B1315293657133N00442494WA0091700991
B1315303657127N00442492WA0091800992
B1315313657121N00442494WA0091700993
B1315323657114N00442503WA0092100995
B1315333657114N00442504WA0092100995
B1315343657114N00442509WA0092400997
B1315353657114N00442514WA0092801000
B1315363657114N00442518WA0093001004
B1315373657114N00442522WA0093101007
B1315383657113N00442526WA0093301009
B1315393657112N00442531WA0093301010
B1315403657111N00442535WA0093501011
B1315413657111N00442538WA0093601013
B1315423657110N00442541WA0093601014
B1315433657110N00442544WA0093601014
B1315443657110N00442548WA0093601014
B1315453657111N00442552WA0093701013
B1315463657112N00442556WA0093901014
B1315473657113N00442559WA0094101016
B1315483657114N00442561WA0094201018
B1315493657116N00442564WA0094101019
B1315503657116N00442567WA0094101019
B1315513657115N00442571WA0094001018
B1315523657112N00442575WA0093701017
B1315533657109N00442578WA0093701015
B1315543657107N00442581WA0093601014
B1315553657105N00442584WA0093401013
B1315563657104N00442588WA0093301012
B1315573657102N00442592WA0093201010
B1315583657101N00442597WA0093101009
B1315593657100N00442600WA0093101009
B1316003657100N00442604WA0093101008
B1316013657102N00442606WA0093101008
B1316023657104N00442609WA0093001008
B1316033657107N00442611WA0093101007
B1316043657110N00442612WA0093101007
B1316053657112N00442614WA0093101008
B1316063657115N00442616WA0093201009
B1316073657118N00442618WA0093401011
B1316083657120N00442620WA0093601012
B1316093657122N00442621WA0093801014
B1316103657124N00442623WA0093901016
B1316113657127N00442624WA0093801017
B1316123657130N00442624WA0093801016
B1316133657133N00442622WA0093701016
B1316143657137N00442617WA0093601015
B1316153657140N00442611WA0093501014
B1316163657141N00442603WA0093601014
B1316173657140N00442594WA0093501014
B1316183657136N00442585WA0093501013
B1316193657131N00442578WA0093501012
B1316203657124N00442573WA0093501012
B1316213657118N00442571WA0093701013
B1316223657112N00442570WA0093801015
B1316243657102N00442572WA0094101017
B1316253657098N00442575WA0094101018
B1316263657093N00442577WA0094301019
B1316273657090N00442580WA0094301020
B1316283657087N00442583WA0094401021
B1316293657084N00442587WA0094501022
B1316303657081N00442591WA0094501023
B1316313657079N00442595WA0094601024
B1316323657078N00442599WA0094801024
B1316333657078N00442603WA0094801025
B1316343657079N00442605WA0094901026
B1316353657080N00442607WA0094901027
B1316363657082N00442607WA0094901027
B1316373657083N00442608WA0094901027
B1316383657085N00442608WA0094801027
B1316393657087N00442608WA0094701026
B1316403657091N00442608WA0094701025
B1316413657094N00442605WA0094701025
B1316423657098N00442601WA0094701024
B1316433657101N00442593WA0094801024
B1316443657101N00442584WA0094801025
B1316453657099N00442575WA0094801025
B1316463657095N00442567WA0095001025
B1316473657090N00442560WA0095101026
B1316483657084N00442555WA0095201028
B1316493657075N00442550WA0095201029
B1316503657072N00442549WA0095201029
B1316513657065N00442548WA0095301030
B1316523657060N00442548WA0095401031
B1316533657055N00442548WA0095501032
B1316543657050N00442548WA0095701034
B1316553657045N00442549WA0095801035
B1316563657040N00442550WA0095901036
B1316573657035N00442552WA0096101037
B1316583657031N00442554WA0096101038
B1316593657027N00442556WA0096201039
B1317003657024N00442558WA0096301041
B1317013657021N00442561WA0096501042
B1317023657018N00442564WA0096501042
B1317033657016N00442568WA0096601044
B1317043657014N00442570WA0096801045
B1317053657013N00442573WA0096901046
B1317063657013N00442576WA0097001047
B1317073657012N00442578WA0097101048
B1317083657011N00442580WA0097201050
B1317093657010N00442582WA0097301051
B1317103657009N00442585WA0097301052
B1317113657009N00442587WA0097301052
B1317123657008N00442589WA0097501053
B1317133657008N00442592WA0097701054
B1317143657007N00442594WA0097801055
B1317153657006N00442597WA0098101058
B1317163657005N00442600WA0098201058
B1317173657005N00442602WA0098501060
B1317183657004N00442603WA0099001064
B1317193657003N00442603WA0099201069
B1317203657002N00442603WA0099401071
B1317213657001N00442604WA0099301073
B1317223657000N00442606WA0099501074
B1317233657000N00442609WA0099701075
B1317243657000N00442611WA0100101078
B1317253657001N00442613WA0100501081
B1317263657002N00442614WA0100801085
B1317273657002N00442614WA0101101089
B1317283657001N00442616WA0101301092
B1317293657001N00442618WA0101501094
B1317303657002N00442622WA0101601095
B1317313657002N00442625WA0101901097
B1317323657003N00442627WA0102301101
B1317333657003N00442629WA0102401104
B1317343657002N00442631WA0102501107
B1317353657001N00442632WA0102501108
B1317363656999N00442634WA0102501108
B1317373656997N00442637WA0102401108
B1317383656996N00442640WA0102301106
B1317393656994N00442644WA0102401106
B1317403656988N00442650WA0102501107
B1317413656987N00442650WA0102501107
B1317423656983N00442653WA0102501107
B1317433656979N00442656WA0102401108
B1317443656975N00442658WA0102401107
B1317453656970N00442662WA0102301107
B1317463656966N00442665WA0102201105
B1317473656961N00442669WA0102201104
B1317483656957N00442673WA0102201104
B1317493656952N00442676WA0102201104
B1317503656948N00442679WA0102201104
B1317513656943N00442682WA0102001104
B1317523656937N00442685WA0101801103
B1317533656931N00442688WA0101701102
B1317543656926N00442691WA0101701100
B1317553656921N00442695WA0101601099
B1317563656917N00442698WA0101601098
B1317573656913N00442702WA0101501097
B1317583656908N00442706WA0101401096
B1317593656904N00442710WA0101401096
B1318003656900N00442714WA0101301095
B1318013656896N00442717WA0101201095
B1318023656893N00442721WA0101201094
B1318033656889N00442725WA0101101094
B1318043656885N00442730WA0101001093
B1318053656881N00442735WA0101101092
B1318063656877N00442741WA0101001092
B1318073656874N00442743WA0101001092
B1318083656870N00442747WA0100901092
B1318093656867N00442751WA0100801091
B1318103656863N00442755WA0100701090
B1318113656859N00442759WA0100701089
B1318123656854N00442763WA0100801090
B1318133656850N00442766WA0100701090
B1318143656846N00442769WA0100601090
B1318153656841N00442773WA0100601089
B1318163656837N00442777WA0100601088
B1318173656832N00442782WA0100601087
B1318183656828N00442786WA0100601087
B1318193656823N00442789WA0100601088
B1318203656819N00442792WA0100701089
B1318213656815N00442796WA0100601089
B1318223656811N00442800WA0100501088
B1318233656807N00442804WA0100601087
B1318243656803N00442808WA0100601088
B1318253656799N00442812WA0100801089
B1318263656796N00442816WA0101001090
B1318273656792N00442819WA0101101091
B1318283656789N00442823WA0101101092
B1318293656786N00442826WA0101201093
B1318303656783N00442830WA0101401094
B1318323656777N00442836WA0101301095
B1318333656773N00442841WA0101201095
B1318343656770N00442845WA0101301094
B1318353656766N00442850WA0101401094
B1318363656762N00442854WA0101501095
B1318373656759N00442858WA0101601096
B1318383656756N00442861WA0101601097
B1318393656753N00442865WA0101501097
B1318403656749N00442869WA0101401096
B1318413656746N00442874WA0101401095
B1318423656742N00442879WA0101301094
B1318433656739N00442883WA0101501095
B1318443656735N00442887WA0101601096
B1318453656732N00442891WA0101701097
B1318463656729N00442894WA0101701098
B1318473656725N00442898WA0101701098
B1318483656721N00442902WA0101701098
B1318493656717N00442906WA0101701099
B1318503656714N00442911WA0101701099
B1318513656710N00442915WA0101801099
B1318523656707N00442919WA0101801099
B1318533656704N00442924WA0101801099
B1318543656702N00442929WA0101801100
B1318553656701N00442933WA0101901100
B1318563656701N00442936WA0102001101
B1318573656703N00442940WA0101901101
B1318583656704N00442941WA0101901101
B1318593656706N00442942WA0102201101
B1319003656707N00442944WA0102201101
B1319013656708N00442946WA0102301103
B1319023656709N00442947WA0102401104
B1319033656711N00442947WA0102501105
B1319043656713N00442948WA0102601105
B1319053656716N00442948WA0102701106
B1319063656718N00442947WA0102801108
B1319073656719N00442947WA0102801109
B1319083656721N00442947WA0102901110
B1319093656723N00442946WA0102901111
B1319103656724N00442945WA0102901111
B1319113656726N00442944WA0102801111
B1319123656728N00442942WA0102801110
B1319133656731N00442941WA0102801110
B1319143656733N00442939WA0102801109
B1319153656735N00442937WA0102801109
B1319163656737N00442934WA0102701109
B1319173656740N00442931WA0102801109
B1319183656742N00442927WA0102801108
B1319193656745N00442923WA0102901109
B1319203656747N00442919WA0103101111
B1319213656749N00442915WA0103201113
B1319223656749N00442910WA0103301114
B1319233656750N00442905WA0103401116
B1319243656751N00442902WA0103401116
B1319253656753N00442899WA0103401116
B1319263656755N00442898WA0103401116
B1319273656756N00442898WA0103401116
B1319283656757N00442900WA0103401116
B1319293656758N00442902WA0103301116
B1319303656757N00442906WA0103301115
B1319313656756N00442910WA0103301115
B1319323656754N00442915WA0103301116
B1319333656750N00442919WA0103301116
B1319343656746N00442922WA0103201115
B1319353656742N00442926WA0103101114
B1319363656737N00442931WA0103001113
B1319373656733N00442935WA0103001113
B1319383656730N00442940WA0103001112
B1319393656728N00442944WA0102901112
B1319403656726N00442948WA0102801112
B1319413656725N00442952WA0102801111
B1319423656726N00442955WA0102701109
B1319433656728N00442958WA0102501108
B1319443656730N00442959WA0102501107
B1319453656732N00442959WA0102401106
B1319463656734N00442958WA0102201105
B1319473656737N00442957WA0102201104
B1319483656741N00442955WA0102101102
B1319493656742N00442955WA0102101102
B1319503656745N00442954WA0102001101
B1319513656747N00442953WA0102001101
B1319523656750N00442951WA0101801100
B1319533656752N00442949WA0101701099
B1319543656755N00442946WA0101701098
B1319553656758N00442943WA0101601096
B1319563656761N00442939WA0101601096
B1319573656764N00442936WA0101501095
B1319583656767N00442934WA0101501095
B1319593656770N00442932WA0101401094
B1320003656774N00442929WA0101401094
B1320013656777N00442926WA0101301093
B1320023656780N00442923WA0101401093
B1320033656784N00442919WA0101401093
B1320043656788N00442917WA0101401094
B1320053656791N00442914WA0101501094
B1320063656794N00442911WA0101501095
B1320073656798N00442908WA0101701095
B1320083656801N00442905WA0101701096
B1320093656805N00442902WA0101901097
B1320103656807N00442899WA0102201100
B1320113656810N00442897WA0102401102
B1320123656813N00442896WA0102501104
B1320133656816N00442894WA0102601105
B1320143656820N00442892WA0102801108
B1320153656823N00442891WA0102801108
B1320163656826N00442889WA0102901109
B1320173656828N00442886WA0103001110
B1320183656830N00442882WA0103101111
B1320193656833N00442879WA0103101112
B1320203656835N00442877WA0103201112
B1320213656838N00442874WA0103401113
B1320223656840N00442872WA0103501115
B1320233656842N00442870WA0103601116
B1320243656844N00442867WA0103701117
B1320253656845N00442865WA0103801118
B1320263656846N00442863WA0103801119
B1320273656848N00442861WA0103701119
B1320283656849N00442859WA0103701118
B1320293656851N00442856WA0103601118
B1320303656852N00442854WA0103601117
B1320313656854N00442852WA0103601117
B1320323656856N00442849WA0103601116
B1320333656858N00442846WA0103701116
B1320343656860N00442844WA0103801117
B1320353656862N00442841WA0104001118
B1320363656863N00442839WA0104001119
B1320373656865N00442837WA0104101121
B1320383656867N00442834WA0104301122
B1320403656869N00442827WA0104601126
B1320413656871N00442823WA0104801127
B1320423656872N00442821WA0104901129
B1320433656873N00442820WA0105001130
B1320443656874N00442819WA0105001131
B1320453656875N00442819WA0105001132
B1320463656877N00442819WA0105001132
B1320473656879N00442819WA0105001132
B1320483656881N00442819WA0105101132
B1320493656884N00442820WA0105101132
B1320503656885N00442822WA0105301134
B1320513656886N00442825WA0105601135
B1320523656886N00442828WA0105701137
B1320533656887N00442831WA0105801139
B1320543656887N00442835WA0105901140
B1320553656887N00442838WA0106001141
B1320563656886N00442842WA0106001142
B1320573656886N00442845WA0106101143
B1320583656886N00442850WA0106101143
B1320593656886N00442854WA0106201144
B1321003656885N00442859WA0106301145
B1321013656885N00442863WA0106301146
B1321023656883N00442867WA0106401147
B1321033656882N00442872WA0106501148
B1321043656880N00442876WA0106601149
B1321053656879N00442883WA0106701150
B1321063656879N00442885WA0106701150
B1321073656878N00442890WA0106701151
B1321083656877N00442895WA0106801151
B1321093656876N00442900WA0106901151
B1321103656875N00442905WA0107001152
B1321113656874N00442909WA0107201153
B1321123656872N00442912WA0107301155
B1321133656871N00442916WA0107401157
B1321143656870N00442919WA0107401158
B1321153656869N00442923WA0107401157
B1321163656867N00442928WA0107401157
B1321173656865N00442933WA0107401157
B1321183656863N00442937WA0107501157
B1321193656862N00442942WA0107601157
B1321203656860N00442947WA0107801159
B1321213656858N00442951WA0108101162
B1321223656857N00442954WA0108301164
B1321233656856N00442957WA0108301166
B1321243656854N00442961WA0108301167
B1321253656851N00442966WA0108201166
B1321263656848N00442971WA0108301166
B1321273656845N00442975WA0108601167
B1321283656842N00442979WA0108701170
B1321293656840N00442981WA0108701171
B1321303656838N00442985WA0108701172
B1321313656835N00442989WA0108701171
B1321323656833N00442992WA0108601171
B1321333656830N00442996WA0108701171
B1321343656827N00443000WA0108701171
B1321353656825N00443004WA0108701172
B1321363656822N00443008WA0108701172
B1321373656820N00443012WA0108701171
B1321383656816N00443016WA0108601171
B1321393656813N00443021WA0108501170
B1321403656809N00443025WA0108401169
B1321413656806N00443030WA0108301168
B1321423656803N00443035WA0108301168
B1321433656800N00443040WA0108301167
B1321443656797N00443046WA0108301167
B1321453656794N00443051WA0108301167
B1321463656791N00443055WA0108401168
B1321473656788N00443059WA0108401168
B1321483656785N00443064WA0108401168
B1321493656782N00443069WA0108401168
B1321503656779N00443075WA0108501168
B1321513656777N00443081WA0108601168
B1321523656775N00443086WA0108701170
B1321533656773N00443091WA0108901172
B1321543656772N00443096WA0109001173
B1321553656770N00443101WA0108901174
B1321563656767N00443109WA0108801173
B1321573656767N00443111WA0108701173
B1321583656765N00443116WA0108701172
B1321593656763N00443122WA0108601171
B1322003656762N00443127WA0108501170
B1322013656760N00443133WA0108301169
B1322023656759N00443139WA0108101167
B1322033656757N00443145WA0107901165
B1322043656754N00443150WA0107701163
B1322053656752N00443155WA0107501161
B1322063656749N00443161WA0107201158
B1322073656746N00443166WA0106901156
B1322083656744N00443171WA0106601153
B1322093656741N00443177WA0106301150
B1322103656738N00443182WA0106201147
B1322113656735N00443188WA0106001145
B1322123656732N00443193WA0105901143
B1322133656729N00443199WA0105701142
B1322143656726N00443204WA0105501140
B1322153656723N00443210WA0105401138
B1322163656720N00443217WA0105301137
B1322173656717N00443223WA0105301136
B1322183656714N00443228WA0105101135
B1322193656711N00443234WA0105101134
B1322203656708N00443240WA0104901133
B1322213656705N00443245WA0104701131
B1322223656702N00443250WA0104501128
B1322233656700N00443254WA0104301128
B1322243656698N00443258WA0104001126
B1322253656696N00443263WA0103701123
B1322263656693N00443268WA0103401119
B1322273656691N00443274WA0103101116
B1322283656689N00443281WA0102901113
B1322293656687N00443287WA0102901110
B1322303656685N00443293WA0102801109
B1322313656683N00443299WA0102801109
B1322323656681N00443305WA0102801108
B1322333656678N00443311WA0102901109
B1322343656676N00443315WA0103001110
B1322353656673N00443319WA0103101111
B1322363656670N00443323WA0103001112
B1322373656667N00443327WA0103001112
B1322383656663N00443332WA0102901111
B1322393656660N00443337WA0102901111
B1322403656657N00443341WA0103001111
B1322413656655N00443345WA0103001111
B1322423656653N00443349WA0103001111
B1322433656651N00443353WA0103101112
B1322443656649N00443358WA0103301112
B1322453656646N00443362WA0103301114
B1322463656645N00443365WA0103301115
B1322483656643N00443372WA0103201114
B1322493656642N00443376WA0103101114
B1322503656640N00443380WA0103001113
B1322513656638N00443384WA0102801112
B1322523656636N00443388WA0102801111
B1322533656634N00443392WA0102701109
B1322543656632N00443397WA0102801108
B1322553656630N00443402WA0102801108
B1322563656627N00443406WA0102801109
B1322573656625N00443410WA0102801110
B1322583656621N00443414WA0102701109
B1322593656618N00443419WA0102501108
B1323003656614N00443424WA0102301106
B1323013656611N00443429WA0102301104
B1323023656608N00443433WA0102201104
B1323033656605N00443438WA0102301104
B1323043656603N00443441WA0102401104
B1323053656600N00443444WA0102401105
B1323063656598N00443447WA0102501106
B1323073656595N00443451WA0102401106
B1323083656592N00443455WA0102301105
B1323093656590N00443460WA0102301104
B1323103656587N00443465WA0102301103
B1323113656585N00443470WA0102501104
B1323123656583N00443473WA0102601106
B1323133656581N00443478WA0102601107
B1323143656580N00443480WA0102601107
B1323153656580N00443484WA0102501107
B1323163656579N00443488WA0102501106
B1323173656578N00443492WA0102501106
B1323183656577N00443497WA0102501106
B1323193656575N00443502WA0102501106
B1323203656573N00443507WA0102601106
B1323213656571N00443512WA0102601107
B1323223656570N00443516WA0102701107
B1323233656568N00443521WA0102701107
B1323243656566N00443526WA0102701107
B1323253656563N00443530WA0102801107
B1323263656559N00443535WA0102801108
B1323273656555N00443539WA0102801108
B1323283656551N00443543WA0102801109
B1323293656548N00443548WA0102801109
B1323303656546N00443553WA0102801109
B1323313656543N00443558WA0102801109
B1323323656541N00443564WA0102801109
B1323333656539N00443569WA0102801108
B1323343656537N00443575WA0102901109
B1323353656535N00443580WA0102901109
B1323363656534N00443586WA0103001110
B1323373656532N00443592WA0103201111
B1323383656531N00443598WA0103301112
B1323393656529N00443605WA0103401115
B1323403656528N00443608WA0103501115
B1323413656527N00443614WA0103501116
B1323423656526N00443619WA0103601116
B1323433656525N00443625WA0103601116
B1323443656524N00443631WA0103701117
B1323453656523N00443636WA0103701118
B1323463656522N00443641WA0103701118
B1323473656521N00443646WA0103701119
B1323483656521N00443652WA0103601118
B1323493656521N00443657WA0103501117
B1323503656520N00443663WA0103501117
B1323513656520N00443669WA0103501116
B1323523656520N00443675WA0103501116
B1323533656520N00443682WA0103601116
B1323543656520N00443687WA0103701117
B1323553656519N00443693WA0103701118
B1323563656519N00443698WA0103701118
B1323573656518N00443704WA0103701118
B1323583656518N00443710WA0103601118
B1323593656517N00443715WA0103501117
B1324003656516N00443721WA0103501117
B1324013656515N00443726WA0103601117
B1324023656514N00443731WA0103601117
B1324033656513N00443737WA0103601117
B1324043656511N00443746WA0103501117
B1324053656511N00443747WA0103401117
B1324063656510N00443753WA0103301116
B1324073656509N00443759WA0103301115
B1324083656508N00443765WA0103301114
B1324093656507N00443770WA0103401114
B1324103656506N00443774WA0103401115
B1324113656505N00443779WA0103401115
B1324123656505N00443783WA0103301115
B1324133656504N00443787WA0103301115
B1324143656504N00443792WA0103201114
B1324153656503N00443798WA0103201113
B1324163656503N00443802WA0103401114
B1324173656503N00443807WA0103401114
B1324183656503N00443811WA0103401115
B1324193656504N00443814WA0103401115
B1324203656505N00443817WA0103401115
B1324213656507N00443820WA0103401115
B1324223656509N00443822WA0103501115
B1324233656510N00443824WA0103601116
B1324243656512N00443826WA0103701117
B1324253656513N00443828WA0103701117
B1324263656515N00443829WA0103701118
B1324273656517N00443829WA0103601118
B1324283656519N00443827WA0103501117
B1324293656521N00443826WA0103401116
B1324303656523N00443823WA0103301115
B1324313656524N00443823WA0103201115
B1324323656526N00443821WA0103201114
B1324333656528N00443819WA0103001113
B1324343656531N00443817WA0103001112
B1324353656533N00443815WA0102901111
B1324363656535N00443813WA0102901111
B1324373656537N00443810WA0102801110
B1324383656540N00443808WA0102801109
B1324393656543N00443805WA0102801109
B1324403656545N00443802WA0102701108
B1324413656547N00443799WA0102801108
B1324423656550N00443796WA0102601107
B1324433656552N00443793WA0102601107
B1324443656555N00443790WA0102501106
B1324453656557N00443787WA0102501106
B1324463656559N00443783WA0102501105
B1324473656561N00443779WA0102401105
B1324483656563N00443775WA0102401105
B1324493656565N00443771WA0102301105
B1324503656566N00443767WA0102201104
B1324513656568N00443763WA0102001103
B1324523656570N00443758WA0101801102
B1324533656572N00443754WA0101701100
B1324543656575N00443749WA0101701099
B1324563656579N00443740WA0101501097
B1324573656582N00443736WA0101401095
B1324583656584N00443731WA0101301094
B1324593656587N00443726WA0101201093
B1325003656588N00443721WA0101301093
B1325013656590N00443717WA0101201093
B1325023656592N00443713WA0101101093
B1325033656594N00443709WA0100901092
B1325043656596N00443705WA0100701089
B1325053656599N00443701WA0100501087
B1325063656602N00443697WA0100301085
B1325073656604N00443692WA0100301083
B1325083656606N00443687WA0100101082
B1325093656607N00443683WA0100001081
B1325103656608N00443678WA0099801080
B1325113656610N00443674WA0099501078
B1325123656612N00443669WA0099401076
B1325133656615N00443665WA0099101074
B1325143656619N00443661WA0098901071
B1325153656622N00443657WA0098801070
B1325163656625N00443653WA0098501068
B1325173656628N00443649WA0098301065
B1325183656631N00443644WA0097901062
B1325193656635N00443639WA0097601059
B1325203656638N00443634WA0097301055
B1325213656644N00443627WA0097101050
B1325223656645N00443625WA0097101050
B1325233656648N00443619WA0096901049
B1325243656651N00443614WA0096801048
B1325253656654N00443609WA0096601047
B1325263656657N00443604WA0096401045
B1325273656660N00443599WA0096101042
B1325283656663N00443593WA0095701039
B1325293656666N00443587WA0095401036
B1325303656669N00443580WA0095201032
B1325313656672N00443574WA0094901030
B1325323656675N00443568WA0094601027
B1325333656677N00443564WA0094401025
B1325343656679N00443559WA0094101022
B1325353656680N00443553WA0093601018
B1325363656682N00443548WA0093201013
B1325373656686N00443542WA0093001008
B1325383656690N00443536WA0092901005
B1325393656692N00443529WA0093101005
B1325403656694N00443522WA0093201006
B1325413656695N00443518WA0093301008
B1325423656697N00443514WA0093101009
B1325433656700N00443510WA0093001008
B1325443656704N00443505WA0092901007
B1325453656707N00443499WA0092901005
B1325463656709N00443492WA0092901005
B1325473656710N00443484WA0093001005
B1325483656711N00443480WA0093001005
B1325493656713N00443475WA0093001005
B1325503656716N00443471WA0092901004
B1325513656718N00443466WA0092801004
B1325523656719N00443460WA0092701002
B1325533656720N00443454WA0092901002
B1325543656720N00443449WA0093201003
B1325553656720N00443445WA0093401006
B1325563656720N00443442WA0093501009
B1325573656720N00443439WA0093601010
B1325583656722N00443434WA0093601010
B1325593656723N00443429WA0093601010
B1326003656725N00443424WA0094001012
B1326013656726N00443420WA0094201014
B1326023656727N00443416WA0094501018
B1326033656727N00443413WA0094701021
B1326043656728N00443409WA0094901023
B1326053656729N00443405WA0095001025
B1326063656731N00443401WA0095201026
B1326073656733N00443397WA0095501028
B1326083656735N00443394WA0095701031
B1326093656736N00443392WA0096001034
B1326103656738N00443390WA0096201036
B1326113656739N00443387WA0096201038
B1326123656743N00443381WA0096501041
B1326133656743N00443380WA0096601041
B1326143656746N00443378WA0096801043
B1326153656748N00443376WA0097101045
B1326163656750N00443374WA0097301048
B1326173656752N00443372WA0097401050
B1326183656754N00443371WA0097501052
B1326193656756N00443369WA0097701053
B1326203656758N00443368WA0097901055
B1326213656761N00443368WA0098001056
B1326223656763N00443369WA0098101058
B1326233656766N00443370WA0098201059
B1326243656768N00443370WA0098301060
B1326253656770N00443368WA0098301061
B1326263656772N00443364WA0098201061
B1326273656772N00443358WA0098201060
B1326283656771N00443352WA0098301060
B1326293656769N00443346WA0098401060
B1326303656765N00443341WA0098501062
B1326313656761N00443337WA0098501063
B1326323656756N00443333WA0098601063
B1326333656752N00443328WA0098601063
B1326343656747N00443324WA0098601063
B1326353656742N00443319WA0098601063
B1326363656737N00443314WA0098701064
B1326373656731N00443310WA0098901065
B1326383656720N00443307WA0099101067
B1326393656716N00443307WA0099201067
B1326403656709N00443309WA0099501069
B1326413656703N00443313WA0099501071
B1326423656699N00443318WA0099801073
B1326433656695N00443325WA0100101075
B1326443656692N00443331WA0100401078
B1326453656690N00443337WA0100701081
B1326463656689N00443344WA0100901084
B1326473656688N00443350WA0101101087
B1326483656687N00443357WA0101301089
B1326493656686N00443365WA0101401090
B1326503656685N00443371WA0101501092
B1326513656685N00443378WA0101701093
B1326523656687N00443383WA0101701094
B1326533656689N00443387WA0101801096
B1326543656691N00443391WA0102101098
B1326553656693N00443394WA0102201100
B1326563656695N00443396WA0102301101
B1326573656698N00443397WA0102201102
B1326583656700N00443397WA0102201102
B1326593656703N00443395WA0102101101
B1327003656706N00443392WA0102201101
B1327013656708N00443388WA0102101101
B1327023656709N00443383WA0102201101
B1327043656710N00443373WA0102101101
B1327053656709N00443368WA0102001100
B1327063656709N00443362WA0102001100
B1327073656709N00443357WA0102001100
B1327083656709N00443352WA0101901099
B1327093656708N00443348WA0101701099
B1327103656709N00443343WA0101501097
B1327113656710N00443339WA0101201094
B1327123656710N00443335WA0100801091
B1327133656711N00443331WA0100601088
B1327143656713N00443327WA0100201084
B1327153656715N00443323WA0099801081
B1327163656717N00443318WA0099501077
B1327173656718N00443313WA0099201073
B1327183656720N00443308WA0098901070
B1327193656722N00443304WA0098801068
B1327203656724N00443301WA0098501066
B1327213656726N00443298WA0098301064
B1327223656728N00443295WA0098001061
B1327233656731N00443291WA0097701058
B1327243656734N00443287WA0097301054
B1327253656738N00443284WA0096901050
B1327263656741N00443281WA0096701047
B1327273656744N00443279WA0096601045
B1327283656746N00443276WA0096401043
B1327293656748N00443272WA0096201039
B1327303656749N00443270WA0096101039
B1327313656752N00443268WA0095901037
B1327323656754N00443267WA0095601035
B1327333656756N00443267WA0095301033
B1327343656758N00443265WA0095201031
B1327353656760N00443263WA0094901028
B1327363656763N00443260WA0094701025
B1327373656765N00443258WA0094601024
B1327383656767N00443255WA0094401022
B1327393656768N00443253WA0094201021
B1327403656770N00443250WA0094001018
B1327413656772N00443246WA0093801016
B1327423656774N00443242WA0093601013
B1327433656776N00443238WA0093601012
B1327443656777N00443235WA0093601012
B1327453656779N00443232WA0093501011
B1327463656780N00443228WA0093301010
B1327473656781N00443225WA0093101008
B1327483656783N00443221WA0092901006
B1327493656785N00443217WA0092701004
B1327503656787N00443213WA0092501002
B1327513656788N00443208WA0092401000
B1327523656789N00443203WA0092100999
B1327533656790N00443198WA0092100997
B1327543656791N00443192WA0091900995
B1327553656793N00443185WA0091900993
B1327563656794N00443180WA0091900993
B1327573656795N00443175WA0091900993
B1327583656795N00443170WA0092000993
B1327593656796N00443165WA0092000994
B1328003656796N00443159WA0092100994
B1328013656796N00443153WA0092100994
B1328023656796N00443146WA0092200995
B1328033656796N00443140WA0092500997
B1328043656796N00443135WA0092901000
B1328053656797N00443130WA0093101003
B1328063656797N00443123WA0093401007
B1328073656797N00443117WA0093701009
B1328083656798N00443110WA0094101012
B1328093656800N00443105WA0094301016
B1328103656802N00443101WA0094601019
B1328113656804N00443097WA0094901022
B1328123656806N00443093WA0095201025
B1328133656808N00443090WA0095501028
B1328143656810N00443087WA0095601031
B1328153656812N00443084WA0095701032
B1328163656815N00443081WA0095701033
B1328173656816N00443077WA0095801034
B1328183656818N00443074WA0095901035
B1328193656820N00443070WA0095801035
B1328203656825N00443062WA0095701034
B1328213656825N00443061WA0095701034
B1328223656828N00443056WA0095801034
B1328233656831N00443052WA0096001035
B1328243656834N00443049WA0096201036
B1328253656837N00443047WA0096201038
B1328263656840N00443045WA0096201039
B1328273656843N00443043WA0096301039
B1328283656847N00443040WA0096401040
B1328293656850N00443038WA0096601041
B1328303656853N00443038WA0096901043
B1328313656856N00443039WA0097101045
B1328323656859N00443042WA0097201047
B1328333656862N00443045WA0097301048
B1328343656865N00443048WA0097501050
B1328353656868N00443051WA0097701052
B1328363656871N00443054WA0097801054
B1328373656874N00443057WA0097901055
B1328383656877N00443060WA0097901056
B1328393656880N00443062WA0097901057
B1328403656884N00443064WA0097801056
B1328413656887N00443064WA0097701056
B1328423656890N00443064WA0097501054
B1328433656894N00443063WA0097301052
B1328443656897N00443061WA0097301050
B1328453656900N00443058WA0097001048
B1328463656903N00443053WA0096801045
B1328473656905N00443051WA0096701045
B1328483656907N00443047WA0096501043
B1328493656909N00443044WA0096301042
B1328503656911N00443039WA0096201039
B1328513656914N00443034WA0096001037
B1328523656916N00443029WA0095901036
B1328533656918N00443024WA0095901035
B1328543656920N00443019WA0095901034
B1328553656921N00443014WA0095901034
B1328563656923N00443010WA0095901035
B1328573656924N00443005WA0095801035
B1328583656925N00443001WA0095601033
B1328593656927N00442996WA0095401032
B1329003656929N00442991WA0095301030
B1329013656930N00442987WA0095201029
B1329023656932N00442983WA0095101028
B1329033656933N00442978WA0094901027
B1329043656934N00442973WA0094701025
B1329053656936N00442967WA0094601023
B1329063656937N00442961WA0094501021
B1329073656938N00442956WA0094501020
B1329083656940N00442952WA0094501020
B1329093656941N00442948WA0094501020
B1329103656943N00442945WA0094501020
B1329123656945N00442936WA0094401020
B1329133656946N00442932WA0094401019
B1329143656947N00442927WA0094401019
B1329153656948N00442923WA0094301019
B1329163656948N00442919WA0094101018
B1329173656949N00442913WA0094001017
B1329183656950N00442907WA0093901015
B1329193656951N00442901WA0093901014
B1329203656952N00442897WA0094001014
B1329213656952N00442893WA0093901015
B1329223656952N00442890WA0093801015
B1329233656953N00442887WA0093801014
B1329243656954N00442883WA0093601013
B1329253656956N00442880WA0093501011
B1329263656957N00442877WA0093301010
B1329273656959N00442874WA0093201009
B1329283656960N00442871WA0093101008
B1329293656962N00442867WA0093001006
B1329303656964N00442863WA0093001004
B1329313656965N00442858WA0092901003
B1329323656966N00442853WA0092901003
B1329333656967N00442848WA0092901003
B1329343656968N00442843WA0092701002
B1329353656970N00442839WA0092501001
B1329363656972N00442836WA0092301000
B1329373656975N00442830WA0092100996
B1329383656976N00442827WA0092100996
B1329393656978N00442823WA0092100995
B1329403656980N00442819WA0091900994
B1329413656981N00442815WA0091700993
B1329423656983N00442810WA0091600991
B1329433656985N00442805WA0091500989
B1329443656987N00442800WA0091500988
B1329453656989N00442795WA0091600988
B1329463656990N00442790WA0091800989
B1329473656992N00442785WA0092000991
B1329483656994N00442782WA0092100993
B1329493656996N00442780WA0092200995
B1329503656998N00442778WA0092300996
B1329513657001N00442777WA0092400997
B1329523657004N00442775WA0092500997
B1329533657008N00442775WA0092600998
B1329543657011N00442777WA0092801000
B1329553657013N00442780WA0093001001
B1329563657015N00442785WA0093101004
B1329573657016N00442790WA0093301006
B1329583657017N00442795WA0093401008
B1329593657017N00442801WA0093401009
B1330003657015N00442806WA0093401009
B1330013657013N00442812WA0093401009
B1330023657011N00442818WA0093401009
B1330033657009N00442825WA0093701010
B1330043657008N00442829WA0093801010
B1330053657005N00442834WA0094001012
B1330063657003N00442839WA0094101014
B1330073657001N00442843WA0094301016
B1330083657000N00442848WA0094401018
B1330093657000N00442853WA0094401019
B1330103657002N00442858WA0094501019
B1330113657004N00442862WA0094701020
B1330123657007N00442865WA0095001022
B1330133657010N00442867WA0095201025
B1330143657014N00442866WA0095501027
B1330153657018N00442863WA0095601029
B1330163657020N00442858WA0095801031
B1330173657021N00442852WA0096201033
B1330183657021N00442846WA0096401037
B1330193657021N00442841WA0096701040
B1330203657021N00442836WA0096901043
B1330213657022N00442830WA0097001044
B1330223657023N00442824WA0097101046
B1330233657023N00442818WA0097301047
B1330243657020N00442812WA0097501049
B1330253657017N00442806WA0097701051
B1330263657013N00442800WA0097901053
B1330273657010N00442794WA0098201056
B1330283657004N00442783WA0098501060
B1330293657003N00442781WA0098501060
B1330303656997N00442776WA0098701062
B1330313656990N00442773WA0098801063
B1330323656983N00442772WA0099101065
B1330333656977N00442772WA0099401068
B1330343656971N00442773WA0099601071
B1330353656965N00442773WA0099801073
B1330363656960N00442775WA0100001075
B1330373656954N00442778WA0100201077
B1330383656948N00442781WA0100401079
B1330393656944N00442786WA0100601081
B1330403656939N00442791WA0100601083
B1330413656935N00442796WA0100801085
B1330423656931N00442801WA0101101087
B1330433656929N00442806WA0101401089
B1330443656927N00442812WA0101601092
B1330453656927N00442818WA0101701094
B1330463656927N00442824WA0102001096
B1330473656927N00442829WA0102301099
B1330483656927N00442834WA0102601102
B1330493656928N00442839WA0102801105
B1330503656929N00442843WA0103101108
B1330513656931N00442846WA0103301111
B1330523656933N00442847WA0103601114
B1330533656936N00442845WA0103801116
B1330543656939N00442840WA0104001118
B1330553656940N00442837WA0104001118
B1330563656939N00442829WA0104101120
B1330573656937N00442822WA0104401121
B1330583656932N00442815WA0104601124
B1330593656927N00442810WA0104901127
B1331003656921N00442806WA0105101130
B1331013656914N00442803WA0105301132
B1331023656907N00442801WA0105501134
B1331033656900N00442801WA0105701136
B1331043656893N00442804WA0105901138
B1331053656887N00442808WA0106201140
B1331063656882N00442813WA0106401143
B1331073656878N00442818WA0106701146
B1331083656874N00442822WA0106901149
B1331093656870N00442826WA0107201151
B1331103656867N00442831WA0107401153
B1331113656863N00442836WA0107501155
B1331123656861N00442841WA0107801157
B1331133656860N00442846WA0108001160
B1331143656860N00442851WA0108201163
B1331153656860N00442854WA0108501165
B1331163656860N00442858WA0108701168
B1331173656860N00442862WA0108701170
B1331183656861N00442865WA0108901171
B1331203656864N00442867WA0108901172
B1331213656866N00442867WA0108901172
B1331223656869N00442867WA0109001172
B1331233656872N00442867WA0109101172
B1331243656874N00442865WA0109201173
B1331253656875N00442862WA0109301174
B1331263656876N00442858WA0109401175
B1331273656877N00442853WA0109601176
B1331283656876N00442847WA0109801178
B1331293656874N00442841WA0110001180
B1331303656872N00442835WA0110101182
B1331313656869N00442828WA0110301184
B1331323656865N00442822WA0110501186
B1331333656861N00442816WA0110701188
B1331343656855N00442812WA0110801190
B1331353656848N00442809WA0110901190
B1331363656840N00442808WA0111001191
B1331373656833N00442810WA0111101192
B1331383656828N00442813WA0111201194
B1331393656823N00442818WA0111301195
B1331403656821N00442823WA0111401196
B1331413656819N00442827WA0111501197
B1331423656818N00442832WA0111601198
B1331433656818N00442837WA0111801200
B1331443656817N00442841WA0111901201
B1331453656817N00442849WA0112001203
B1331463656818N00442852WA0112101203
B1331473656819N00442857WA0112201204
B1331483656820N00442861WA0112301205
B1331493656822N00442865WA0112501207
B1331503656824N00442868WA0112601208
B1331513656826N00442872WA0112901210
B1331523656828N00442875WA0113201213
B1331533656829N00442877WA0113401216
B1331543656830N00442880WA0113601219
B1331553656832N00442883WA0113801221
B1331563656834N00442887WA0114101223
B1331573656836N00442891WA0114401226
B1331583656838N00442894WA0114801230
B1331593656839N00442896WA0115201234
B1332003656840N00442898WA0115601238
B1332013656842N00442899WA0115901242
B1332023656842N00442901WA0116101245
B1332033656844N00442902WA0116201247
B1332043656846N00442904WA0116401248
B1332053656848N00442906WA0116401249
B1332063656850N00442907WA0116501250
B1332073656851N00442908WA0116501252
B1332083656852N00442909WA0116501252
B1332093656854N00442909WA0116501252
B1332103656857N00442910WA0116501251
B1332113656860N00442912WA0116501252
B1332123656862N00442913WA0116501252
B1332133656864N00442913WA0116501253
B1332143656866N00442913WA0116501253
B1332153656867N00442912WA0116501253
B1332163656869N00442911WA0116501252
B1332173656870N00442910WA0116401251
B1332183656871N00442910WA0116301251
B1332193656873N00442909WA0116101249
B1332203656875N00442907WA0115901247
B1332213656877N00442905WA0115601245
B1332223656879N00442903WA0115501243
B1332233656880N00442902WA0115501242
B1332243656882N00442900WA0115401241
B1332253656883N00442898WA0115201240
B1332263656885N00442895WA0115201238
B1332273656886N00442891WA0115001236
B1332283656888N00442887WA0115001235
B1332293656889N00442882WA0115101235
B1332303656889N00442876WA0115201236
B1332313656889N00442871WA0115201237
B1332323656888N00442865WA0115301238
B1332333656887N00442858WA0115301239
B1332343656884N00442852WA0115401239
B1332353656880N00442845WA0115501240
B1332363656870N00442837WA0115801243
B1332373656868N00442836WA0115901243
B1332383656861N00442835WA0116001244
B1332393656853N00442835WA0116101246
B1332403656846N00442836WA0116301247
B1332413656839N00442838WA0116301248
B1332423656833N00442840WA0116201249
B1332433656826N00442843WA0116201248
B1332443656820N00442846WA0116101248
B1332453656814N00442850WA0116101247
B1332463656808N00442853WA0116101247
B1332473656803N00442858WA0116001247
B1332483656798N00442863WA0115801246
B1332493656793N00442869WA0115801244
B1332503656790N00442875WA0115701243
B1332513656789N00442881WA0115801243
B1332523656788N00442886WA0116101245
B1332533656788N00442889WA0116201247
B1332543656788N00442893WA0116401248
B1332553656787N00442896WA0116301250
B1332563656787N00442900WA0116301249
B1332573656787N00442902WA0116101249
B1332583656787N00442905WA0115901248
B1332593656788N00442908WA0115801246
B1333003656790N00442911WA0115701244
B1333013656791N00442914WA0115901244
B1333023656793N00442915WA0116401248
B1333033656793N00442915WA0116501248
B1333043656795N00442916WA0116701251
B1333053656796N00442917WA0117001254
B1333063656798N00442919WA0117201257
B1333073656801N00442920WA0117701259
B1333083656804N00442922WA0118101263
B1333093656806N00442924WA0118401268
B1333103656807N00442927WA0118601272
B1333113656807N00442931WA0118901275
B1333123656808N00442936WA0119201277
B1333133656809N00442941WA0119401279
B1333143656812N00442945WA0119801282
B1333153656816N00442947WA0120301287
B1333163656818N00442948WA0120801292
B1333173656820N00442949WA0121001296
B1333183656822N00442951WA0121401300
B1333193656825N00442953WA0121601303
B1333203656828N00442954WA0121901305
B1333213656831N00442955WA0122201308
B1333223656834N00442955WA0122501311
B1333233656837N00442956WA0122801314
B1333243656840N00442957WA0123001317
B1333253656843N00442959WA0123301320
B1333263656847N00442960WA0123801323
B1333283656853N00442960WA0124601331
B1333293656855N00442959WA0125001336
B1333303656857N00442958WA0125401340
B1333313656860N00442959WA0125801344
B1333323656862N00442962WA0126201348
B1333333656865N00442963WA0126601352
B1333343656868N00442964WA0126901356
B1333353656871N00442963WA0127201360
B1333363656874N00442962WA0127601363
B1333373656877N00442962WA0128001368
B1333383656879N00442962WA0128401371
B1333393656881N00442964WA0128501375
B1333403656883N00442965WA0128901378
B1333413656886N00442965WA0129101381
B1333423656888N00442965WA0129501384
B1333433656890N00442964WA0129901388
B1333443656892N00442965WA0130201392
B1333453656894N00442965WA0130501395
B1333463656895N00442965WA0130801398
B1333473656897N00442966WA0131001401
B1333483656899N00442966WA0131201403
B1333493656902N00442967WA0131601406
B1333503656904N00442968WA0131901409
B1333513656906N00442970WA0132101412
B1333523656908N00442970WA0132401415
B1333533656910N00442971WA0132701420
B1333543656911N00442971WA0132801420
B1333553656913N00442972WA0132801422
B1333563656915N00442972WA0132801423
B1333573656917N00442972WA0132901423
B1333583656919N00442972WA0133101424
B1333593656922N00442971WA0133201425
B1334003656924N00442968WA0133301426
B1334013656926N00442966WA0133401427
B1334023656928N00442963WA0133601429
B1334033656930N00442960WA0133701430
B1334043656932N00442956WA0133701431
B1334053656934N00442951WA0133801431
B1334063656935N00442945WA0133901432
B1334073656935N00442938WA0134101433
B1334083656934N00442931WA0134401435
B1334093656931N00442925WA0134701438
B1334103656928N00442919WA0134901441
B1334113656923N00442913WA0135101443
B1334123656919N00442907WA0135401445
B1334133656913N00442902WA0135601448
B1334143656907N00442897WA0135701450
B1334153656899N00442893WA0135901452
B1334163656891N00442891WA0136201454
B1334173656883N00442889WA0136501456
B1334183656875N00442889WA0136901460
B1334193656865N00442889WA0137501469
B1334203656860N00442891WA0137801469
B1334213656853N00442893WA0138301474
B1334223656846N00442895WA0138701478
B1334233656840N00442898WA0139101483
B1334243656834N00442901WA0139501487
B1334253656828N00442905WA0139801491
B1334263656823N00442909WA0140201495
B1334273656818N00442913WA0140601499
B1334283656814N00442918WA0141001504
B1334293656810N00442923WA0141301507
B1334303656807N00442929WA0141601510
B1334313656803N00442935WA0141901513
B1334323656800N00442940WA0142201517
B1334333656797N00442946WA0142501520
B1334343656794N00442951WA0142801523
B1334353656792N00442956WA0142901526
B1334363656790N00442961WA0142901527
B1334373656788N00442967WA0143001528
B1334383656787N00442971WA0143201528
B1334393656787N00442975WA0143401530
B1334403656788N00442978WA0143601533
B1334413656788N00442980WA0143701535
B1334423656789N00442982WA0143801536
B1334433656790N00442984WA0143801537
B1334443656792N00442987WA0143901538
B1334453656793N00442988WA0144001538
B1334463656795N00442989WA0144201539
B1334473656797N00442990WA0144401541
B1334483656799N00442990WA0144601544
B1334493656801N00442990WA0144801546
B1334503656804N00442989WA0144901547
B1334513656806N00442988WA0145001549
B1334523656807N00442986WA0145101550
B1334533656809N00442983WA0145101550
B1334543656811N00442981WA0145201551
B1334553656813N00442978WA0145201551
B1334563656815N00442975WA0145201551
B1334573656816N00442972WA0145201552
B1334583656817N00442968WA0145201552
B1334593656818N00442963WA0145101551
B1335003656819N00442957WA0145101550
B1335013656820N00442950WA0145101550
B1335023656820N00442944WA0145201550
B1335033656821N00442938WA0145301551
B1335043656821N00442933WA0145301552
B1335053656821N00442928WA0145301553
B1335063656820N00442922WA0145301553
B1335073656818N00442915WA0145201552
B1335083656816N00442907WA0145201551
B1335093656813N00442900WA0145301551
B1335103656806N00442891WA0145301552
B1335113656803N00442888WA0145301552
B1335123656797N00442884WA0145401553
B1335133656791N00442880WA0145401553
B1335143656784N00442876WA0145501553
B1335153656777N00442872WA0145501553
B1335163656770N00442869WA0145501554
B1335173656763N00442868WA0145501554
B1335183656755N00442868WA0145601554
B1335193656748N00442868WA0145701554
B1335203656740N00442868WA0145901555
B1335213656731N00442866WA0146101556
B1335223656724N00442864WA0146301559
B1335233656717N00442864WA0146501562
B1335243656711N00442866WA0146601565
B1335253656705N00442869WA0146701566
B1335263656700N00442872WA0146701566
B1335273656694N00442876WA0146701566
B1335283656688N00442880WA0146801566
B1335293656683N00442885WA0146901567
B1335303656678N00442891WA0147101568
B1335313656673N00442897WA0147401570
B1335323656671N00442903WA0147701573
B1335333656669N00442909WA0147901576
B1335343656669N00442914WA0148101579
B1335363656672N00442923WA0148601583
B1335373656674N00442926WA0148801586
B1335383656676N00442928WA0149001589
B1335393656676N00442929WA0149201592
B1335403656678N00442929WA0149201593
B1335413656680N00442930WA0149001593
B1335423656683N00442931WA0148801591
B1335433656685N00442930WA0148801589
B1335443656688N00442930WA0148901589
B1335453656690N00442929WA0149001590
B1335463656691N00442929WA0148901590
B1335473656693N00442929WA0148701589
B1335483656695N00442930WA0148601587
B1335493656698N00442931WA0148301585
B1335503656700N00442930WA0148201583
B1335513656702N00442929WA0148001581
B1335523656704N00442928WA0147701579
B1335533656707N00442928WA0147501577
B1335543656709N00442929WA0147301575
B1335553656712N00442928WA0146901572
B1335563656714N00442926WA0146601570
B1335573656717N00442923WA0146301566
B1335583656720N00442921WA0146101563
B1335593656723N00442920WA0146001560
B1336003656725N00442920WA0145701558
B1336013656729N00442918WA0145201553
B1336023656731N00442917WA0145001553
B1336033656734N00442914WA0144601549
B1336043656737N00442912WA0144201544
B1336053656741N00442910WA0143801540
B1336063656744N00442908WA0143701537
B1336073656747N00442905WA0143401534
B1336083656750N00442903WA0143201532
B1336093656753N00442899WA0142901529
B1336103656755N00442895WA0142601526
B1336113656758N00442891WA0142301524
B1336123656761N00442887WA0142001521
B1336133656764N00442882WA0141601517
B1336143656767N00442877WA0141501515
B1336153656769N00442872WA0141401512
B1336163656771N00442867WA0141101510
B1336173656773N00442862WA0140801508
B1336183656776N00442858WA0140501505
B1336193656779N00442853WA0140301502
B1336203656782N00442849WA0140101499
B1336213656785N00442845WA0140101498
B1336223656787N00442841WA0139901497
B1336233656789N00442836WA0139501495
B1336243656790N00442832WA0139201492
B1336253656793N00442828WA0138801488
B1336263656795N00442824WA0138301483
B1336273656799N00442817WA0137901476
B1336283656801N00442813WA0137701476
B1336293656803N00442808WA0137501473
B1336303656805N00442803WA0137301471
B1336313656807N00442797WA0137001468
B1336323656810N00442792WA0136801466
B1336333656813N00442787WA0136501463
B1336343656815N00442781WA0136201460
B1336353656817N00442775WA0136001458
B1336363656820N00442768WA0135701455
B1336373656822N00442762WA0135601453
B1336383656824N00442756WA0135401451
B1336393656827N00442750WA0135301449
B1336403656829N00442746WA0135301448
B1336413656831N00442741WA0135201447
B1336423656833N00442737WA0135101447
B1336433656836N00442733WA0134901445
B1336443656838N00442728WA0134801443
B1336453656840N00442723WA0134701442
B1336463656843N00442718WA0134501440
B1336473656845N00442712WA0134401439
B1336483656848N00442707WA0134301438
B1336493656850N00442702WA0134101437
B1336503656852N00442698WA0133901435
B1336513656855N00442694WA0133801433
B1336523656861N00442689WA0133701431
B1336533656862N00442688WA0133701431
B1336543656865N00442685WA0133701431
B1336553656868N00442682WA0133801431
B1336563656870N00442677WA0133801432
B1336573656872N00442673WA0133801432
B1336583656874N00442669WA0133701431
B1336593656877N00442667WA0133601430
B1337003656880N00442665WA0133501428
B1337013656882N00442663WA0133501428
B1337023656885N00442661WA0133601428
B1337033656886N00442658WA0133601429
B1337043656888N00442654WA0133601429
B1337053656890N00442652WA0133601429
B1337063656893N00442651WA0133601428
B1337073656895N00442651WA0133701428
B1337083656898N00442651WA0133801429
B1337093656900N00442649WA0134001432
B1337103656902N00442647WA0134201434
B1337113656904N00442644WA0134301435
B1337123656906N00442641WA0134401437
B1337133656908N00442640WA0134501438
B1337143656909N00442639WA0134601439
B1337153656911N00442637WA0134801441
B1337163656912N00442636WA0134901442
B1337173656914N00442633WA0134901443
B1337183656917N00442630WA0135001444
B1337193656919N00442630WA0135001444
B1337203656921N00442629WA0135201444
B1337213656923N00442628WA0135301446
B1337223656925N00442627WA0135501448
B1337233656927N00442625WA0135601449
B1337243656929N00442623WA0135601451
B1337253656931N00442621WA0135701452
B1337263656933N00442619WA0135901453
B1337273656935N00442617WA0136001454
B1337283656938N00442615WA0136201455
B1337293656940N00442613WA0136401457
B1337303656942N00442610WA0136601459
B1337313656944N00442607WA0136801461
B1337323656947N00442605WA0136901463
B1337333656949N00442603WA0137101464
B1337343656951N00442600WA0137101466
B1337353656954N00442597WA0137201467
B1337363656956N00442593WA0137301467
B1337373656959N00442586WA0137501468
B1337383656961N00442579WA0137701470
B1337393656963N00442571WA0138001473
B1337403656963N00442563WA0138201476
B1337413656961N00442553WA0138501479
B1337423656957N00442542WA0138801481
B1337443656944N00442526WA0139401487
B1337453656936N00442523WA0139601490
B1337463656928N00442521WA0139901492
B1337473656919N00442520WA0140401495
B1337483656911N00442519WA0140801499
B1337493656903N00442518WA0141301504
B1337503656896N00442517WA0141601509
B1337513656889N00442516WA0141901513
B1337523656883N00442517WA0142301517
B1337533656878N00442518WA0142601520
B1337543656873N00442520WA0142801523
B1337553656868N00442522WA0143001526
B1337563656864N00442524WA0143301528
B1337573656861N00442526WA0143501530
B1337583656858N00442529WA0143701532
B1337593656855N00442531WA0143801534
B1338003656854N00442533WA0144001536
B1338013656853N00442533WA0144101538
B1338023656853N00442533WA0144201540
B1338033656854N00442533WA0144201540
B1338043656854N00442534WA0144201541
B1338053656855N00442535WA0144201541
B1338063656856N00442535WA0144201541
B1338073656859N00442534WA0144201541
B1338083656861N00442533WA0144301541
B1338093656866N00442530WA0144401542
B1338103656866N00442530WA0144401542
B1338113656869N00442528WA0144501543
B1338123656871N00442526WA0144601544
B1338133656874N00442524WA0144701545
B1338143656877N00442521WA0144701546
B1338153656880N00442519WA0144901546
B1338163656883N00442517WA0145001547
B1338173656885N00442515WA0145201548
B1338183656888N00442513WA0145501551
B1338193656890N00442510WA0145801553
B1338203656892N00442507WA0146001556
B1338213656895N00442505WA0146101559
B1338223656897N00442503WA0146301560
B1338233656900N00442501WA0146601562
B1338243656903N00442498WA0146901566
B1338253656905N00442494WA0147301569
B1338263656907N00442491WA0147701573
B1338273656910N00442488WA0148001576
B1338283656912N00442486WA0148201580
B1338293656915N00442484WA0148501582
B1338303656918N00442482WA0148601585
B1338313656921N00442480WA0148901587
B1338323656924N00442478WA0149201590
B1338333656927N00442475WA0149501593
B1338343656931N00442473WA0149801595
B1338353656935N00442471WA0150201601
B1338363656937N00442469WA0150401601
B1338373656940N00442467WA0150801605
B1338383656943N00442465WA0151001609
B1338393656946N00442462WA0151201611
B1338403656948N00442460WA0151401614
B1338413656951N00442459WA0151501616
B1338423656955N00442457WA0151701618
B1338433656959N00442455WA0151901619
B1338443656963N00442452WA0152201621
B1338453656966N00442448WA0152401624
B1338463656970N00442444WA0152701626
B1338473656972N00442440WA0152901629
B1338483656975N00442436WA0153001631
B1338493656977N00442432WA0153101633
B1338503656980N00442428WA0153001633
B1338513656983N00442425WA0153001633
B1338523656986N00442422WA0152901632
B1338533656990N00442418WA0152801631
B1338543656993N00442414WA0152801630
B1338553656996N00442410WA0152701630
B1338563656998N00442406WA0152601630
B1338573657001N00442401WA0152401628
B1338583657005N00442397WA0152301627
B1338593657008N00442393WA0152201625
B1339003657013N00442385WA0152101623
B1339013657014N00442384WA0152101623
B1339023657016N00442379WA0152001623
B1339033657018N00442374WA0151801622
B1339043657021N00442370WA0151601621
B1339053657024N00442366WA0151501619
B1339063657026N00442362WA0151401617
B1339073657029N00442357WA0151401616
B1339083657032N00442353WA0151301615
B1339093657034N00442348WA0151201615
B1339103657037N00442343WA0151201614
B1339113657039N00442338WA0151101613
B1339123657042N00442334WA0151001612
B1339133657045N00442330WA0150801611
B1339143657048N00442327WA0150701609
B1339153657051N00442323WA0150501608
B1339163657054N00442319WA0150401606
B1339173657057N00442313WA0150201605
B1339183657060N00442308WA0150101603
B1339193657063N00442302WA0150001602
B1339203657065N00442298WA0149801601
B1339213657068N00442293WA0149601599
B1339223657071N00442288WA0149501598
B1339233657075N00442284WA0149401596
B1339243657078N00442279WA0149301595
B1339253657081N00442275WA0149301594
B1339263657086N00442269WA0149301592
B1339273657088N00442267WA0149201592
B1339283657092N00442263WA0149101592
B1339293657095N00442259WA0149201592
B1339303657098N00442254WA0149301593
B1339313657100N00442248WA0149301593
B1339323657102N00442242WA0149401594
B1339333657105N00442238WA0149401594
B1339343657108N00442235WA0149401594
B1339353657111N00442232WA0149401594
B1339363657114N00442229WA0149301595
B1339373657117N00442225WA0149301594
B1339383657120N00442221WA0149201593
B1339393657124N00442216WA0149201593
B1339403657127N00442212WA0149301593
B1339413657129N00442208WA0149401594
B1339423657132N00442204WA0149401595
B1339433657134N00442200WA0149301595
B1339443657136N00442197WA0149201594
B1339453657139N00442194WA0149201593
B1339463657141N00442192WA0149201593
B1339473657143N00442190WA0149201593
B1339483657145N00442189WA0149201593
B1339493657146N00442187WA0149201593
B1339503657148N00442184WA0149201592
B1339523657152N00442180WA0149201591
B1339533657154N00442179WA0149401592
B1339543657156N00442177WA0149501593
B1339553657157N00442175WA0149701595
B1339563657158N00442171WA0149601596
B1339573657159N00442166WA0149601596
B1339583657158N00442158WA0149601595
B1339593657156N00442150WA0149701595
B1340003657153N00442142WA0149801596
B1340013657147N00442136WA0150001598
B1340023657140N00442131WA0150001599
B1340033657131N00442129WA0150101600
B1340043657122N00442128WA0150301601
B1340053657115N00442128WA0150501602
B1340063657108N00442129WA0150601604
B1340073657102N00442132WA0150501605
B1340083657097N00442134WA0150401605
B1340093657093N00442138WA0150201604
B1340103657088N00442142WA0150001602
B1340113657084N00442147WA0149901600
B1340123657082N00442153WA0149801599
B1340133657080N00442158WA0149801598
B1340143657079N00442162WA0149901598
B1340153657079N00442166WA0149901599
B1340163657078N00442169WA0149901599
B1340173657078N00442175WA0149801598
B1340183657079N00442176WA0149801598
B1340193657079N00442179WA0149701598
B1340203657079N00442183WA0149801598
B1340213657080N00442186WA0149801598
B1340223657081N00442189WA0149801598
B1340233657083N00442191WA0149701598
B1340243657085N00442193WA0149801598
B1340253657088N00442195WA0149901598
B1340263657091N00442196WA0150001598
B1340273657093N00442198WA0150001600
B1340283657096N00442198WA0150001600
B1340293657099N00442198WA0150001601
B1340303657102N00442197WA0149901601
B1340313657105N00442195WA0150001601
B1340323657108N00442192WA0150001601
B1340333657111N00442190WA0150101601
B1340343657114N00442188WA0150101601
B1340353657117N00442185WA0150201602
B1340363657119N00442181WA0150401603
B1340373657122N00442177WA0150501604
B1340383657124N00442174WA0150601606
B1340393657126N00442171WA0150601607
B1340403657128N00442168WA0150601607
B1340413657130N00442165WA0150601607
B1340423657133N00442162WA0150501607
B1340433657136N00442159WA0150501606
B1340443657138N00442156WA0150401606
B1340453657140N00442152WA0150301605
B1340463657142N00442148WA0150201604
B1340473657145N00442143WA0150101603
B1340483657147N00442139WA0150001602
B1340493657149N00442134WA0150001601
B1340503657152N00442128WA0149901601
B1340513657153N00442123WA0149901601
B1340523657155N00442118WA0149901600
B1340533657158N00442113WA0149801600
B1340543657160N00442107WA0149801599
B1340553657162N00442102WA0149801599
B1340563657164N00442097WA0149801599
B1340573657165N00442092WA0149701599
B1340583657167N00442085WA0149701598
B1340593657169N00442079WA0149701598
B1341003657170N00442073WA0149701598
B1341013657172N00442069WA0149801598
B1341023657174N00442064WA0149701598
B1341033657175N00442059WA0149701598
B1341043657177N00442054WA0149601598
B1341053657178N00442050WA0149601597
B1341063657180N00442046WA0149501596
B1341073657182N00442044WA0149301595
B1341083657186N00442043WA0149201593
B1341093657186N00442044WA0149101593
B1341103657187N00442046WA0149001592
B1341113657188N00442049WA0148901591
B1341123657189N00442053WA0148901590
B1341133657190N00442057WA0148801590
B1341143657191N00442061WA0148701589
B1341153657192N00442064WA0148701588
B1341163657193N00442068WA0148701588
B1341173657195N00442072WA0148601588
B1341183657196N00442075WA0148701588
B1341193657197N00442078WA0148701588
B1341203657198N00442081WA0148701588
B1341213657199N00442084WA0148601588
B1341223657201N00442087WA0148601587
B1341233657202N00442090WA0148501586
B1341243657203N00442094WA0148501586
B1341253657205N00442097WA0148401585
B1341263657206N00442100WA0148401585
B1341273657207N00442103WA0148301584
B1341283657207N00442106WA0148201583
B1341293657208N00442110WA0148001582
B1341303657209N00442113WA0148001581
B1341313657211N00442116WA0147901580
B1341323657212N00442119WA0147701579
B1341333657214N00442121WA0147601578
B1341343657216N00442125WA0147301575
B1341353657217N00442127WA0147201575
B1341363657219N00442129WA0147001573
B1341373657221N00442132WA0146801571
B1341383657223N00442135WA0146601569
B1341393657224N00442139WA0146501567
B1341403657225N00442143WA0146401566
B1341413657226N00442147WA0146201565
B1341423657226N00442151WA0146101563
B1341433657227N00442155WA0145901562
B1341443657228N00442159WA0145701559
B1341453657229N00442163WA0145501557
B1341463657230N00442167WA0145301555
B1341473657231N00442171WA0145101553
B1341483657232N00442174WA0144801551
B1341493657234N00442178WA0144601548
B1341503657235N00442180WA0144301545
B1341513657238N00442181WA0144001543
B1341523657240N00442182WA0143801540
B1341533657243N00442181WA0143601538
B1341543657246N00442181WA0143301535
B1341553657250N00442179WA0143101532
B1341563657253N00442177WA0142901529
B1341573657256N00442174WA0142601527
B1341583657259N00442170WA0142401525
B1342003657266N00442163WA0141901519
B1342013657269N00442162WA0141601517
B1342023657271N00442163WA0141401514
B1342033657272N00442165WA0141001511
B1342043657273N00442170WA0140601507
B1342053657273N00442175WA0140301504
B1342063657274N00442179WA0140201502
B1342073657275N00442183WA0140001500
B1342083657275N00442186WA0139701497
B1342093657276N00442190WA0139401495
B1342103657276N00442195WA0139101491
B1342113657277N00442200WA0138801488
B1342123657278N00442204WA0138401486
B1342133657279N00442208WA0138001482
B1342143657282N00442213WA0137601478
B1342153657284N00442218WA0137301473
B1342163657286N00442223WA0137001469
B1342173657289N00442228WA0136901466
B1342183657290N00442233WA0136601464
B1342193657292N00442237WA0136501463
B1342203657294N00442241WA0136201460
B1342213657295N00442246WA0135801458
B1342223657296N00442251WA0135501454
B1342233657296N00442257WA0135201451
B1342243657298N00442263WA0134901447
B1342253657301N00442271WA0134401442
B1342263657301N00442272WA0134401442
B1342273657304N00442276WA0134101440
B1342283657306N00442280WA0133901437
B1342293657308N00442285WA0133801435
B1342303657310N00442288WA0133701433
B1342313657311N00442292WA0133601432
B1342323657313N00442296WA0133301430
B1342333657314N00442300WA0133001428
B1342343657315N00442304WA0132701424
B1342353657316N00442309WA0132401421
B1342363657316N00442315WA0132201418
B1342373657316N00442320WA0132001416
B1342383657315N00442326WA0131701413
B1342393657315N00442331WA0131301410
B1342403657314N00442338WA0130901407
B1342413657314N00442344WA0130501403
B1342423657314N00442352WA0130301399
B1342433657313N00442359WA0130201396
B1342443657312N00442365WA0130001394
B1342453657310N00442371WA0129901392
B1342463657309N00442377WA0129701391
B1342473657309N00442383WA0129401388
B1342483657309N00442389WA0129101386
B1342493657308N00442396WA0128901383
B1342503657306N00442403WA0128801380
B1342513657305N00442410WA0128601377
B1342523657304N00442414WA0128601377
B1342533657302N00442419WA0128501376
B1342543657301N00442424WA0128401375
B1342553657299N00442429WA0128201374
B1342563657298N00442432WA0128001372
B1342573657297N00442436WA0127701370
B1342583657295N00442440WA0127401367
B1342593657293N00442445WA0127101364
B1343003657292N00442450WA0127101361
B1343013657290N00442455WA0127301360
B1343023657289N00442459WA0127501361
B1343033657288N00442461WA0127801365
B1343043657287N00442462WA0127901367
B1343053657287N00442465WA0127901368
B1343063657287N00442469WA0128001368
B1343073657287N00442474WA0128101369
B1343083657285N00442478WA0128301370
B1343093657283N00442483WA0128501373
B1343103657282N00442487WA0128501375
B1343113657280N00442491WA0128601376
B1343123657279N00442495WA0128701377
B1343133657278N00442499WA0128701378
B1343143657277N00442504WA0128701378
B1343153657276N00442508WA0128801379
B1343163657275N00442516WA0129001380
B1343173657275N00442517WA0129001380
B1343183657276N00442520WA0129101381
B1343193657279N00442522WA0129401383
B1343203657281N00442522WA0129501384
B1343213657283N00442522WA0129601386
B1343223657286N00442521WA0129701387
B1343233657289N00442519WA0129801388
B1343243657293N00442516WA0129901389
B1343253657296N00442511WA0130001389
B1343263657298N00442504WA0130101391
B1343273657299N00442497WA0130201392
B1343283657298N00442489WA0130201392
B1343293657297N00442482WA0130201393
B1343303657296N00442474WA0130201393
B1343313657293N00442466WA0130201393
B1343323657288N00442458WA0130201393
B1343333657282N00442452WA0130101392
B1343343657274N00442448WA0130201391
B1343353657266N00442446WA0130301392
B1343363657259N00442446WA0130501393
B1343373657253N00442448WA0130601395
B1343383657248N00442450WA0130701396
B1343393657243N00442453WA0130701397
B1343403657240N00442456WA0130801398
B1343413657236N00442460WA0130801398
B1343423657233N00442466WA0130901400
B1343433657232N00442469WA0131001400
B1343443657231N00442472WA0131101400
B1343453657229N00442477WA0131401402
B1343463657228N00442481WA0131601404
B1343473657228N00442486WA0131801406
B1343483657228N00442491WA0132001408
B1343493657227N00442495WA0132301411
B1343503657227N00442499WA0132601415
B1343513657227N00442502WA0132801418
B1343523657228N00442505WA0132901420
B1343533657229N00442507WA0133001422
B1343543657230N00442510WA0133001423
B1343553657233N00442511WA0133101423
B1343563657236N00442511WA0133201423
B1343573657241N00442509WA0133201424
B1343583657244N00442505WA0133301424
B1343593657247N00442499WA0133401425
B1344003657249N00442493WA0133401425
B1344013657250N00442486WA0133601426
B1344023657250N00442481WA0133601428
B1344033657250N00442477WA0133601429
B1344043657250N00442472WA0133501429
B1344053657251N00442468WA0133301427
B1344063657254N00442464WA0133101426
B1344083657261N00442463WA0133101423
B1344093657263N00442464WA0133201424
B1344103657265N00442463WA0133201425
B1344113657268N00442462WA0133101425
B1344123657271N00442461WA0132901424
B1344133657274N00442461WA0132601422
B1344143657277N00442461WA0132401419
B1344153657280N00442463WA0132301417
B1344163657282N00442464WA0132101415
B1344173657285N00442464WA0132001414
B1344183657287N00442465WA0131801412
B1344193657289N00442465WA0131701410
B1344203657291N00442464WA0131501409
B1344213657294N00442464WA0131301407
B1344223657297N00442462WA0131101405
B1344233657300N00442460WA0130801403
B1344243657303N00442457WA0130601400
B1344253657306N00442452WA0130401398
B1344263657308N00442447WA0130301396
B1344273657309N00442443WA0130301395
B1344283657311N00442439WA0130201394
B1344293657314N00442435WA0130101393
B1344303657317N00442433WA0129901391
B1344313657321N00442430WA0129901390
B1344323657324N00442428WA0129801389
B1344333657328N00442423WA0129701388
B1344343657328N00442423WA0129701388
B1344353657330N00442420WA0129501387
B1344363657333N00442419WA0129301385
B1344373657335N00442419WA0129101383
B1344383657338N00442418WA0128901381
B1344393657341N00442417WA0128601379
B1344403657343N00442415WA0128501377
B1344413657346N00442412WA0128501375
B1344423657349N00442410WA0128401374
B1344433657352N00442408WA0128301373
B1344443657355N00442406WA0128301372
B1344453657358N00442404WA0128301371
B1344463657360N00442402WA0128301371
B1344473657362N00442400WA0128301371
B1344483657363N00442399WA0128301371
B1344493657365N00442398WA0128201371
B1344503657366N00442399WA0128101370
B1344513657368N00442401WA0127901369
B1344523657370N00442403WA0127801367
B1344533657372N00442404WA0127801367
B1344543657374N00442405WA0127601366
B1344553657376N00442406WA0127501365
B1344563657379N00442407WA0127401364
B1344573657382N00442408WA0127301362
B1344583657385N00442408WA0127101361
B1344593657389N00442408WA0127001359
B1345003657391N00442408WA0126901359
B1345013657394N00442406WA0126801357
B1345023657397N00442403WA0126701356
B1345033657399N00442400WA0126601355
B1345043657401N00442397WA0126401354
B1345053657404N00442394WA0126101352
B1345063657407N00442391WA0125901349
B1345073657410N00442388WA0125701347
B1345083657413N00442385WA0125601345
B1345093657415N00442382WA0125401343
B1345103657417N00442378WA0125301341
B1345113657419N00442374WA0125001339
B1345123657421N00442370WA0124701337
B1345133657423N00442367WA0124601334
B1345143657425N00442366WA0124301332
B1345153657427N00442366WA0124101330
B1345163657429N00442367WA0123801328
B1345173657430N00442369WA0123601325
B1345183657432N00442373WA0123301322
B1345193657432N00442377WA0123101319
B1345203657432N00442382WA0123101317
B1345213657430N00442388WA0123201317
B1345223657427N00442393WA0123401318
B1345233657425N00442397WA0123501319
B1345243657422N00442404WA0123801323
B1345253657421N00442405WA0123801323
B1345263657418N00442409WA0124001324
B1345273657415N00442413WA0124201326
B1345283657411N00442417WA0124301328
B1345293657408N00442422WA0124401329
B1345303657407N00442427WA0124501331
B1345313657406N00442432WA0124601332
B1345323657408N00442436WA0124801333
B1345333657411N00442438WA0124901334
B1345343657415N00442437WA0125101336
B1345353657419N00442434WA0125301337
B1345363657422N00442430WA0125501339
B1345373657424N00442424WA0125801342
B1345383657425N00442418WA0126001345
B1345393657424N00442412WA0126101347
B1345403657423N00442405WA0126201349
B1345413657422N00442397WA0126201349
B1345423657420N00442389WA0126301349
B1345433657418N00442380WA0126501350
B1345443657413N00442373WA0126601352
B1345453657406N00442367WA0126701353
B1345463657397N00442363WA0126801354
B1345473657389N00442361WA0126901355
B1345483657381N00442361WA0127001357
B1345493657374N00442364WA0127201358
B1345503657365N00442369WA0127301360
B1345513657363N00442371WA0127401360
B1345523657358N00442375WA0127601362
B1345533657355N00442379WA0127801364
B1345543657351N00442383WA0128001366
B1345553657348N00442387WA0128201368
B1345563657345N00442391WA0128401370
B1345573657343N00442396WA0128501371
B1345583657342N00442400WA0128801373
B1345593657342N00442403WA0128901376
B1346003657343N00442406WA0129101378
B1346013657344N00442409WA0129301380
B1346023657346N00442411WA0129601382
B1346033657347N00442413WA0129901384
B1346043657349N00442413WA0130101387
B1346053657351N00442412WA0130301390
B1346063657354N00442412WA0130501392
B1346073657356N00442414WA0130701394
B1346083657359N00442416WA0131101397
B1346093657360N00442418WA0131401400
B1346103657362N00442419WA0131801404
B1346113657365N00442419WA0132001408
B1346123657368N00442419WA0132301410
B1346133657371N00442420WA0132601413
B1346143657373N00442422WA0132901416
B1346163657379N00442423WA0133501422
B1346173657382N00442423WA0133801425
B1346183657385N00442422WA0134101428
B1346193657388N00442421WA0134501432
B1346203657390N00442420WA0134901437
B1346213657392N00442418WA0135201441
B1346223657394N00442415WA0135501444
B1346233657396N00442412WA0135601447
B1346243657398N00442409WA0135801449
B1346253657400N00442406WA0136001451
B1346263657402N00442403WA0136101453
B1346273657404N00442401WA0136301454
B1346283657406N00442398WA0136401455
B1346293657409N00442397WA0136701457
B1346303657412N00442396WA0137101459
B1346313657415N00442395WA0137401462
B1346323657417N00442394WA0137601466
B1346333657419N00442392WA0137701468
B1346343657422N00442388WA0137901470
B1346353657424N00442383WA0138101471
B1346363657425N00442377WA0138301472
B1346373657424N00442370WA0138601475
B1346383657421N00442364WA0138801478
B1346393657416N00442358WA0139001480
B1346403657409N00442354WA0139201482
B1346413657396N00442350WA0139701488
B1346423657395N00442351WA0139801488
B1346433657388N00442353WA0140001491
B1346443657382N00442356WA0140301494
B1346453657377N00442360WA0140701497
B1346463657373N00442364WA0141001500
B1346473657369N00442368WA0141401504
B1346483657365N00442372WA0141601508
B1346493657361N00442376WA0141901511
B1346503657358N00442381WA0142201514
B1346513657356N00442386WA0142401516
B1346523657353N00442391WA0142701519
B1346533657352N00442396WA0143101522
B1346543657351N00442400WA0143401525
B1346553657351N00442404WA0143701528
B1346563657351N00442408WA0144001532
B1346573657351N00442411WA0144401536
B1346583657351N00442414WA0144801540
B1346593657352N00442417WA0145201544
B1347003657353N00442419WA0145601549
B1347013657354N00442420WA0146001553
B1347023657356N00442420WA0146301557
B1347033657358N00442420WA0146701561
B1347043657360N00442419WA0147201565
B1347053657362N00442419WA0147401569
B1347063657364N00442418WA0147601572
B1347073657366N00442415WA0147901576
B1347083657367N00442412WA0148001576
B1347093657368N00442406WA0148201578
B1347103657367N00442399WA0148501580
B1347113657364N00442392WA0148601582
B1347123657358N00442386WA0148901584
B1347133657351N00442382WA0149201587
B1347143657344N00442381WA0149501590
B1347153657336N00442381WA0149801593
B1347163657330N00442382WA0150101596
B1347173657324N00442384WA0150301599
B1347183657317N00442387WA0150601602
B1347193657311N00442390WA0150901604
B1347203657305N00442394WA0151201607
B1347213657300N00442398WA0151401611
B1347223657297N00442402WA0151801614
B1347233657294N00442407WA0152101618
B1347243657293N00442412WA0152401621
B1347253657293N00442416WA0152801624
B1347263657293N00442420WA0153301628
B1347273657293N00442423WA0153701633
B1347283657293N00442426WA0154001637
B1347293657294N00442429WA0154301641
B1347303657296N00442432WA0154501644
B1347313657298N00442435WA0154901647
B1347323657302N00442440WA0155401654
B1347333657302N00442440WA0155501654
B1347343657304N00442442WA0155801657
B1347353657305N00442444WA0155901660
B1347363657306N00442446WA0156101662
B1347373657308N00442448WA0156201663
B1347383657310N00442450WA0156301664
B1347393657313N00442451WA0156301665
B1347403657316N00442450WA0156401666
B1347413657319N00442449WA0156501666
B1347423657322N00442446WA0156601667
B1347433657326N00442443WA0156501668
B1347443657329N00442440WA0156701668
B1347453657333N00442437WA0156801669
B1347463657337N00442434WA0156901670
B1347473657340N00442432WA0157101671
B1347483657344N00442429WA0157201673
B1347493657348N00442425WA0157301675
B1347503657351N00442422WA0157501676
B1347513657354N00442418WA0157701678
B1347523657357N00442415WA0157901680
B1347533657360N00442411WA0158001681
B1347543657364N00442408WA0158201683
B1347553657366N00442404WA0158401685
B1347563657368N00442398WA0158601687
B1347573657368N00442390WA0158701688
B1347583657366N00442376WA0159001691
B1347593657365N00442371WA0159301691
B1348003657360N00442364WA0159701695
B1348013657354N00442358WA0160001700
B1348023657348N00442355WA0160401704
B1348033657341N00442353WA0160701707
B1348043657334N00442352WA0161101711
B1348053657327N00442351WA0161301715
B1348063657321N00442351WA0161601718
B1348073657314N00442352WA0161901721
B1348083657308N00442354WA0162101724
B1348093657302N00442358WA0162301726
B1348103657298N00442363WA0162701728
B1348113657296N00442367WA0162901731
B1348123657295N00442371WA0163101734
B1348133657296N00442374WA0163301736
B1348143657297N00442376WA0163501739
B1348153657298N00442378WA0163701741
B1348163657300N00442379WA0163901743
B1348173657303N00442380WA0164001745
B1348183657306N00442379WA0164101746
B1348193657310N00442378WA0164401747
B1348203657313N00442376WA0164501749
B1348213657316N00442374WA0164701751
B1348223657320N00442372WA0164801752
B1348243657327N00442366WA0165101756
B1348253657331N00442362WA0165301757
B1348263657335N00442359WA0165401758
B1348273657339N00442356WA0165501760
B1348283657343N00442353WA0165701762
B1348293657347N00442349WA0165901763
B1348303657351N00442345WA0166001765
B1348313657355N00442341WA0166201766
B1348323657360N00442337WA0166301767
B1348333657364N00442334WA0166501769
B1348343657368N00442331WA0166701772
B1348353657371N00442327WA0166801774
B1348363657375N00442322WA0166901775
B1348373657378N00442316WA0166901776
B1348383657382N00442310WA0166901776
B1348393657385N00442304WA0167001776
B1348403657388N00442297WA0167101777
B1348413657391N00442291WA0167201778
B1348423657394N00442284WA0167201779
B1348433657397N00442277WA0167301780
B1348443657400N00442271WA0167301780
B1348453657403N00442264WA0167301780
B1348463657406N00442258WA0167301781
B1348473657409N00442252WA0167401782
B1348483657412N00442246WA0167401782
B1348493657417N00442235WA0167501782
B1348503657417N00442234WA0167401782
B1348513657421N00442227WA0167401782
B1348523657424N00442220WA0167501782
B1348533657428N00442214WA0167701784
B1348543657432N00442208WA0167901785
B1348553657435N00442203WA0168101787
B1348563657439N00442197WA0168401789
B1348573657443N00442192WA0168601791
B1348583657447N00442186WA0169001794
B1348593657450N00442181WA0169301798
B1349003657452N00442175WA0169501801
B1349013657454N00442169WA0169701804
B1349023657457N00442162WA0169801806
B1349033657460N00442155WA0169901808
B1349043657463N00442149WA0170101809
B1349053657467N00442144WA0170401811
B1349063657469N00442140WA0170701814
B1349073657471N00442136WA0170901817
B1349083657472N00442132WA0170901819
B1349093657475N00442127WA0171001819
B1349103657479N00442122WA0171101819
B1349113657484N00442117WA0171201819
B1349123657489N00442113WA0171701822
B1349133657492N00442108WA0172201827
B1349143657493N00442104WA0172501831
B1349153657494N00442099WA0172801838
B1349163657496N00442096WA0172901838
B1349173657499N00442092WA0172701839
B1349183657502N00442088WA0172701838
B1349193657506N00442082WA0172501837
B1349203657508N00442076WA0172401836
B1349213657511N00442069WA0172301835
B1349223657513N00442063WA0172101834
B1349233657516N00442057WA0171901832
B1349243657519N00442050WA0171801830
B1349253657523N00442045WA0171801829
B1349263657526N00442039WA0172001829
B1349273657529N00442034WA0172101830
B1349283657531N00442030WA0172201832
B1349293657534N00442025WA0172201833
B1349303657537N00442019WA0172101833
B1349313657540N00442013WA0172201832
B1349323657544N00442006WA0172101832
B1349333657547N00442000WA0172101831
B1349343657550N00441994WA0172201831
B1349353657554N00441989WA0172101831
B1349363657557N00441983WA0172001831
B1349373657560N00441978WA0171901830
B1349383657564N00441971WA0171701829
B1349393657569N00441964WA0171901827
B1349403657576N00441952WA0172001829
B1349413657577N00441950WA0172101829
B1349423657578N00441944WA0172001830
B1349433657580N00441939WA0171801830
B1349443657582N00441933WA0171301827
B1349453657586N00441928WA0170901823
B1349463657590N00441923WA0170501818
B1349473657594N00441919WA0170301814
B1349483657596N00441915WA0170101813
B1349493657599N00441911WA0169801811
B1349503657603N00441907WA0169601808
B1349513657607N00441902WA0169501806
B1349523657610N00441897WA0169401804
B1349533657614N00441892WA0169301803
B1349543657617N00441886WA0169101801
B1349553657621N00441881WA0169001800
B1349563657624N00441876WA0168801798
B1349573657628N00441871WA0168601796
B1349583657631N00441865WA0168401794
B1349593657634N00441860WA0168301793
B1350003657636N00441854WA0168201791
B1350013657639N00441850WA0168001790
B1350023657642N00441846WA0167801789
B1350033657644N00441841WA0167601787
B1350043657647N00441837WA0167301784
B1350053657650N00441832WA0167101782
B1350063657655N00441824WA0166501776
B1350073657657N00441821WA0166401776
B1350083657660N00441816WA0166101772
B1350093657664N00441810WA0166001770
B1350103657667N00441805WA0165801768
B1350113657670N00441800WA0165801767
B1350123657672N00441795WA0165601766
B1350133657675N00441790WA0165301764
B1350143657678N00441785WA0165001761
B1350153657682N00441780WA0164801759
B1350163657685N00441774WA0164701757
B1350173657688N00441768WA0164701756
B1350183657690N00441764WA0164601755
B1350193657693N00441761WA0164601754
B1350203657695N00441758WA0164401753
B1350213657697N00441755WA0164101751
B1350223657698N00441751WA0163701747
B1350233657700N00441746WA0163501744
B1350243657703N00441741WA0163401740
B1350253657706N00441736WA0163501739
B1350263657708N00441733WA0163601740
B1350273657709N00441731WA0163501741
B1350283657710N00441728WA0163301740
B1350293657712N00441724WA0163201738
B1350303657715N00441720WA0163101736
B1350323657720N00441709WA0163301736
B1350333657720N00441704WA0163401738
B1350343657721N00441698WA0163501739
B1350353657722N00441692WA0163501740
B1350363657724N00441686WA0163601740
B1350373657726N00441681WA0163701741
B1350383657728N00441675WA0163901742
B1350393657729N00441668WA0164101745
B1350403657730N00441662WA0164401747
B1350413657730N00441655WA0164701749
B1350423657731N00441649WA0165101753
B1350433657732N00441645WA0165501756
B1350443657733N00441641WA0165801760
B1350453657735N00441638WA0166201765
B1350463657736N00441634WA0166501768
B1350473657737N00441628WA0166701770
B1350483657737N00441621WA0167101773
B1350493657738N00441614WA0167601778
B1350503657739N00441608WA0167901782
B1350513657740N00441602WA0168301786
B1350523657742N00441596WA0168501790
B1350533657743N00441590WA0168701792
B1350543657745N00441584WA0168801794
B1350553657747N00441579WA0169001796
B1350563657750N00441574WA0169201797
B1350573657753N00441564WA0169501801
B1350583657754N00441562WA0169501801
B1350593657755N00441555WA0169501803
B1351003657757N00441548WA0169601804
B1351013657760N00441542WA0169701805
B1351023657763N00441537WA0169701805
B1351033657766N00441531WA0169801806
B1351043657769N00441525WA0169901807
B1351053657772N00441518WA0170101808
B1351063657773N00441511WA0170201810
B1351073657775N00441505WA0170301811
B1351083657776N00441500WA0170401812
B1351093657778N00441495WA0170401812
B1351103657780N00441491WA0170301812
B1351113657783N00441486WA0170201811
B1351123657786N00441481WA0170201811
B1351133657788N00441476WA0170201811
B1351143657789N00441472WA0170101811
B1351153657790N00441467WA0169901810
B1351163657791N00441463WA0169701809
B1351173657792N00441459WA0169401806
B1351183657795N00441454WA0169301803
B1351193657797N00441449WA0169201800
B1351203657798N00441444WA0169301799
B1351213657799N00441439WA0169401800
B1351223657799N00441435WA0169501801
B1351233657799N00441429WA0169501803
B1351243657799N00441425WA0169501803
B1351253657799N00441420WA0169401803
B1351263657801N00441414WA0169401802
B1351273657803N00441410WA0169401802
B1351283657805N00441405WA0169501802
B1351293657808N00441401WA0169501803
B1351303657810N00441397WA0169601804
B1351313657811N00441391WA0169901805
B1351323657812N00441385WA0170101807
B1351333657812N00441380WA0170301809
B1351343657813N00441376WA0170401811
B1351353657813N00441372WA0170401813
B1351363657814N00441367WA0170401813
B1351373657816N00441361WA0170501813
B1351383657817N00441355WA0170901814
B1351393657817N00441351WA0171201818
B1351403657817N00441348WA0171401821
B1351413657818N00441344WA0171601824
B1351423657818N00441340WA0171601825
B1351433657820N00441335WA0171701826
B1351443657821N00441330WA0172001827
B1351453657822N00441325WA0172201830
B1351463657824N00441321WA0172501832
B1351473657825N00441317WA0172701834
B1351483657828N00441309WA0173101839
B1351493657828N00441308WA0173201839
B1351503657830N00441303WA0173401841
B1351513657831N00441298WA0173501843
B1351523657833N00441293WA0173401844
B1351533657835N00441287WA0173401844
B1351543657837N00441282WA0173501844
B1351553657838N00441278WA0173501844
B1351563657839N00441274WA0173501845
B1351573657841N00441270WA0173301845
B1351583657843N00441266WA0173101843
B1351593657846N00441261WA0173001841
B1352003657848N00441256WA0172901840
B1352013657851N00441251WA0172801838
B1352023657853N00441245WA0172901838
B1352033657855N00441240WA0172801838
B1352043657857N00441234WA0172701837
B1352053657858N00441229WA0172501836
B1352063657860N00441222WA0172401835
B1352073657862N00441216WA0172301834
B1352083657864N00441210WA0172201833
B1352093657866N00441204WA0172101831
B1352103657868N00441198WA0172001831
B1352113657870N00441192WA0171901830
B1352123657872N00441186WA0171701829
B1352133657875N00441180WA0171401827
B1352143657880N00441169WA0171201823
B1352153657881N00441165WA0171201823
B1352163657884N00441159WA0171201822
B1352173657886N00441153WA0171101822
B1352183657888N00441146WA0171001822
B1352193657890N00441140WA0170801820
B1352203657892N00441133WA0170701819
B1352213657894N00441127WA0170501817
B1352223657896N00441121WA0170401815
B1352233657898N00441114WA0170201814
B1352243657900N00441107WA0170001812
B1352253657902N00441100WA0169801810
B1352263657904N00441093WA0169601808
B1352273657907N00441086WA0169401806
B1352283657909N00441080WA0169201803
B1352293657912N00441073WA0168901801
B1352303657915N00441066WA0168601798
B1352313657917N00441059WA0168401795
B1352323657919N00441053WA0168301793
B1352333657922N00441046WA0168001791
B1352343657924N00441040WA0167801789
B1352353657926N00441033WA0167501786
B1352363657929N00441027WA0167201783
B1352373657931N00441020WA0166901780
B1352383657932N00441012WA0166701777
B1352403657937N00440996WA0166201771
B1352413657940N00440988WA0166001769
B1352423657942N00440980WA0166001767
B1352433657944N00440972WA0166001767
B1352443657946N00440964WA0165901767
B1352453657947N00440956WA0165901766
B1352463657949N00440948WA0165801766
B1352473657951N00440941WA0165601765
B1352483657954N00440933WA0165501764
B1352493657955N00440925WA0165401762
B1352503657957N00440916WA0165301761
B1352513657958N00440908WA0165101760
B1352523657960N00440899WA0165001759
B1352533657962N00440891WA0165001757
B1352543657965N00440884WA0164801756
B1352553657967N00440877WA0164701754
B1352563657970N00440870WA0164601753
B1352573657971N00440862WA0164401751
B1352583657973N00440854WA0164201749
B1352593657975N00440846WA0163901747
B1353003657977N00440838WA0163801745
B1353013657979N00440830WA0163501743
B1353023657981N00440822WA0163301741
B1353033657984N00440814WA0163101739
B1353043657985N00440805WA0162901737
B1353053657988N00440790WA0162601733
B1353063657988N00440788WA0162501733
B1353073657990N00440780WA0162301731
B1353083657992N00440771WA0162101729
B1353093657993N00440763WA0161801726
B1353103657995N00440755WA0161501724
B1353113657996N00440746WA0161201721
B1353123657997N00440737WA0160901718
B1353133657999N00440728WA0160601714
B1353143658000N00440720WA0160401711
B1353153658002N00440711WA0160201709
B1353163658004N00440703WA0160001706
B1353173658005N00440695WA0159901704
B1353183658006N00440688WA0159701703
B1353193658006N00440681WA0159601701
B1353203658007N00440675WA0159401699
B1353213658008N00440668WA0159201697
B1353223658009N00440662WA0159001696
B1353233658010N00440656WA0158901694
B1353243658011N00440650WA0158701692
B1353253658012N00440644WA0158601691
B1353263658013N00440637WA0158401689
B1353273658014N00440632WA0158301688
B1353283658015N00440626WA0158201686
B1353293658016N00440620WA0158001685
B1353303658018N00440615WA0157901684
B1353313658019N00440609WA0157801681
B1353323658020N00440605WA0157701681
B1353333658022N00440600WA0157601680
B1353343658023N00440594WA0157501679
B1353353658024N00440589WA0157401678
B1353363658024N00440584WA0157301677
B1353373658025N00440579WA0157201676
B1353383658026N00440574WA0157201676
B1353393658027N00440569WA0157001674
B1353403658029N00440563WA0156801673
B1353413658030N00440557WA0156701671
B1353423658031N00440551WA0156701670
B1353433658032N00440546WA0156601670
B1353443658032N00440540WA0156401669
B1353453658033N00440535WA0156201667
B1353463658034N00440530WA0156001665
B1353473658036N00440526WA0155701662
B1353483658037N00440522WA0155501660
B1353493658038N00440516WA0155201657
B1353503658039N00440510WA0154901654
B1353513658041N00440504WA0154501651
B1353523658045N00440499WA0154101648
B1353533658048N00440494WA0153901644
B1353543658052N00440488WA0153601641
B1353553658055N00440481WA0153401638
B1353573658061N00440469WA0152701633
B1353583658066N00440463WA0152501630
B1353593658070N00440458WA0152101626
B1354003658073N00440452WA0152001624
B1354013658075N00440446WA0151801621
B1354023658075N00440440WA0151801620
B1354033658077N00440435WA0151501618
B1354043658081N00440431WA0151201616
B1354053658085N00440427WA0150901613
B1354063658089N00440423WA0150601610
B1354073658092N00440417WA0150501607
B1354083658095N00440411WA0150401605
B1354093658098N00440404WA0150201602
B1354103658102N00440398WA0150001601
B1354113658107N00440393WA0149901599
B1354123658110N00440388WA0149801598
B1354133658113N00440381WA0149701597
B1354143658114N00440374WA0149501596
B1354153658116N00440368WA0149501595
B1354163658119N00440363WA0149301595
B1354173658122N00440358WA0149101593
B1354183658125N00440353WA0148901592
B1354193658128N00440347WA0148701590
B1354203658130N00440339WA0148601588
B1354213658132N00440332WA0148601587
B1354223658137N00440324WA0148501585
B1354233658138N00440322WA0148401585
B1354243658142N00440318WA0148201583
B1354253658145N00440312WA0148101581
B1354263658148N00440306WA0147901579
B1354273658151N00440299WA0148001578
B1354283658153N00440292WA0148301579
B1354293658156N00440287WA0148401581
B1354303658158N00440283WA0148401583
B1354313658161N00440279WA0148301583
B1354323658163N00440275WA0148101582
B1354333658167N00440270WA0147901581
B1354343658171N00440266WA0147601578
B1354353658175N00440260WA0147401576
B1354363658179N00440255WA0147301574
B1354373658182N00440249WA0147301573
B1354383658184N00440244WA0147301573
B1354393658187N00440239WA0147301573
B1354403658189N00440233WA0147201572
B1354413658192N00440228WA0147101571
B1354423658195N00440222WA0147101571
B1354433658198N00440217WA0147101570
B1354443658201N00440212WA0147101570
B1354453658203N00440207WA0147001570
B1354463658205N00440202WA0146901570
B1354483658210N00440192WA0146401566
B1354493658213N00440186WA0146301564
B1354503658216N00440180WA0146201563
B1354513658218N00440174WA0146101562
B1354523658220N00440168WA0146101561
B1354533658222N00440161WA0146001559
B1354543658224N00440155WA0146001558
B1354553658226N00440149WA0145901558
B1354563658229N00440144WA0145901557
B1354573658232N00440139WA0145801557
B1354583658234N00440133WA0145601556
B1354593658236N00440126WA0145501555
B1355003658237N00440119WA0145401553
B1355013658239N00440112WA0145301552
B1355023658240N00440105WA0145101550
B1355033658242N00440098WA0145001549
B1355043658243N00440091WA0144901548
B1355053658243N00440084WA0144801547
B1355063658244N00440077WA0144601545
B1355073658244N00440071WA0144401544
B1355083658245N00440064WA0144301542
B1355093658246N00440056WA0144101540
B1355103658246N00440049WA0144001539
B1355113658247N00440042WA0143901538
B1355123658247N00440036WA0143801536
B1355133658249N00440024WA0143501534
B1355143658249N00440023WA0143501534
B1355153658249N00440016WA0143301532
B1355163658250N00440009WA0143001529
B1355173658250N00440002WA0142701527
B1355183658250N00439994WA0142601524
B1355193658250N00439987WA0142601523
B1355203658251N00439981WA0142501523
B1355213658250N00439976WA0142401522
B1355223658250N00439971WA0142101521
B1355233658250N00439965WA0141801518
B1355243658251N00439958WA0141601515
B1355253658252N00439951WA0141501512
B1355263658254N00439944WA0141501511
B1355273658255N00439938WA0141401511
B1355283658256N00439931WA0141301511
B1355293658257N00439924WA0141201510
B1355303658257N00439917WA0141001508
B1355313658257N00439909WA0140901507
B1355323658258N00439901WA0140901505
B1355333658258N00439894WA0141001506
B1355343658258N00439887WA0141101506
B1355353658258N00439881WA0141101507
B1355363658258N00439874WA0141101507
B1355373658258N00439867WA0141201506
B1355383658259N00439861WA0141501508
B1355393658259N00439854WA0141801513
B1355403658259N00439850WA0141801513
B1355413658258N00439845WA0141901515
B1355423658257N00439839WA0141901515
B1355433658257N00439834WA0141801515
B1355443658258N00439828WA0141901515
B1355453658259N00439823WA0142001515
B1355463658260N00439817WA0142001516
B1355473658261N00439811WA0142201517
B1355483658261N00439805WA0142401518
B1355493658261N00439798WA0142601520
B1355503658262N00439793WA0142801522
B1355513658263N00439787WA0143001524
B1355523658264N00439782WA0143201526
B1355533658266N00439778WA0143401528
B1355543658267N00439775WA0143501530
B1355553658268N00439772WA0143501531
B1355563658270N00439769WA0143401532
B1355573658271N00439765WA0143401531
B1355583658274N00439761WA0143401531
B1355593658276N00439757WA0143601531
B1356003658279N00439752WA0143701533
B1356013658280N00439747WA0143901535
B1356023658281N00439742WA0144201538
B1356033658283N00439738WA0144501540
B1356053658286N00439731WA0144801545
B1356063658288N00439727WA0144901546
B1356073658291N00439723WA0145001548
B1356083658294N00439720WA0145101548
B1356093658297N00439717WA0145201549
B1356103658299N00439713WA0145301551
B1356113658301N00439708WA0145501552
B1356123658302N00439703WA0145501553
B1356133658304N00439698WA0145601553
B1356143658305N00439693WA0145801554
B1356153658307N00439688WA0146001556
B1356163658309N00439684WA0146301559
B1356173658311N00439679WA0146501562
B1356183658311N00439674WA0146801565
B1356193658312N00439668WA0147101567
B1356203658314N00439661WA0147401570
B1356213658315N00439655WA0147901574
B1356223658317N00439650WA0148401578
B1356233658319N00439646WA0148701583
B1356243658321N00439641WA0149101588
B1356253658323N00439636WA0149401592
B1356263658326N00439631WA0149701595
B1356273658329N00439625WA0150001598
B1356283658332N00439620WA0150301600
B1356293658335N00439614WA0150601604
B1356303658337N00439607WA0151201611
B1356313658338N00439605WA0151201611
B1356323658341N00439600WA0151401614
B1356333658344N00439597WA0151601616
B1356343658347N00439593WA0151801618
B1356353658350N00439589WA0152101620
B1356363658352N00439584WA0152301623
B1356373658354N00439579WA0152601625
B1356383658355N00439575WA0152801628
B1356393658356N00439571WA0153101631
B1356403658359N00439568WA0153301633
B1356413658361N00439565WA0153401635
B1356423658362N00439561WA0153601637
B1356433658364N00439556WA0153701638
B1356443658365N00439550WA0153901639
B1356453658367N00439545WA0154101641
B1356463658368N00439541WA0154301643
B1356473658369N00439538WA0154501646
B1356483658370N00439537WA0154601648
B1356493658370N00439535WA0154501649
B1356503658371N00439533WA0154301648
B1356513658373N00439530WA0154101646
B1356523658374N00439528WA0154001645
B1356533658376N00439525WA0153701642
B1356543658378N00439522WA0153501640
B1356563658381N00439514WA0153201635
B1356573658383N00439509WA0153201634
B1356583658384N00439504WA0153101633
B1356593658385N00439499WA0153201633
B1357003658386N00439495WA0153001633
B1357013658387N00439491WA0152901632
B1357023658389N00439486WA0152801631
B1357033658390N00439481WA0152701630
B1357043658391N00439476WA0152801629
B1357053658393N00439471WA0152901630
B1357063658394N00439467WA0153001631
B1357073658396N00439463WA0153001631
B1357083658397N00439459WA0152901632
B1357093658399N00439455WA0152901631
B1357103658401N00439450WA0152901630
B1357113658403N00439446WA0153001630
B1357123658405N00439442WA0153001631
B1357133658407N00439438WA0153101632
B1357143658407N00439433WA0153201633
B1357153658408N00439428WA0153201633
B1357163658408N00439423WA0153201634
B1357173658409N00439419WA0153201634
B1357183658410N00439414WA0153201634
B1357193658411N00439409WA0153101634
B1357203658411N00439403WA0153201634
B1357213658412N00439394WA0153201634
B1357223658412N00439393WA0153201634
B1357233658412N00439388WA0153101634
B1357243658413N00439382WA0153001633
B1357253658413N00439376WA0152901632
B1357263658414N00439370WA0152901631
B1357273658414N00439363WA0153001631
B1357283658414N00439357WA0153001630
B1357293658413N00439351WA0153001631
B1357303658414N00439344WA0153101631
B1357313658414N00439339WA0153101632
B1357323658414N00439333WA0153101632
B1357333658414N00439326WA0153101632
B1357343658414N00439320WA0153101632
B1357353658415N00439313WA0153001632
B1357363658415N00439307WA0153001632
B1357373658416N00439301WA0153001631
B1357383658417N00439294WA0153001631
B1357393658417N00439287WA0153101631
B1357403658418N00439280WA0153201632
B1357413658418N00439273WA0153301633
B1357423658418N00439267WA0153301634
B1357433658419N00439261WA0153201634
B1357443658419N00439255WA0153101633
B1357453658419N00439249WA0153001632
B1357463658419N00439242WA0153001631
B1357473658420N00439234WA0153201631
B1357483658421N00439230WA0153301631
B1357493658423N00439226WA0153401633
B1357503658424N00439221WA0153401634
B1357513658425N00439215WA0153401635
B1357523658426N00439209WA0153401635
B1357533658428N00439204WA0153401635
B1357543658430N00439199WA0153501635
B1357553658432N00439195WA0153401636
B1357563658433N00439190WA0153401636
B1357573658435N00439185WA0153201635
B1357583658436N00439179WA0153101633
B1357593658438N00439173WA0152901631
B1358003658439N00439166WA0152901630
B1358013658441N00439160WA0152801629
B1358023658443N00439154WA0152801629
B1358033658444N00439147WA0152801629
B1358043658445N00439141WA0152801629
B1358053658445N00439135WA0152901629
B1358063658444N00439129WA0152901630
B1358073658444N00439123WA0152801630
B1358083658444N00439116WA0152601629
B1358093658444N00439109WA0152301627
B1358103658445N00439102WA0152101624
B1358113658445N00439094WA0152001622
B1358133658445N00439080WA0151801620
B1358143658444N00439074WA0151801619
B1358153658444N00439067WA0151601618
B1358163658444N00439061WA0151301617
B1358173658444N00439054WA0151101614
B1358183658444N00439047WA0150801611
B1358193658443N00439039WA0150501607
B1358203658443N00439032WA0150101604
B1358213658443N00439025WA0149901601
B1358223658442N00439017WA0149701599
B1358233658442N00439010WA0149501597
B1358243658441N00439003WA0149301595
B1358253658440N00438996WA0149101593
B1358263658438N00438989WA0149001590
B1358273658438N00438981WA0148701589
B1358283658438N00438974WA0148601587
B1358293658438N00438968WA0148301584
B1358303658438N00438961WA0148001582
B1358313658439N00438954WA0147701579
B1358323658439N00438946WA0147401576
B1358333658440N00438938WA0147101573
B1358343658441N00438929WA0146801570
B1358353658441N00438921WA0146601568
B1358363658442N00438913WA0146401566
B1358373658442N00438905WA0146201564
B1358383658441N00438892WA0146001559
B1358393658440N00438888WA0145901559
B1358403658440N00438880WA0145701556
B1358413658440N00438872WA0145601555
B1358423658440N00438864WA0145401553
B1358433658440N00438857WA0145301552
B1358443658440N00438850WA0145001550
B1358453658439N00438843WA0144901549
B1358463658438N00438836WA0144601546
B1358473658437N00438829WA0144301544
B1358483658436N00438822WA0144101542
B1358493658435N00438815WA0143901539
B1358503658434N00438808WA0143801537
B1358513658433N00438801WA0143601535
B1358523658433N00438794WA0143401533
B1358533658433N00438788WA0143201531
B1358543658433N00438781WA0143101529
B1358553658433N00438774WA0142901527
B1358563658433N00438767WA0142801526
B1358573658432N00438760WA0142701525
B1358583658430N00438754WA0142501523
B1358593658428N00438747WA0142301522
B1359003658427N00438740WA0142101519
B1359013658426N00438732WA0142001517
B1359023658424N00438725WA0141901516
B1359033658423N00438718WA0141801515
B1359043658420N00438711WA0141601515
B1359053658418N00438704WA0141601512
B1359063658417N00438696WA0141501511
B1359073658415N00438689WA0141301510
B1359083658413N00438682WA0141201509
B1359093658410N00438675WA0141001508
B1359103658408N00438668WA0140801506
B1359113658405N00438661WA0140701504
B1359123658403N00438654WA0140601502
B1359133658401N00438647WA0140401501
B1359143658398N00438640WA0140301500
B1359153658395N00438634WA0140201499
B1359163658393N00438627WA0140001497
B1359173658390N00438620WA0139801496
B1359183658387N00438613WA0139601494
B1359193658385N00438605WA0139501492
B1359203658382N00438599WA0139401491
B1359213658379N00438592WA0139201489
B1359223658376N00438585WA0139101487
B1359233658373N00438578WA0138901485
B1359243658371N00438571WA0138801484
B1359253658368N00438564WA0138701483
B1359263658366N00438558WA0138601482
B1359273658363N00438552WA0138401481
B1359283658361N00438546WA0138201479
B1359293658359N00438533WA0137501473
B1359303658359N00438531WA0137501473
B1359313658359N00438523WA0137301470
B1359323658359N00438516WA0137101468
B1359333658357N00438508WA0136901466
B1359343658355N00438501WA0136701463
B1359353658352N00438493WA0136401460
B1359363658350N00438483WA0136201457
B1359373658349N00438475WA0136101454
B1359383658348N00438467WA0136101454
B1359393658347N00438460WA0136001454
B1359403658344N00438453WA0135701453
B1359413658342N00438445WA0135601451
B1359423658339N00438437WA0135301449
B1359433658338N00438430WA0135101446
B1359443658336N00438422WA0135001444
B1359453658334N00438415WA0134901443
B1359463658332N00438408WA0134801442
B1359473658330N00438401WA0134601440
B1359483658328N00438394WA0134501439
B1359493658326N00438387WA0134301437
B1359503658325N00438379WA0134201436
B1359513658322N00438372WA0134001434
B1359523658319N00438364WA0133901432
B1359533658316N00438357WA0133901431
B1359543658313N00438350WA0133701430
B1359553658309N00438341WA0133701429
B1359563658308N00438337WA0133501429
B1359573658305N00438331WA0133201427
B1359583658303N00438325WA0132901424
B1359593658301N00438319WA0132501421
B1400003658298N00438311WA0132101417
B1400013658295N00438304WA0131901413
B1400023658292N00438298WA0131601411
B1400033658289N00438293WA0131401408
B1400043658285N00438287WA0131101405
B1400053658282N00438282WA0130801402
B1400063658279N00438277WA0130501399
B1400073658276N00438272WA0130201397
B1400083658274N00438265WA0130001393
B1400093658273N00438258WA0129701390
B1400103658272N00438251WA0129501387
B1400113658271N00438244WA0129401386
B1400123658270N00438238WA0129201385
B1400133658269N00438232WA0129001382
B1400143658268N00438225WA0128701380
B1400153658267N00438219WA0128501377
B1400163658266N00438212WA0128501376
B1400173658265N00438206WA0128301374
B1400183658264N00438200WA0128101372
B1400193658263N00438193WA0127901370
B1400213658258N00438179WA0127601366
B1400223658255N00438172WA0127501365
B1400233658252N00438165WA0127301363
B1400243658250N00438158WA0127201362
B1400253658247N00438151WA0127001361
B1400263658244N00438144WA0126901359
B1400273658241N00438137WA0126801357
B1400283658238N00438130WA0126601356
B1400293658235N00438124WA0126601355
B1400303658231N00438117WA0126501354
B1400313658226N00438110WA0126501353
B1400323658222N00438103WA0126501352
B1400333658218N00438096WA0126601353
B1400343658214N00438090WA0126601354
B1400353658211N00438085WA0126601354
B1400363658207N00438079WA0126601354
B1400373658203N00438073WA0126501354
B1400383658199N00438067WA0126501353
B1400393658196N00438061WA0126501353
B1400403658194N00438055WA0126601354
B1400413658193N00438049WA0126601354
B1400423658193N00438043WA0126601354
B1400433658193N00438038WA0126601354
B1400443658194N00438034WA0126601354
B1400453658194N00438029WA0126501354
B1400463658194N00438020WA0126501353
B1400473658194N00438017WA0126601353
B1400483658194N00438010WA0126501353
B1400493658193N00438003WA0126601353
B1400503658192N00437997WA0126601354
B1400513658190N00437990WA0126701354
B1400523658189N00437982WA0126601354
B1400533658188N00437975WA0126601354
B1400543658186N00437968WA0126701354
B1400553658183N00437961WA0126601354
B1400563658181N00437954WA0126501354
B1400573658178N00437948WA0126401353
B1400583658176N00437941WA0126101352
B1400593658173N00437932WA0126101350
B1401003658171N00437924WA0126001348
B1401013658169N00437916WA0126101348
B1401023658167N00437909WA0126301348
B1401033658165N00437903WA0126301350
B1401043658165N00437897WA0126401351
B1401053658165N00437891WA0126401352
B1401063658165N00437884WA0126301351
B1401073658165N00437877WA0126301351
B1401083658164N00437870WA0126401351
B1401093658162N00437863WA0126601353
B1401103658161N00437857WA0126801354
B1401113658161N00437851WA0126901356
B1401123658161N00437845WA0127001358
B1401133658160N00437840WA0127201359
B1401143658160N00437834WA0127401361
B1401153658159N00437828WA0127501363
B1401163658158N00437822WA0127601364
B1401173658157N00437816WA0127701365
B1401183658157N00437810WA0127701366
B1401193658156N00437803WA0127901367
B1401203658155N00437796WA0128201369
B1401213658154N00437790WA0128401371
B1401223658153N00437784WA0128501374
B1401233658151N00437778WA0128501375
B1401243658150N00437771WA0128601376
B1401253658148N00437763WA0128801377
B1401263658146N00437756WA0128901378
B1401273658144N00437749WA0129001380
B1401283658143N00437743WA0129201382
B1401293658140N00437738WA0129201383
B1401303658137N00437732WA0129101383
B1401313658133N00437725WA0128901382
B1401323658128N00437718WA0128901381
B1401333658122N00437711WA0128901380
B1401343658114N00437707WA0128901380
B1401353658105N00437706WA0128801380
B1401363658097N00437708WA0128801379
B1401373658085N00437714WA0129001380
B1401383658084N00437714WA0129001380
B1401393658078N00437718WA0129101381
B1401403658073N00437722WA0129101382
B1401413658068N00437727WA0129101381
B1401423658063N00437732WA0129201381
B1401433658057N00437737WA0129301382
B1401443658052N00437742WA0129401383
B1401453658048N00437747WA0129401384
B1401463658043N00437752WA0129501384
B1401473658039N00437757WA0129501385
B1401483658034N00437761WA0129501385
B1401493658030N00437765WA0129601386
B1401503658026N00437769WA0129501386
B1401513658023N00437773WA0129501386
B1401523658020N00437778WA0129301385
B1401533658019N00437783WA0129201384
B1401543658018N00437789WA0129101382
B1401553658018N00437794WA0129101382
B1401563658018N00437797WA0129201382
B1401573658019N00437801WA0129101382
B1401583658021N00437803WA0129101382
B1401593658024N00437806WA0129001381
B1402003658027N00437807WA0128901380
B1402013658031N00437808WA0129001380
B1402023658034N00437807WA0129101381
B1402033658037N00437805WA0129201382
B1402043658039N00437803WA0129201382
B1402053658042N00437801WA0129201383
B1402063658045N00437797WA0129201383
B1402073658048N00437793WA0129401383
B1402083658051N00437789WA0129601384
B1402093658053N00437785WA0129801386
B1402103658055N00437781WA0130001388
B1402113658057N00437777WA0130101390
B1402123658059N00437773WA0130201391
B1402133658061N00437768WA0130201392
B1402143658063N00437764WA0130201392
B1402153658066N00437760WA0130401393
B1402163658069N00437756WA0130701395
B1402173658072N00437752WA0131001397
B1402183658074N00437749WA0131201399
B1402193658076N00437748WA0131401402
B1402203658078N00437747WA0131601405
B1402213658079N00437746WA0131801407
B1402223658081N00437745WA0131801408
B1402233658083N00437743WA0131801409
B1402243658085N00437741WA0131901409
B1402253658087N00437738WA0132001410
B1402263658088N00437734WA0132001411
B1402273658088N00437727WA0132001411
B1402293658086N00437711WA0132401412
B1402303658084N00437704WA0132801416
B1402313658083N00437698WA0133101419
B1402323658081N00437692WA0133301423
B1402333658080N00437687WA0133501425
B1402343658080N00437681WA0133501426
B1402353658079N00437674WA0133701427
B1402363658079N00437667WA0133801429
B1402373658079N00437661WA0134101431
B1402383658079N00437656WA0134301434
B1402393658078N00437650WA0134401436
B1402403658077N00437644WA0134501437
B1402413658074N00437637WA0134701438
B1402423658070N00437631WA0134801439
B1402433658065N00437627WA0135001440
B1402443658059N00437625WA0135001442
B1402453658052N00437626WA0135101443
B1402463658045N00437626WA0135101443
B1402473658038N00437627WA0135201444
B1402483658032N00437628WA0135201445
B1402493658027N00437631WA0135001445
B1402503658023N00437636WA0134801443
B1402513658018N00437642WA0134701441
B1402523658014N00437648WA0134601439
B1402533658010N00437654WA0134601439
B1402543658007N00437662WA0134501438
B1402553658006N00437665WA0134501438
B1402563658004N00437672WA0134501438
B1402573658003N00437678WA0134601437
B1402583658004N00437684WA0134901438
B1402593658004N00437689WA0135101440
B1403003658006N00437693WA0135101442
B1403013658008N00437696WA0135301443
B1403023658010N00437696WA0135501445
B1403033658013N00437697WA0135701447
B1403043658015N00437696WA0136001449
B1403053658017N00437695WA0136301453
B1403063658019N00437693WA0136701456
B1403073658020N00437692WA0136901459
B1403083658022N00437690WA0137101461
B1403093658025N00437689WA0137201463
B1403103658027N00437688WA0137401465
B1403113658030N00437687WA0137501467
B1403123658032N00437685WA0137701469
B1403133658035N00437683WA0137901471
B1403143658037N00437681WA0138101473
B1403153658039N00437678WA0138301475
B1403163658041N00437675WA0138501477
B1403173658043N00437671WA0138701479
B1403183658045N00437667WA0138901481
B1403193658046N00437661WA0139201483
B1403203658046N00437656WA0139401485
B1403213658045N00437650WA0139501488
B1403223658044N00437646WA0139701490
B1403233658043N00437642WA0139901492
B1403243658042N00437637WA0140001494
B1403253658041N00437631WA0140101495
B1403263658037N00437625WA0140201496
B1403273658033N00437618WA0140401497
B1403283658028N00437613WA0140701500
B1403293658022N00437609WA0140901502
B1403303658016N00437606WA0141101504
B1403313658009N00437603WA0141201506
B1403323658002N00437602WA0141401507
B1403333657994N00437603WA0141501509
B1403343657988N00437606WA0141601510
B1403353657981N00437611WA0141601511
B1403363657976N00437617WA0141801512
B1403373657972N00437623WA0142001514
B1403383657970N00437630WA0142101515
B1403393657968N00437636WA0142201517
B1403403657968N00437642WA0142301518
B1403413657969N00437648WA0142401518
B1403423657971N00437652WA0142501519
B1403433657973N00437655WA0142601520
B1403443657975N00437657WA0142701521
B1403453657980N00437658WA0143001524
B1403463657981N00437658WA0143001524
B1403473657983N00437657WA0143201526
B1403483657986N00437656WA0143401527
B1403493657988N00437654WA0143601529
B1403503657991N00437652WA0143801531
B1403513657992N00437650WA0144001534
B1403523657994N00437648WA0144101537
B1403533657995N00437645WA0144301538
B1403543657996N00437643WA0144401540
B1403553657998N00437642WA0144601541
B1403563658000N00437640WA0144801542
B1403573658002N00437637WA0145101545
B1403583658002N00437634WA0145301547
B1403593658002N00437630WA0145501550
B1404003658001N00437627WA0145601552
B1404013658001N00437624WA0145701553
B1404023658002N00437621WA0145601554
B1404033658002N00437617WA0145801554
B1404043658001N00437611WA0145901555
B1404053657999N00437606WA0146301557
B1404063657997N00437600WA0146601561
B1404073657996N00437594WA0147001564
B1404083657995N00437590WA0147301569
B1404093657994N00437585WA0147601572
B1404103657993N00437581WA0147701574
B1404113657991N00437574WA0147701576
B1404123657990N00437571WA0147801576
B1404133657990N00437566WA0147801577
B1404143657990N00437561WA0147901578
B1404153657990N00437556WA0147901578
B1404163657990N00437552WA0147801578
B1404173657990N00437547WA0147801578
B1404183657990N00437542WA0147801578
B1404193657991N00437536WA0147901577
B1404203657991N00437531WA0147901578
B1404213657991N00437526WA0148001579
B1404223657991N00437520WA0148001579
B1404233657990N00437515WA0147901579
B1404243657989N00437510WA0147701578
B1404253657990N00437505WA0147501576
B1404263657991N00437499WA0147501575
B1404273657992N00437493WA0147601574
B1404283657992N00437488WA0147601575
B1404293657991N00437483WA0147701576
B1404303657991N00437478WA0147701577
B1404313657991N00437473WA0147701577
B1404323657991N00437468WA0147601576
B1404333657992N00437463WA0147701576
B1404343657993N00437458WA0147801576
B1404353657993N00437452WA0147901577
B1404373657992N00437439WA0148201580
B1404383657990N00437432WA0148401581
B1404393657989N00437426WA0148501583
B1404403657988N00437420WA0148501584
B1404413657988N00437413WA0148501585
B1404423657988N00437407WA0148601585
B1404433657987N00437401WA0148601585
B1404443657986N00437394WA0148601585
B1404453657986N00437388WA0148601585
B1404463657986N00437382WA0148601585
B1404473657987N00437376WA0148601586
B1404483657986N00437370WA0148601586
B1404493657986N00437363WA0148601585
B1404503657986N00437356WA0148601585
B1404513657986N00437350WA0148601584
B1404523657986N00437344WA0148601584
B1404533657987N00437338WA0148501584
B1404543657988N00437332WA0148601584
B1404553657988N00437327WA0148601584
B1404563657988N00437321WA0148601585
B1404573657989N00437316WA0148701586
B1404583657989N00437312WA0148701586
B1404593657990N00437307WA0148701586
B1405003657991N00437303WA0148801587
B1405013657991N00437300WA0148701587
B1405023657991N00437296WA0148601586
B1405033657991N00437295WA0148401586
B1405043657993N00437292WA0148101583
B1405053657995N00437288WA0147801580
B1405063657998N00437285WA0147601577
B1405073658000N00437281WA0147501575
B1405083658002N00437278WA0147301573
B1405093658004N00437274WA0147001572
B1405103658006N00437269WA0146701569
B1405113658008N00437264WA0146401566
B1405123658010N00437258WA0146201563
B1405133658012N00437253WA0146101561
B1405143658013N00437247WA0146101560
B1405153658014N00437241WA0146001559
B1405163658014N00437235WA0145801558
B1405173658014N00437228WA0145601556
B1405183658015N00437222WA0145501554
B1405193658016N00437216WA0145401553
B1405203658017N00437212WA0145201552
B1405213658018N00437209WA0145101550
B1405223658019N00437205WA0144801549
B1405233658020N00437201WA0144501546
B1405243658022N00437197WA0144101542
B1405253658024N00437192WA0143901539
B1405263658026N00437189WA0143801537
B1405273658028N00437185WA0143501535
B1405283658030N00437182WA0143201532
B1405293658032N00437178WA0142901529
B1405303658034N00437174WA0142701526
B1405313658036N00437169WA0142501523
B1405323658039N00437165WA0142301521
B1405333658043N00437162WA0142201519
B1405343658046N00437158WA0142101517
B1405353658049N00437155WA0142101517
B1405363658051N00437153WA0142101517
B1405373658054N00437150WA0142001517
B1405383658056N00437147WA0141801516
B1405393658059N00437144WA0141601514
B1405403658062N00437142WA0141401512
B1405413658066N00437138WA0141301510
B1405423658070N00437134WA0141201508
B1405433658072N00437130WA0141201508
B1405443658074N00437125WA0141001508
B1405453658076N00437121WA0140801506
B1405463658077N00437117WA0140601504
B1405473658079N00437113WA0140401502
B1405483658081N00437110WA0140201500
B1405493658084N00437106WA0139901498
B1405503658085N00437102WA0139701495
B1405513658087N00437098WA0139501492
B1405523658089N00437093WA0139401490
B1405533658092N00437084WA0139101486
B1405543658093N00437083WA0139001486
B1405553658095N00437079WA0138901485
B1405563658097N00437074WA0138701483
B1405573658099N00437069WA0138501481
B1405583658101N00437065WA0138501480
B1405593658102N00437061WA0138401479
B1406003658104N00437057WA0138301478
B1406013658105N00437054WA0138201477
B1406023658105N00437050WA0138001476
B1406033658106N00437046WA0137801474
B1406043658106N00437041WA0137501472
B1406053658107N00437037WA0137501470
B1406063658108N00437033WA0137401468
B1406073658110N00437030WA0137301467
B1406083658111N00437027WA0137201466
B1406093658112N00437024WA0137001465
B1406103658113N00437021WA0136801463
B1406113658114N00437017WA0136701461
B1406123658115N00437013WA0136601460
B1406133658115N00437009WA0136501459
B1406143658115N00437005WA0136301458
B1406153658116N00437001WA0136201456
B1406163658116N00436997WA0136001455
B1406173658116N00436992WA0135801453
B1406183658116N00436988WA0135701451
B1406193658117N00436982WA0135501448
B1406203658118N00436979WA0135401448
B1406213658118N00436975WA0135301447
B1406223658119N00436970WA0135301445
B1406233658120N00436966WA0135101444
B1406243658121N00436963WA0135001444
B1406253658122N00436959WA0135001443
B1406263658124N00436955WA0135001442
B1406273658125N00436951WA0135001441
B1406283658126N00436947WA0135001441
B1406293658127N00436944WA0135301442
B1406303658128N00436942WA0135401445
B1406313658129N00436941WA0135501446
B1406323658130N00436940WA0135401447
B1406333658131N00436939WA0135401446
B1406343658133N00436937WA0135301445
B1406353658136N00436936WA0135201444
B1406363658138N00436934WA0135301444
B1406373658140N00436933WA0135201445
B1406383658142N00436930WA0135201445
B1406393658142N00436928WA0135101444
B1406403658143N00436926WA0135001444
B1406413658145N00436925WA0134901443
B1406423658147N00436923WA0134701441
B1406433658149N00436921WA0134601440
B1406453658152N00436918WA0134301437
B1406463658153N00436916WA0134201436
B1406473658154N00436913WA0134101434
B1406483658155N00436909WA0134101433
B1406493658156N00436906WA0134101433
B1406503658158N00436903WA0134101433
B1406513658159N00436901WA0134001434
B1406523658160N00436899WA0134001433
B1406533658161N00436896WA0133901432
B1406543658164N00436893WA0133701430
B1406553658166N00436890WA0133701429
B1406563658168N00436886WA0133701429
B1406573658169N00436883WA0133801430
B1406583658170N00436879WA0133801430
B1406593658171N00436875WA0133901431
B1407003658173N00436872WA0133901432
B1407013658176N00436868WA0133901432
B1407023658178N00436864WA0134101432
B1407033658181N00436860WA0134301433
B1407043658183N00436856WA0134401435
B1407053658183N00436853WA0134301436
B1407063658184N00436851WA0134301437
B1407073658186N00436849WA0134101436
B1407083658189N00436846WA0133901435
B1407093658192N00436843WA0133801433
B1407103658196N00436839WA0133901432
B1407113658197N00436837WA0133801432
B1407123658199N00436834WA0133701431
B1407133658201N00436831WA0133601430
B1407143658204N00436828WA0133501428
B1407153658207N00436824WA0133301427
B1407163658210N00436821WA0133201425
B1407173658212N00436817WA0133201424
B1407183658214N00436814WA0133201424
B1407193658216N00436810WA0133101423
B1407203658217N00436806WA0133001422
B1407213658218N00436802WA0132901422
B1407223658220N00436798WA0132801421
B1407233658221N00436794WA0132701420
B1407243658223N00436790WA0132501419
B1407253658225N00436787WA0132401417
B1407263658226N00436783WA0132201415
B1407273658228N00436779WA0132001413
B1407283658229N00436774WA0131801410
B1407293658230N00436769WA0131701409
B1407303658231N00436763WA0131701407
B1407313658232N00436757WA0131601406
B1407323658233N00436753WA0131701407
B1407333658234N00436749WA0131601407
B1407343658235N00436745WA0131401407
B1407353658235N00436741WA0131201405
B1407363658236N00436737WA0131001403
B1407373658237N00436733WA0130701401
B1407383658238N00436729WA0130601399
B1407393658239N00436725WA0130201397
B1407403658240N00436721WA0130101394
B1407413658241N00436716WA0129901392
B1407423658242N00436712WA0129601389
B1407433658243N00436707WA0129401387
B1407443658245N00436703WA0129201384
B1407453658247N00436699WA0129001382
B1407463658249N00436694WA0128901381
B1407473658251N00436690WA0128801380
B1407483658253N00436685WA0128601379
B1407493658254N00436680WA0128501377
B1407503658256N00436675WA0128201375
B1407513658257N00436669WA0128001372
B1407523658259N00436662WA0127801370
B1407533658262N00436656WA0127701368
B1407543658264N00436650WA0127701367
B1407553658266N00436644WA0127701367
B1407563658268N00436640WA0127601367
B1407573658270N00436636WA0127401366
B1407583658273N00436631WA0127101365
B1407593658276N00436625WA0126901362
B1408003658279N00436617WA0126901359
B1408013658283N00436606WA0126901359
B1408023658284N00436605WA0126901359
B1408033658286N00436602WA0126901360
B1408043658289N00436599WA0126801360
B1408053658291N00436595WA0126501358
B1408063658293N00436589WA0126201355
B1408073658296N00436581WA0126001351
B1408083658298N00436574WA0126001350
B1408093658300N00436568WA0126101350
B1408103658300N00436561WA0126101350
B1408113658300N00436553WA0126201350
B1408123658299N00436544WA0126201349
B1408133658298N00436536WA0126401350
B1408143658296N00436529WA0126601352
B1408153658294N00436523WA0126701354
B1408163658291N00436517WA0126701356
B1408173658288N00436512WA0126801356
B1408183658284N00436506WA0126801356
B1408193658279N00436501WA0126901357
B1408203658274N00436496WA0126901358
B1408213658269N00436494WA0126901358
B1408223658262N00436493WA0126901358
B1408233658256N00436494WA0126901358
B1408243658251N00436497WA0126901358
B1408253658246N00436501WA0127001358
B1408263658242N00436507WA0127101359
B1408273658240N00436513WA0127301362
B1408283658240N00436517WA0127401362
B1408293658240N00436521WA0127401364
B1408303658241N00436524WA0127401364
B1408313658242N00436528WA0127201363
B1408323658243N00436532WA0127101362
B1408333658246N00436536WA0126901360
B1408343658249N00436539WA0126901359
B1408353658254N00436540WA0126901358
B1408363658259N00436540WA0126901358
B1408373658263N00436539WA0126801357
B1408383658268N00436536WA0126701357
B1408393658272N00436533WA0126501356
B1408403658275N00436528WA0126301354
B1408413658279N00436522WA0126201352
B1408423658282N00436515WA0126101350
B1408433658284N00436508WA0126101350
B1408443658286N00436501WA0126301351
B1408453658288N00436495WA0126201351
B1408463658289N00436487WA0126301352
B1408473658290N00436480WA0126301352
B1408483658291N00436473WA0126401352
B1408493658292N00436466WA0126501353
B1408503658292N00436461WA0126601354
B1408513658292N00436455WA0126601355
B1408533658292N00436444WA0126501354
B1408543658291N00436438WA0126401353
B1408553658290N00436431WA0126301352
B1408563658289N00436423WA0126401352
B1408573658288N00436416WA0126501352
B1408583658286N00436410WA0126601353
B1408593658285N00436403WA0126601354
B1409003658283N00436397WA0126501355
B1409013658280N00436390WA0126301354
B1409023658277N00436383WA0126101352
B1409033658273N00436376WA0125901350
B1409043658271N00436369WA0125801348
B1409053658271N00436361WA0125601346
B1409063658271N00436354WA0125601345
B1409073658272N00436348WA0125601344
B1409083658274N00436342WA0125601344
B1409093658276N00436336WA0125701344
B1409103658278N00436331WA0125801345
B1409113658280N00436327WA0125901346
B1409123658282N00436322WA0126101348
B1409133658284N00436316WA0126101349
B1409143658285N00436310WA0126301349
B1409153658286N00436304WA0126501351
B1409163658284N00436297WA0126601353
B1409173658281N00436289WA0126801354
B1409183658272N00436279WA0127001358
B1409193658269N00436277WA0127101358
B1409203658261N00436274WA0127301360
B1409213658254N00436273WA0127501362
B1409223658247N00436274WA0127701364
B1409233658241N00436276WA0127901366
B1409243658237N00436279WA0128101368
B1409253658233N00436283WA0128201370
B1409263658229N00436287WA0128301371
B1409273658227N00436292WA0128401372
B1409283658225N00436297WA0128501373
B1409293658224N00436301WA0128501373
B1409303658225N00436305WA0128401374
B1409313658226N00436307WA0128401374
B1409323658229N00436309WA0128401373
B1409333658232N00436310WA0128401373
B1409343658236N00436309WA0128501373
B1409353658240N00436307WA0128601374
B1409363658243N00436304WA0128801376
B1409373658246N00436300WA0129001378
B1409383658248N00436296WA0129201379
B1409393658251N00436292WA0129301381
B1409403658253N00436287WA0129401383
B1409413658254N00436281WA0129501384
B1409423658253N00436274WA0129701385
B1409433658251N00436266WA0129901386
B1409443658246N00436256WA0130101390
B1409453658242N00436252WA0130201390
B1409463658235N00436247WA0130501393
B1409473658229N00436245WA0130701395
B1409483658222N00436244WA0130901398
B1409493658215N00436244WA0131101400
B1409503658208N00436246WA0131201402
B1409513658202N00436250WA0131301403
B1409523658197N00436255WA0131401404
B1409533658194N00436261WA0131601405
B1409543658193N00436266WA0131701406
B1409553658193N00436271WA0131701407
B1409563658195N00436275WA0131901408
B1409573658198N00436277WA0132001410
B1409583658200N00436279WA0132001411
B1409593658203N00436280WA0132001412
B1410003658206N00436280WA0132001412
B1410013658209N00436280WA0132001412
B1410023658212N00436279WA0132001412
B1410033658215N00436276WA0132001412
B1410043658218N00436272WA0132001412
B1410053658220N00436268WA0132101412
B1410063658223N00436263WA0132201413
B1410073658225N00436257WA0132401414
B1410083658227N00436251WA0132601415
B1410093658226N00436238WA0133001419
B1410103658226N00436236WA0133001419
B1410113658224N00436228WA0133201421
B1410123658220N00436221WA0133401423
B1410133658214N00436214WA0133601426
B1410143658207N00436209WA0133701427
B1410153658200N00436205WA0133801428
B1410163658192N00436204WA0134101430
B1410173658185N00436204WA0134301432
B1410183658178N00436207WA0134401434
B1410193658173N00436209WA0134601436
B1410203658168N00436212WA0134701438
B1410213658165N00436215WA0134801439
B1410223658163N00436219WA0134901440
B1410233658162N00436222WA0134801441
B1410243658161N00436226WA0135001441
B1410253658161N00436229WA0135001442
B1410263658160N00436231WA0135101443
B1410273658160N00436234WA0135101444
B1410283658161N00436236WA0135101444
B1410293658162N00436238WA0135201444
B1410303658164N00436239WA0135201445
B1410313658167N00436241WA0135301445
B1410323658170N00436242WA0135501446
B1410333658173N00436243WA0135601448
B1410343658175N00436243WA0135801450
B1410353658179N00436243WA0136001454
B1410363658181N00436244WA0136001454
B1410373658183N00436244WA0136101455
B1410383658185N00436243WA0136201455
B1410393658187N00436243WA0136101455
B1410403658190N00436242WA0136101455
B1410413658192N00436241WA0136101455
B1410423658195N00436240WA0136101455
B1410433658198N00436237WA0136201454
B1410443658201N00436233WA0136201455
B1410453658202N00436228WA0136301455
B1410463658204N00436223WA0136401456
B1410473658205N00436217WA0136501457
B1410483658205N00436210WA0136601458
B1410493658204N00436203WA0136701459
B1410503658201N00436195WA0136901460
B1410513658198N00436188WA0136801460
B1410523658193N00436182WA0136901461
B1410533658186N00436177WA0137101461
B1410543658179N00436173WA0137201462
B1410553658171N00436172WA0137501464
B1410563658164N00436173WA0137601466
B1410573658158N00436176WA0137801468
B1410583658152N00436180WA0138001470
B1410593658147N00436185WA0138101472
B1411013658140N00436195WA0138301476
B1411023658138N00436200WA0138301476
B1411033658136N00436205WA0138401477
B1411043658135N00436209WA0138501478
B1411053658135N00436213WA0138701480
B1411063658135N00436216WA0138901481
B1411073658135N00436220WA0138901482
B1411083658135N00436223WA0139001484
B1411093658135N00436227WA0139001485
B1411103658136N00436230WA0139001485
B1411113658138N00436233WA0139001484
B1411123658140N00436235WA0139001484
B1411133658142N00436237WA0139101485
B1411143658144N00436240WA0139101486
B1411153658145N00436241WA0139001486
B1411163658147N00436243WA0139001486
B1411173658149N00436244WA0139001485
B1411183658151N00436245WA0138901485
B1411193658153N00436246WA0139001485
B1411203658154N00436247WA0139201486
B1411213658155N00436248WA0139301487
B1411223658156N00436249WA0139301488
B1411233658158N00436251WA0139401488
B1411243658160N00436254WA0139501488
B1411253658163N00436255WA0139801490
B1411263658165N00436258WA0140301497
B1411273658165N00436259WA0140401497
B1411283658166N00436260WA0140601500
B1411293658168N00436263WA0140801502
B1411303658170N00436266WA0141001503
B1411313658173N00436268WA0141301505
B1411323658175N00436270WA0141401508
B1411333658178N00436271WA0141601511
B1411343658180N00436272WA0141601513
B1411353658183N00436272WA0141701514
B1411363658186N00436273WA0141901515
B1411373658190N00436274WA0142101516
B1411383658193N00436275WA0142201518
B1411393658196N00436277WA0142501520
B1411403658199N00436278WA0142701522
B1411413658203N00436279WA0142901524
B1411423658206N00436280WA0143001526
B1411433658209N00436280WA0143001528
B1411443658212N00436279WA0143101529
B1411453658215N00436277WA0143201529
B1411463658218N00436275WA0143201529
B1411473658221N00436274WA0143401529
B1411483658224N00436272WA0143701531
B1411493658227N00436270WA0143801533
B1411503658229N00436267WA0144101536
B1411513658232N00436264WA0144501539
B1411523658234N00436260WA0144901545
B1411533658235N00436257WA0145101545
B1411543658235N00436251WA0145401549
B1411553658234N00436245WA0145601552
B1411563658230N00436239WA0145801553
B1411573658225N00436234WA0146101555
B1411583658218N00436231WA0146201558
B1411593658212N00436229WA0146401560
B1412003658205N00436230WA0146601563
B1412013658199N00436232WA0146701564
B1412023658193N00436236WA0146801565
B1412033658187N00436240WA0147001567
B1412043658183N00436245WA0147301569
B1412053658179N00436250WA0147601571
B1412063658177N00436256WA0147801574
B1412073658175N00436261WA0148001576
B1412083658173N00436265WA0148001578
B1412093658172N00436269WA0148001579
B1412103658172N00436274WA0147801578
B1412113658172N00436279WA0147801577
B1412123658174N00436284WA0147701575
B1412133658176N00436288WA0147901576
B1412143658179N00436291WA0148201578
B1412153658182N00436293WA0148401580
B1412163658184N00436295WA0148601583
B1412173658189N00436299WA0148901588
B1412183658189N00436299WA0148901588
B1412193658192N00436300WA0149001589
B1412203658195N00436301WA0149101591
B1412213658198N00436300WA0149301592
B1412223658201N00436298WA0149501593
B1412233658203N00436296WA0149601595
B1412243658206N00436294WA0149701596
B1412253658209N00436292WA0149901598
B1412263658211N00436289WA0150001599
B1412273658214N00436285WA0150301600
B1412283658217N00436281WA0150501602
B1412293658219N00436277WA0150601605
B1412303658221N00436273WA0150801607
B1412313658223N00436269WA0151001608
B1412323658225N00436265WA0151201610
B1412333658227N00436262WA0151401612
B1412343658230N00436260WA0151601614
B1412353658233N00436259WA0151801616
B1412363658237N00436256WA0152101618
B1412373658240N00436252WA0152401621
B1412383658243N00436248WA0152601624
B1412393658245N00436245WA0152901628
B1412403658247N00436242WA0153101630
B1412413658250N00436240WA0153301632
B1412423658253N00436237WA0153401634
B1412433658257N00436234WA0153701637
B1412443658260N00436231WA0153901637
B1412453658264N00436228WA0154201640
B1412463658268N00436226WA0154701644
B1412473658271N00436224WA0155201648
B1412483658274N00436224WA0155701654
B1412493658276N00436223WA0156201659
B1412503658279N00436223WA0156701664
B1412513658281N00436223WA0157001668
B1412523658284N00436223WA0157401673
B1412533658287N00436223WA0157901677
B1412543658290N00436223WA0158301682
B1412553658292N00436223WA0158801687
B1412563658295N00436223WA0159301692
B1412573658297N00436222WA0159601697
B1412583658299N00436222WA0159901700
B1412593658302N00436221WA0160201703
B1413003658305N00436221WA0160401706
B1413013658308N00436220WA0160601708
B1413023658311N00436218WA0160801711
B1413033658314N00436217WA0161001713
B1413043658318N00436216WA0161301716
B1413053658321N00436215WA0161501718
B1413063658325N00436213WA0161901721
B1413073658328N00436212WA0162301724
B1413093658336N00436213WA0163101731
B1413103658340N00436214WA0163601736
B1413113658343N00436214WA0164001741
B1413123658346N00436215WA0164401746
B1413133658349N00436214WA0164701750
B1413143658352N00436214WA0165001754
B1413153658355N00436214WA0165201757
B1413163658359N00436214WA0165401759
B1413173658362N00436214WA0165701762
B1413183658366N00436213WA0166001763
B1413193658370N00436213WA0166401766
B1413203658374N00436212WA0166801771
B1413213658376N00436210WA0167301776
B1413223658379N00436208WA0167801781
B1413233658381N00436207WA0168201786
B1413243658384N00436206WA0168401790
B1413253658386N00436204WA0168701793
B1413263658389N00436200WA0169001796
B1413273658391N00436196WA0169501799
B1413283658392N00436193WA0169701802
B1413293658394N00436191WA0170001807
B1413303658396N00436190WA0170101810
B1413313658397N00436190WA0170201811
B1413323658399N00436188WA0170201812
B1413333658400N00436186WA0170201813
B1413343658401N00436183WA0170001812
B1413353658402N00436183WA0170001812
B1413363658404N00436180WA0169801811
B1413373658407N00436178WA0169801809
B1413383658409N00436176WA0169901809
B1413393658412N00436173WA0170101810
B1413403658413N00436171WA0170301812
B1413413658415N00436169WA0170401814
B1413423658416N00436166WA0170401815
B1413433658418N00436163WA0170601815
B1413443658420N00436160WA0170801817
B1413453658422N00436157WA0171101819
B1413463658423N00436153WA0171401822
B1413473658424N00436151WA0171601825
B1413483658425N00436149WA0171701827
B1413493658426N00436147WA0171601828
B1413503658428N00436147WA0171501828
B1413513658431N00436146WA0171501827
B1413523658434N00436144WA0171501827
B1413533658437N00436141WA0171601828
B1413543658441N00436138WA0171801828
B1413553658444N00436135WA0172001830
B1413563658448N00436131WA0172101831
B1413573658452N00436128WA0172301833
B1413583658456N00436125WA0172601834
B1413593658460N00436122WA0172901838
B1414003658464N00436119WA0173301844
B1414013658467N00436117WA0173501844
B1414023658471N00436115WA0173701846
B1414033658474N00436114WA0174001849
B1414043658478N00436113WA0174201851
B1414053658482N00436112WA0174501854
B1414063658486N00436110WA0174801857
B1414073658490N00436108WA0175101860
B1414083658494N00436106WA0175501863
B1414093658499N00436104WA0176001867
B1414103658504N00436103WA0176301871
B1414113658508N00436101WA0176701875
B1414123658512N00436100WA0177101880
B1414133658517N00436097WA0177401884
B1414143658521N00436095WA0177801887
B1414153658525N00436093WA0178001891
B1414163658529N00436090WA0178201893
B1414173658533N00436087WA0178401896
B1414183658537N00436083WA0178601898
B1414193658541N00436079WA0178801900
B1414203658544N00436074WA0178901901
B1414213658548N00436071WA0179101903
B1414223658552N00436067WA0179101904
B1414233658556N00436064WA0179201905
B1414243658560N00436060WA0179201906
B1414253658567N00436053WA0179501908
B1414263658567N00436053WA0179501908
B1414273658571N00436049WA0179601910
B1414283658575N00436045WA0179801911
B1414293658578N00436042WA0179901913
B1414303658581N00436040WA0180001914
B1414313658583N00436037WA0180001915
B1414323658586N00436034WA0180101915
B1414333658589N00436030WA0180001915
B1414343658592N00436025WA0180101915
B1414353658594N00436021WA0180101915
B1414363658596N00436016WA0180101916
B1414373658598N00436013WA0180001916
B1414383658600N00436009WA0179901915
B1414393658602N00436005WA0179801914
B1414403658604N00436001WA0179701913
B1414413658606N00435998WA0179701913
B1414423658608N00435994WA0179701913
B1414433658610N00435991WA0179501912
B1414443658612N00435987WA0179401911
B1414453658615N00435984WA0179301909
B1414463658617N00435982WA0179301909
B1414473658620N00435980WA0179101908
B1414483658622N00435978WA0178901906
B1414493658625N00435974WA0178701904
B1414503658627N00435970WA0178601902
B1414513658630N00435965WA0178501899
B1414523658631N00435961WA0178401899
B1414533658633N00435956WA0178301898
B1414543658635N00435951WA0178201897
B1414553658637N00435945WA0178101896
B1414563658640N00435939WA0178101896
B1414573658642N00435933WA0178101896
B1414583658645N00435926WA0178201896
B1414593658647N00435921WA0178201896
B1415003658649N00435915WA0178301896
B1415013658652N00435909WA0178301897
B1415023658655N00435904WA0178301897
B1415033658658N00435899WA0178201897
B1415043658661N00435895WA0178201897
B1415053658663N00435891WA0178001896
B1415063658666N00435886WA0177901895
B1415073658669N00435881WA0177801894
B1415083658671N00435877WA0177701893
B1415093658674N00435872WA0177701892
B1415103658676N00435868WA0177601891
B1415113658678N00435865WA0177501891
B1415123658681N00435861WA0177401890
B1415133658684N00435858WA0177201888
B1415143658688N00435854WA0177201887
B1415153658692N00435850WA0177201886
B1415173658699N00435843WA0177201886
B1415183658702N00435839WA0177301887
B1415193658705N00435836WA0177201887
B1415203658708N00435833WA0177101886
B1415213658711N00435830WA0177001885
B1415223658715N00435828WA0176901884
B1415233658718N00435827WA0176901883
B1415243658722N00435826WA0177001883
B1415253658725N00435824WA0176901883
B1415263658728N00435821WA0176801883
B1415273658731N00435819WA0176801882
B1415283658733N00435816WA0176701881
B1415293658736N00435814WA0176501880
B1415303658739N00435813WA0176401879
B1415313658742N00435811WA0176301878
B1415323658745N00435808WA0176101875
B1415333658749N00435806WA0175901873
B1415343658752N00435804WA0175801872
B1415353658756N00435801WA0175701870
B1415363658759N00435798WA0175501869
B1415373658762N00435795WA0175401867
B1415383658765N00435792WA0175101866
B1415393658768N00435788WA0175001864
B1415403658771N00435784WA0174801862
B1415413658774N00435779WA0174701860
B1415423658779N00435774WA0174601859
B1415433658780N00435773WA0174501859
B1415443658782N00435771WA0174301858
B1415453658784N00435768WA0174001855
B1415463658787N00435764WA0173701852
B1415473658790N00435760WA0173301848
B1415483658794N00435756WA0173101845
B1415493658798N00435753WA0173101843
B1415503658801N00435750WA0173001842
B1415513658803N00435747WA0172901842
B1415523658804N00435744WA0172701841
B1415533658807N00435740WA0172401838
B1415543658810N00435737WA0172001835
B1415553658814N00435733WA0171701831
B1415563658818N00435728WA0171501827
B1415573658822N00435723WA0171601826
B1415583658824N00435718WA0171701827
B1415593658826N00435715WA0171701828
B1416003658829N00435712WA0171601828
B1416013658832N00435707WA0171601827
B1416023658835N00435702WA0171701827
B1416033658838N00435697WA0172001828
B1416043658840N00435693WA0172201831
B1416053658842N00435690WA0172301834
B1416063658844N00435687WA0172401835
B1416073658848N00435683WA0172401835
B1416083658852N00435679WA0172601836
B1416093658854N00435676WA0172701836
B1416103658857N00435672WA0172901838
B1416113658859N00435668WA0173001841
B1416123658861N00435664WA0173101842
B1416133658864N00435660WA0173001842
B1416143658868N00435655WA0173101842
B1416153658871N00435651WA0173201842
B1416163658875N00435647WA0173401843
B1416173658878N00435643WA0173501845
B1416183658880N00435638WA0173601846
B1416193658883N00435632WA0173601847
B1416203658885N00435626WA0173601847
B1416213658888N00435619WA0173701848
B1416223658890N00435613WA0173801849
B1416233658892N00435606WA0173901850
B1416243658893N00435599WA0173901850
B1416253658895N00435592WA0173901850
B1416263658898N00435584WA0173801850
B1416273658900N00435577WA0173801849
B1416283658903N00435570WA0173701849
B1416293658905N00435563WA0173701849
B1416303658907N00435556WA0173601849
B1416313658909N00435549WA0173401847
B1416323658911N00435542WA0173201845
B1416333658917N00435531WA0173001842
B1416343658918N00435530WA0172901842
B1416353658921N00435525WA0172801840
B1416363658924N00435520WA0172601839
B1416373658928N00435514WA0172301836
B1416383658932N00435508WA0172001834
B1416393658936N00435501WA0171801831
B1416403658940N00435495WA0171601829
B1416413658944N00435489WA0171501827
B1416423658946N00435482WA0171301826
B1416433658949N00435475WA0171201824
B1416443658951N00435469WA0171101823
B1416453658954N00435463WA0170901821
B1416463658958N00435457WA0170701818
B1416473658961N00435452WA0170601817
B1416483658965N00435448WA0170501816
B1416493658968N00435443WA0170401815
B1416503658971N00435438WA0170001814
B1416513658974N00435434WA0169801811
B1416523658976N00435430WA0169501808
B1416533658979N00435427WA0169201805
B1416543658982N00435423WA0168801801
B1416553658985N00435418WA0168401797
B1416563658988N00435411WA0168201793
B1416573658991N00435404WA0168101791
B1416583658992N00435398WA0168001790
B1416593658994N00435391WA0167701786
B1417003658995N00435387WA0167501786
B1417013658997N00435381WA0167101783
B1417023658999N00435374WA0166801780
B1417033659001N00435366WA0166601777
B1417043659002N00435359WA0166401775
B1417053659004N00435352WA0166201773
B1417063659006N00435345WA0165901770
B1417073659007N00435338WA0165601767
B1417083659008N00435331WA0165301765
B1417093659009N00435324WA0164901761
B1417103659010N00435317WA0164601758
B1417113659011N00435309WA0164101753
B1417123659013N00435301WA0163701749
B1417133659013N00435292WA0163401745
B1417143659014N00435283WA0163101741
B1417153659015N00435275WA0162901739
B1417163659015N00435267WA0162701736
B1417173659016N00435260WA0162301733
B1417183659016N00435251WA0162001730
B1417193659016N00435243WA0161601726
B1417203659017N00435234WA0161401723
B1417213659017N00435226WA0161101720
B1417223659018N00435218WA0160901717
B1417233659018N00435211WA0160601714
B1417253659019N00435195WA0159901707
B1417263659020N00435187WA0159501703
B1417273659022N00435179WA0159301700
B1417283659023N00435170WA0159001697
B1417293659023N00435161WA0158701694
B1417303659023N00435153WA0158501691
B1417313659024N00435144WA0158201688
B1417323659024N00435135WA0158101686
B1417333659025N00435127WA0158001684
B1417343659025N00435120WA0158001683
B1417353659025N00435113WA0157901682
B1417363659026N00435105WA0157701681
B1417373659028N00435097WA0157601680
B1417383659030N00435089WA0157601679
B1417393659032N00435082WA0157701679
B1417403659033N00435075WA0157701680
B1417413659033N00435068WA0157601680
B1417423659033N00435061WA0157401678
B1417433659034N00435054WA0157201676
B1417443659036N00435045WA0157101674
B1417453659038N00435037WA0156901673
B1417463659040N00435028WA0156801671
B1417473659040N00435020WA0156801670
B1417483659040N00435012WA0156701669
B1417493659039N00435004WA0156501668
B1417503659041N00434992WA0156201665
B1417513659042N00434988WA0156101665
B1417523659044N00434980WA0156001663
B1417533659045N00434972WA0155901662
B1417543659046N00434964WA0155701661
B1417553659047N00434956WA0155401659
B1417563659047N00434947WA0155101656
B1417573659048N00434938WA0154801653
B1417583659049N00434928WA0154701650
B1417593659050N00434919WA0154601649
B1418003659050N00434910WA0154601648
B1418013659050N00434902WA0154501648
B1418023659049N00434894WA0154301647
B1418033659049N00434885WA0154101645
B1418043659049N00434875WA0153901642
B1418053659048N00434865WA0153701640
B1418063659048N00434856WA0153601638
B1418073659048N00434848WA0153501637
B1418083659047N00434840WA0153401636
B1418093659047N00434831WA0153201634
B1418103659046N00434822WA0153001633
B1418113659046N00434813WA0152801631
B1418123659046N00434803WA0152801629
B1418133659046N00434794WA0152701629
B1418143659046N00434786WA0152801628
B1418153659045N00434778WA0152701628
B1418163659045N00434769WA0152501627
B1418173659046N00434764WA0152401627
B1418183659046N00434756WA0152101624
B1418193659047N00434747WA0151801621
B1418203659047N00434738WA0151701619
B1418213659047N00434729WA0151501617
B1418223659047N00434722WA0151401616
B1418233659046N00434714WA0151201614
B1418243659046N00434706WA0151001612
B1418253659046N00434698WA0150801610
B1418263659047N00434689WA0150601607
B1418273659047N00434681WA0150401605
B1418283659047N00434673WA0150101603
B1418293659047N00434665WA0149901601
B1418303659045N00434657WA0149601598
B1418313659043N00434648WA0149301595
B1418323659042N00434640WA0149001592
B1418333659039N00434631WA0148801589
B1418343659037N00434623WA0148801588
B1418353659034N00434614WA0148801587
B1418363659033N00434605WA0148701586
B1418373659033N00434597WA0148701586
B1418383659034N00434589WA0148601585
B1418393659034N00434581WA0148501585
B1418403659034N00434573WA0148401583
B1418413659032N00434559WA0148201581
B1418423659032N00434557WA0148101581
B1418433659032N00434549WA0147901580
B1418443659032N00434540WA0147701577
B1418453659033N00434532WA0147601575
B1418463659033N00434523WA0147401574
B1418473659033N00434515WA0147301573
B1418483659031N00434507WA0147101571
B1418493659030N00434498WA0146801569
B1418503659028N00434490WA0146501567
B1418513659027N00434481WA0146301564
B1418523659026N00434472WA0146101562
B1418533659024N00434463WA0146101560
B1418543659022N00434455WA0146001559
B1418553659020N00434448WA0145701558
B1418563659018N00434441WA0145601556
B1418573659017N00434433WA0145301553
B1418583659016N00434425WA0145101551
B1418593659015N00434417WA0145001549
B1419003659014N00434409WA0144901548
B1419013659012N00434401WA0144701547
B1419023659010N00434393WA0144501545
B1419033659007N00434386WA0144301544
B1419043659005N00434378WA0144301542
B1419053659003N00434370WA0144101541
B1419063659002N00434363WA0143901539
B1419073659000N00434353WA0143801536
B1419083658999N00434347WA0143801536
B1419093658998N00434340WA0143601534
B1419103658997N00434332WA0143301532
B1419113658996N00434323WA0143001530
B1419123658995N00434315WA0142801527
B1419133658993N00434306WA0142701525
B1419143658992N00434299WA0142601524
B1419153658990N00434291WA0142501523
B1419163658989N00434284WA0142201521
B1419173658988N00434277WA0142101519
B1419183658987N00434269WA0141801517
B1419193658985N00434262WA0141601515
B1419203658982N00434254WA0141501512
B1419213658980N00434247WA0141301511
B1419223658978N00434240WA0141201509
B1419233658976N00434233WA0141001507
B1419243658975N00434225WA0140801505
B1419253658973N00434217WA0140701504
B1419263658972N00434210WA0140501502
B1419273658970N00434202WA0140301500
B1419283658968N00434195WA0140201499
B1419293658965N00434187WA0140001497
B1419303658963N00434180WA0139901496
B1419313658960N00434173WA0139701494
B1419333658956N00434159WA0139401491
B1419343658954N00434152WA0139301489
B1419353658952N00434145WA0139101487
B1419363658950N00434139WA0138901486
B1419373658949N00434132WA0138701484
B1419383658948N00434124WA0138501482
B1419393658946N00434117WA0138201479
B1419403658944N00434109WA0138001477
B1419413658942N00434101WA0137901475
B1419423658941N00434094WA0137801474
B1419433658940N00434087WA0137701473
B1419443658938N00434080WA0137501472
B1419453658937N00434074WA0137301469
B1419463658934N00434066WA0137001466
B1419473658932N00434058WA0136701464
B1419483658930N00434051WA0136601461
B1419493658929N00434044WA0136501460
B1419503658927N00434037WA0136301458
B1419513658924N00434030WA0136301457
B1419523658921N00434022WA0136101456
B1419533658918N00434014WA0136101455
B1419543658916N00434006WA0136101455
B1419553658915N00433999WA0136101455
B1419563658914N00433993WA0136101455
B1419573658912N00433986WA0135901455
B1419583658909N00433975WA0135801452
B1419593658909N00433971WA0135701452
B1420003658908N00433964WA0135601450
B1420013658908N00433957WA0135501449
B1420023658908N00433950WA0135301448
B1420033658908N00433943WA0135101446
B1420043658908N00433936WA0134701444
B1420053658907N00433928WA0134501441
B1420063658905N00433920WA0134401439
B1420073658903N00433913WA0134301437
B1420083658902N00433906WA0134101436
B1420093658900N00433898WA0134001434
B1420103658899N00433890WA0133801432
B1420113658898N00433881WA0133701431
B1420123658897N00433873WA0133501429
B1420133658895N00433865WA0133401428
B1420143658893N00433856WA0133301426
B1420153658891N00433848WA0133101425
B1420163658889N00433840WA0133001423
B1420173658888N00433832WA0132801422
B1420183658886N00433824WA0132501420
B1420193658884N00433816WA0132301417
B1420203658881N00433807WA0132101415
B1420213658879N00433798WA0132001413
B1420223658876N00433789WA0131801411
B1420233658874N00433780WA0131801410
B1420243658872N00433769WA0131801409
B1420253658871N00433763WA0131801409
B1420263658869N00433755WA0131701409
B1420273658867N00433746WA0131501408
B1420283658865N00433737WA0131401406
B1420293658863N00433729WA0131301405
B1420303658861N00433720WA0131201404
B1420313658858N00433712WA0131101403
B1420323658856N00433703WA0131001402
B1420333658854N00433695WA0130801401
B1420343658852N00433687WA0130601399
B1420353658851N00433678WA0130401397
B1420363658850N00433669WA0130301395
B1420373658849N00433660WA0130201394
B1420383658848N00433653WA0130101393
B1420393658847N00433645WA0129801391
B1420403658846N00433637WA0129501388
B1420413658845N00433628WA0129101385
B1420423658844N00433618WA0128801381
B1420433658843N00433608WA0128801378
B1420443658841N00433600WA0128801377
B1420453658839N00433592WA0128701377
B1420463658838N00433585WA0128601377
B1420473658837N00433578WA0128501376
B1420483658836N00433570WA0128301374
B1420493658834N00433556WA0128001369
B1420503658833N00433554WA0128001369
B1420513658832N00433547WA0127901368
B1420523658831N00433540WA0127801367
B1420533658830N00433532WA0127701366
B1420543658828N00433523WA0127701364
B1420553658826N00433514WA0127801364
B1420563658823N00433505WA0128001365
B1420573658821N00433497WA0128301368
B1420583658820N00433491WA0128501371
B1420593658818N00433484WA0128601373
B1421003658816N00433478WA0128601375
B1421013658814N00433471WA0128701375
B1421023658813N00433463WA0128701375
B1421033658813N00433454WA0128901376
B1421043658813N00433446WA0129201378
B1421053658812N00433439WA0129401381
B1421063658812N00433432WA0129601383
B1421073658811N00433424WA0129701385
B1421083658811N00433417WA0129801387
B1421093658812N00433410WA0129901387
B1421103658813N00433401WA0129901388
B1421113658814N00433393WA0130201389
B1421123658814N00433385WA0130201391
B1421133658814N00433376WA0130301392
B1421143658815N00433368WA0130401393
B1421153658815N00433359WA0130401395
B1421163658816N00433353WA0130501395
B1421173658817N00433345WA0130701396
B1421183658818N00433337WA0130801397
B1421193658819N00433329WA0131001398
B1421203658819N00433322WA0131201401
B1421213658820N00433315WA0131401403
B1421223658820N00433308WA0131601405
B1421233658820N00433300WA0131601406
B1421243658821N00433292WA0131701406
B1421253658821N00433284WA0131901407
B1421263658822N00433275WA0132101409
B1421273658822N00433267WA0132301411
B1421283658823N00433259WA0132501414
B1421293658823N00433251WA0132701416
B1421303658823N00433243WA0132801418
B1421313658823N00433235WA0133001419
B1421323658822N00433227WA0133101420
B1421333658821N00433219WA0133101422
B1421343658820N00433211WA0133101422
B1421353658819N00433203WA0133101422
B1421363658817N00433194WA0132901421
B1421373658816N00433185WA0132901420
B1421383658815N00433177WA0132801419
B1421393658813N00433168WA0132801418
B1421413658809N00433152WA0132601417
B1421423658806N00433143WA0132601416
B1421433658804N00433135WA0132701416
B1421443658802N00433126WA0132801417
B1421453658800N00433118WA0132901418
B1421463658799N00433110WA0133001420
B1421473658797N00433102WA0133001421
B1421483658795N00433093WA0133001421
B1421493658793N00433084WA0133101421
B1421503658792N00433075WA0133201421
B1421513658791N00433067WA0133201422
B1421523658790N00433060WA0133301423
B1421533658789N00433052WA0133401424
B1421543658789N00433044WA0133401424
B1421553658787N00433035WA0133501425
B1421563658786N00433026WA0133701425
B1421573658785N00433017WA0133901427
B1421583658783N00433009WA0134101430
B1421593658781N00433001WA0134401432
B1422003658779N00432993WA0134601435
B1422013658778N00432985WA0134801437
B1422023658776N00432977WA0135101439
B1422033658776N00432968WA0135401442
B1422043658776N00432960WA0135701444
B1422053658777N00432952WA0136101448
B1422063658777N00432942WA0136901458
B1422073658777N00432939WA0137101458
B1422083658777N00432934WA0137501463
B1422093658777N00432929WA0137501466
B1422103658778N00432922WA0137601468
B1422113658778N00432914WA0137701469
B1422123658778N00432906WA0137801470
B1422133658775N00432897WA0138201471
B1422143658772N00432890WA0138501474
B1422153658770N00432883WA0138901478
B1422163658768N00432876WA0139201482
B1422173658767N00432869WA0139501485
B1422183658766N00432860WA0139701487
B1422193658765N00432852WA0140101491
B1422203658764N00432844WA0140601495
B1422213658763N00432836WA0141101500
B1422223658763N00432829WA0141401505
B1422233658762N00432822WA0141601508
B1422243658761N00432815WA0141901511
B1422253658759N00432808WA0142101514
B1422263658758N00432802WA0142501517
B1422273658756N00432796WA0142801519
B1422283658755N00432789WA0143101523
B1422293658754N00432782WA0143501526
B1422303658754N00432775WA0143801530
B1422313658753N00432768WA0144101533
B1422323658753N00432760WA0144501540
B1422333658753N00432755WA0144701540
B1422343658752N00432748WA0145001543
B1422353658752N00432740WA0145201546
B1422363658752N00432733WA0145401549
B1422373658751N00432727WA0145601551
B1422383658750N00432720WA0145601553
B1422393658750N00432713WA0145601553
B1422403658750N00432705WA0145501553
B1422413658750N00432697WA0145501552
B1422423658750N00432690WA0145601553
B1422433658750N00432683WA0145601553
B1422443658749N00432677WA0145601553
B1422453658748N00432670WA0145601553
B1422463658747N00432662WA0145701552
B1422473658747N00432654WA0145701553
B1422483658747N00432646WA0146101555
B1422493658746N00432638WA0146301558
B1422503658745N00432630WA0146601561
B1422513658745N00432622WA0146801563
B1422523658744N00432614WA0147001566
B1422533658745N00432606WA0147301568
B1422543658745N00432599WA0147501570
B1422553658745N00432591WA0147801573
B1422563658744N00432582WA0148001576
B1422573658741N00432568WA0148501581
B1422583658741N00432566WA0148501581
B1422593658740N00432558WA0148601583
B1423003658739N00432549WA0148801585
B1423013658737N00432541WA0148901587
B1423023658736N00432533WA0149001589
B1423033658735N00432525WA0149101590
B1423043658733N00432517WA0149101591
B1423053658732N00432508WA0149101591
B1423063658730N00432499WA0149001590
B1423073658728N00432490WA0149001590
B1423083658726N00432481WA0149001589
B1423093658724N00432472WA0148901589
B1423103658722N00432463WA0148901589
B1423113658720N00432454WA0148801589
B1423123658719N00432445WA0148701588
B1423133658717N00432437WA0148601587
B1423143658716N00432429WA0148601586
B1423153658713N00432420WA0148501585
B1423163658711N00432412WA0148301583
B1423173658709N00432404WA0148201582
B1423183658708N00432396WA0148001580
B1423193658706N00432389WA0147801578
B1423203658704N00432381WA0147501576
B1423213658702N00432373WA0147301574
B1423223658700N00432365WA0147001571
B1423233658696N00432352WA0146701567
B1423243658695N00432347WA0146601567
B1423253658693N00432339WA0146501565
B1423263658690N00432331WA0146301563
B1423273658687N00432323WA0146101561
B1423283658684N00432315WA0146001560
B1423293658681N00432307WA0145801558
B1423303658678N00432298WA0145601555
B1423313658675N00432290WA0145401553
B1423323658672N00432281WA0145201551
B1423333658670N00432273WA0145101550
B1423343658668N00432264WA0145001549
B1423353658666N00432256WA0144901547
B1423363658664N00432248WA0144801546
B1423373658662N00432240WA0144601545
B1423383658661N00432232WA0144401543
B1423393658659N00432224WA0144201541
B1423403658657N00432215WA0144001539
B1423413658655N00432206WA0143901537
B1423423658654N00432197WA0143801536
B1423433658651N00432188WA0143801535
B1423443658649N00432179WA0143601534
B1423453658647N00432171WA0143501533
B1423463658645N00432162WA0143301531
B1423473658644N00432152WA0143101529
B1423493658639N00432134WA0143001527
B1423503658637N00432126WA0142901526
B1423513658634N00432118WA0142801526
B1423523658632N00432109WA0142701524
B1423533658630N00432101WA0142501523
B1423543658628N00432092WA0142301521
B1423553658625N00432084WA0142201520
B1423563658623N00432076WA0142101519
B1423573658620N00432068WA0141901518
B1423583658617N00432060WA0141601515
B1423593658614N00432052WA0141501513
B1424003658613N00432044WA0141301511
B1424013658611N00432036WA0141001508
B1424023658610N00432028WA0140901506
B1424033658608N00432020WA0140701504
B1424043658605N00432012WA0140501502
B1424053658602N00432003WA0140301500
B1424063658599N00431995WA0140201498
B1424073658597N00431987WA0140201497
B1424083658594N00431980WA0140101497
B1424093658591N00431973WA0139901496
B1424103658588N00431966WA0139601495
B1424113658585N00431960WA0139501492
B1424123658582N00431953WA0139201490
B1424133658579N00431946WA0139001487
B1424143658574N00431935WA0138701483
B1424153658572N00431932WA0138601483
B1424163658569N00431925WA0138401481
B1424173658565N00431919WA0138101479
B1424183658562N00431912WA0137801476
B1424193658558N00431905WA0137601473
B1424203658555N00431897WA0137501470
B1424213658551N00431890WA0137301468
B1424223658548N00431883WA0137001466
B1424233658545N00431875WA0136801463
B1424243658542N00431867WA0136601461
B1424253658539N00431860WA0136401459
B1424263658536N00431852WA0136201457
B1424273658533N00431845WA0135901455
B1424283658530N00431838WA0135601453
B1424293658527N00431830WA0135401450
B1424303658524N00431823WA0135201447
B1424313658521N00431815WA0134901444
B1424323658519N00431808WA0134701442
B1424333658517N00431801WA0134401440
B1424343658515N00431793WA0134101437
B1424353658513N00431784WA0133901434
B1424363658510N00431775WA0133801431
B1424373658508N00431765WA0133901430
B1424383658505N00431755WA0134001430
B1424393658504N00431747WA0134001431
B1424403658503N00431739WA0133901432
B1424413658502N00431734WA0133801432
B1424423658501N00431727WA0133701430
B1424433658501N00431719WA0133601429
B1424443658500N00431712WA0133501427
B1424453658500N00431704WA0133301425
B1424463658500N00431697WA0133101424
B1424473658500N00431690WA0133001422
B1424483658500N00431683WA0132701420
B1424493658501N00431676WA0132501418
B1424503658501N00431669WA0132201415
B1424513658502N00431661WA0132001413
B1424523658504N00431654WA0131901411
B1424533658505N00431648WA0131701410
B1424543658507N00431642WA0131601408
B1424553658509N00431635WA0131401405
B1424563658512N00431629WA0131201403
B1424573658514N00431622WA0131001402
B1424583658516N00431616WA0130801400
B1424593658518N00431610WA0130601398
B1425003658520N00431604WA0130501396
B1425013658522N00431597WA0130401395
B1425023658524N00431591WA0130301394
B1425033658526N00431584WA0130301393
B1425043658529N00431578WA0130201393
B1425053658533N00431568WA0130201392
B1425063658534N00431567WA0130201392
B1425073658536N00431563WA0130201392
B1425083658539N00431560WA0130001391
B1425093658542N00431558WA0129801390
B1425103658545N00431556WA0129701388
B1425113658549N00431554WA0129501386
B1425123658552N00431553WA0129301384
B1425133658556N00431552WA0129101383
B1425143658559N00431551WA0128901381
B1425153658562N00431550WA0128701379
B1425163658565N00431549WA0128501377
B1425173658569N00431548WA0128201375
B1425183658574N00431547WA0127901372
B1425193658578N00431546WA0127801369
B1425203658582N00431547WA0127701367
B1425213658584N00431549WA0127401366
B1425223658586N00431552WA0127401365
B1425233658589N00431554WA0127101363
B1425243658591N00431555WA0126901362
B1425253658593N00431558WA0126801359
B1425263658596N00431562WA0126701357
B1425273658598N00431566WA0126701356
B1425283658600N00431569WA0126901356
B1425293658602N00431571WA0127001358
B1425303658605N00431572WA0127201359
B1425313658607N00431575WA0127301361
B1425323658608N00431577WA0127301361
B1425333658608N00431580WA0127301361
B1425343658608N00431584WA0127301362
B1425353658608N00431588WA0127401362
B1425363658608N00431591WA0127301363
B1425373658609N00431594WA0127301362
B1425383658610N00431598WA0127301362
B1425393658611N00431601WA0127301362
B1425403658612N00431605WA0127301363
B1425413658614N00431608WA0127301363
B1425423658616N00431611WA0127201363
B1425433658618N00431614WA0127101362
B1425443658619N00431616WA0127001361
B1425453658620N00431619WA0126901360
B1425463658621N00431622WA0126901359
B1425473658622N00431625WA0126701358
B1425483658623N00431627WA0126501356
B1425493658625N00431631WA0126401354
B1425503658626N00431635WA0126101352
B1425513658627N00431638WA0126001350
B1425523658628N00431641WA0125901349
B1425533658629N00431644WA0125801348
B1425543658630N00431647WA0125701347
B1425553658631N00431650WA0125501345
B1425573658631N00431658WA0125001340
B1425583658632N00431662WA0124701337
B1425593658634N00431667WA0124601335
B1426003658636N00431670WA0124501333
B1426013658637N00431672WA0124301332
B1426023658639N00431675WA0124101331
B1426033658640N00431678WA0123801328
B1426043658642N00431681WA0123601326
B1426053658643N00431685WA0123401323
B1426063658645N00431688WA0123301321
B1426073658647N00431690WA0123101320
B1426083658649N00431692WA0122901318
B1426093658651N00431695WA0122601316
B1426103658654N00431698WA0122401313
B1426113658656N00431701WA0122301311
B1426123658657N00431705WA0122201310
B1426133658657N00431708WA0122201309
B1426143658657N00431711WA0122001308
B1426153658657N00431715WA0121901306
B1426163658657N00431719WA0121701304
B1426173658658N00431724WA0121601302
B1426183658659N00431728WA0121501302
B1426193658659N00431732WA0121401301
B1426203658659N00431735WA0121301300
B1426213658659N00431739WA0121101299
B1426223658660N00431744WA0121001296
B1426233658660N00431746WA0121001296
B1426243658661N00431750WA0120801295
B1426253658662N00431754WA0120801294
B1426263658663N00431758WA0120801294
B1426273658664N00431762WA0120901294
B1426283658665N00431766WA0121001295
B1426293658666N00431770WA0121001295
B1426303658667N00431774WA0121101296
B1426313658668N00431778WA0121101296
B1426323658668N00431782WA0121201297
B1426333658667N00431786WA0121201297
B1426343658667N00431790WA0121201297
B1426353658667N00431793WA0121101296
B1426363658667N00431797WA0121001295
B1426373658668N00431801WA0120901294
B1426383658668N00431804WA0120801293
B1426393658668N00431807WA0120801292
B1426403658669N00431810WA0120701291
B1426413658670N00431812WA0120401289
B1426423658671N00431814WA0120301287
B1426433658672N00431818WA0120101286
B1426443658672N00431823WA0120001284
B1426453658673N00431827WA0120001284
B1426463658674N00431830WA0120001284
B1426473658675N00431832WA0120001285
B1426483658676N00431835WA0120001284
B1426493658677N00431838WA0120001284
B1426503658678N00431842WA0119901284
B1426513658678N00431846WA0119801283
B1426523658678N00431850WA0119701283
B1426533658679N00431854WA0119601283
B1426543658680N00431857WA0119401281
B1426553658681N00431861WA0119201279
B1426563658683N00431865WA0119001277
B1426573658684N00431870WA0118901275
B1426583658685N00431874WA0118701273
B1426593658686N00431877WA0118501272
B1427003658688N00431880WA0118101269
B1427013658691N00431884WA0117901267
B1427023658693N00431887WA0117701264
B1427033658696N00431890WA0117601262
B1427043658698N00431893WA0117501261
B1427053658700N00431896WA0117201259
B1427063658702N00431898WA0117001257
B1427073658705N00431902WA0116701254
B1427083658708N00431906WA0116501251
B1427093658710N00431910WA0116501250
B1427103658713N00431913WA0116501250
B1427113658715N00431916WA0116401249
B1427123658718N00431918WA0116301248
B1427133658721N00431924WA0115901245
B1427143658722N00431924WA0115801245
B1427153658724N00431928WA0115701242
B1427163658727N00431931WA0115501241
B1427173658729N00431933WA0115301239
B1427183658732N00431936WA0115201238
B1427193658734N00431939WA0115101236
B1427203658736N00431943WA0115001234
B1427213658738N00431948WA0114901233
B1427223658739N00431952WA0114901233
B1427233658740N00431955WA0114901233
B1427243658741N00431957WA0114901233
B1427253658742N00431959WA0114701232
B1427263658744N00431962WA0114601230
B1427273658746N00431966WA0114501229
B1427283658748N00431971WA0114401228
B1427293658750N00431975WA0114301227
B1427303658752N00431979WA0114201227
B1427313658753N00431983WA0114201226
B1427323658755N00431988WA0114101225
B1427333658757N00431993WA0114001224
B1427343658760N00431999WA0114001223
B1427353658761N00432005WA0113901223
B1427363658763N00432011WA0114101223
B1427373658765N00432015WA0114001224
B1427383658767N00432018WA0113901224
B1427393658772N00432022WA0113701221
B1427403658773N00432024WA0113701221
B1427413658775N00432028WA0113701219
B1427423658776N00432032WA0113801219
B1427433658778N00432035WA0113801221
B1427443658781N00432036WA0113801222
B1427453658783N00432038WA0113801222
B1427463658785N00432040WA0113801221
B1427473658787N00432044WA0113601221
B1427483658788N00432047WA0113601220
B1427493658789N00432050WA0113301219
B1427503658791N00432052WA0113201217
B1427513658793N00432053WA0113301216
B1427523658796N00432054WA0113301215
B1427533658799N00432054WA0113501215
B1427543658803N00432054WA0113601216
B1427553658806N00432054WA0113701218
B1427563658809N00432054WA0113801219
B1427573658812N00432053WA0113901220
B1427583658816N00432051WA0113901221
B1427593658820N00432049WA0114101222
B1428003658823N00432046WA0114301223
B1428013658826N00432044WA0114501225
B1428023658829N00432041WA0114601227
B1428033658831N00432039WA0114701228
B1428053658835N00432030WA0115001231
B1428063658836N00432024WA0115001232
B1428073658836N00432016WA0115101232
B1428083658834N00432008WA0115201233
B1428093658831N00432000WA0115301234
B1428103658826N00431992WA0115401236
B1428113658821N00431986WA0115501237
B1428123658815N00431981WA0115701239
B1428133658811N00431975WA0115801240
B1428143658807N00431969WA0115701241
B1428153658804N00431962WA0115501240
B1428163658803N00431954WA0115401238
B1428173658802N00431947WA0115401237
B1428183658802N00431940WA0115401237
B1428193658802N00431936WA0115301236
B1428203658804N00431932WA0115201236
B1428213658807N00431930WA0115201235
B1428223658809N00431930WA0115201234
B1428233658812N00431931WA0115301235
B1428243658814N00431933WA0115501236
B1428253658815N00431935WA0115601237
B1428263658817N00431937WA0115601238
B1428273658819N00431939WA0115601238
B1428283658822N00431941WA0115801239
B1428293658824N00431942WA0115901240
B1428303658826N00431946WA0116301244
B1428313658827N00431947WA0116301244
B1428323658828N00431948WA0116401246
B1428333658829N00431949WA0116501247
B1428343658830N00431951WA0116401248
B1428353658831N00431953WA0116401248
B1428363658832N00431956WA0116201247
B1428373658833N00431959WA0116101246
B1428383658834N00431962WA0116001245
B1428393658837N00431964WA0115901244
B1428403658839N00431966WA0115901243
B1428413658842N00431968WA0116001243
B1428423658845N00431971WA0116101243
B1428433658848N00431972WA0116301244
B1428443658850N00431973WA0116501247
B1428453658852N00431973WA0116601249
B1428463658854N00431972WA0116801251
B1428473658856N00431971WA0116901252
B1428483658858N00431971WA0117001253
B1428493658860N00431971WA0117101254
B1428503658862N00431972WA0117101255
B1428513658864N00431973WA0117101255
B1428523658867N00431973WA0117201256
B1428533658870N00431972WA0117301256
B1428543658873N00431969WA0117301257
B1428553658875N00431964WA0117301257
B1428563658876N00431956WA0117401258
B1428573658876N00431951WA0117401258
B1428583658876N00431944WA0117301258
B1428593658875N00431937WA0117101257
B1429003658873N00431928WA0117001255
B1429013658870N00431919WA0116901254
B1429023658865N00431911WA0116901252
B1429033658858N00431904WA0116801251
B1429043658850N00431900WA0116801251
B1429053658842N00431898WA0116801251
B1429063658834N00431899WA0116901251
B1429073658829N00431901WA0116801251
B1429083658824N00431904WA0116801251
B1429093658820N00431908WA0116701250
B1429103658816N00431913WA0116701250
B1429113658814N00431917WA0116601249
B1429123658812N00431921WA0116501249
B1429133658813N00431925WA0116501248
B1429143658814N00431928WA0116401247
B1429153658816N00431930WA0116501247
B1429163658818N00431932WA0116501247
B1429173658819N00431934WA0116501248
B1429183658819N00431935WA0116601249
B1429193658820N00431936WA0116601249
B1429203658820N00431937WA0116501249
B1429213658821N00431941WA0116301247
B1429223658821N00431942WA0116401247
B1429233658821N00431946WA0116301246
B1429243658821N00431950WA0116301245
B1429253658821N00431953WA0116401246
B1429263658821N00431956WA0116401247
B1429273658821N00431958WA0116501247
B1429283658821N00431960WA0116501247
B1429293658821N00431962WA0116501248
B1429303658821N00431964WA0116401248
B1429313658821N00431965WA0116401248
B1429323658821N00431967WA0116301247
B1429333658822N00431970WA0116301247
B1429343658822N00431972WA0116301246
B1429353658823N00431975WA0116301246
B1429363658823N00431978WA0116401246
B1429373658824N00431980WA0116501247
B1429383658824N00431983WA0116601249
B1429393658825N00431984WA0116801250
B1429403658826N00431985WA0116901252
B1429413658827N00431986WA0116901253
B1429423658828N00431987WA0116901253
B1429433658829N00431987WA0117001254
B1429443658830N00431987WA0117101254
B1429453658831N00431987WA0117301256
B1429463658832N00431986WA0117301257
B1429473658833N00431985WA0117401258
B1429483658833N00431985WA0117401258
B1429493658834N00431985WA0117301258
B1429503658836N00431985WA0117401258
B1429513658837N00431986WA0117501259
B1429523658838N00431986WA0117501259
B1429533658839N00431986WA0117601260
B1429543658841N00431986WA0117701260
B1429553658843N00431986WA0117801261
B1429563658845N00431986WA0117901262
B1429573658847N00431987WA0118001264
B1429583658848N00431988WA0118201266
B1429593658850N00431989WA0118301267
B1430003658852N00431989WA0118601269
B1430013658854N00431990WA0118801270
B1430023658856N00431990WA0119101272
B1430033658858N00431990WA0119301276
B1430043658859N00431990WA0119501279
B1430053658860N00431990WA0119601281
B1430063658861N00431991WA0119701282
B1430073658862N00431992WA0119701283
B1430083658863N00431994WA0119901284
B1430093658864N00431996WA0120001285
B1430103658865N00431997WA0120201286
B1430113658867N00431998WA0120401288
B1430133658870N00432001WA0120701292
B1430143658871N00432003WA0120801294
B1430153658873N00432005WA0120901295
B1430163658874N00432007WA0121001296
B1430173658876N00432009WA0121201298
B1430183658877N00432012WA0121301299
B1430193658879N00432015WA0121501300
B1430203658880N00432017WA0121801302
B1430213658881N00432020WA0122201305
B1430223658882N00432023WA0122401308
B1430233658883N00432025WA0122801312
B1430243658884N00432028WA0123101315
B1430253658884N00432030WA0123301318
B1430263658885N00432032WA0123501320
B1430273658886N00432035WA0123801322
B1430283658887N00432038WA0123901325
B1430293658888N00432041WA0124301327
B1430303658889N00432043WA0124701331
B1430313658891N00432046WA0125001334
B1430323658892N00432049WA0125101337
B1430333658893N00432052WA0125301339
B1430343658893N00432055WA0125401341
B1430353658893N00432057WA0125601343
B1430363658894N00432059WA0125801345
B1430373658895N00432060WA0126001347
B1430383658897N00432062WA0126301351
B1430393658897N00432063WA0126501351
B1430403658898N00432065WA0126701353
B1430413658897N00432068WA0126801356
B1430423658897N00432071WA0126901357
B1430433658897N00432074WA0126901359
B1430443658897N00432078WA0126901359
B1430453658896N00432082WA0126901359
B1430463658895N00432087WA0126901359
B1430473658894N00432092WA0127001359
B1430483658894N00432098WA0127001360
B1430493658894N00432104WA0127101360
B1430503658894N00432110WA0127101361
B1430513658894N00432115WA0127201361
B1430523658895N00432120WA0127501362
B1430533658896N00432124WA0127701364
B1430543658898N00432127WA0127801366
B1430553658899N00432130WA0128001368
B1430563658900N00432134WA0128001369
B1430573658901N00432138WA0128001369
B1430583658903N00432142WA0128001369
B1430593658905N00432146WA0128201370
B1431003658906N00432150WA0128301371
B1431013658907N00432153WA0128401373
B1431023658908N00432157WA0128401374
B1431033658909N00432161WA0128301373
B1431043658910N00432166WA0128201372
B1431053658911N00432170WA0128201372
B1431063658913N00432175WA0128101371
B1431073658914N00432179WA0128101371
B1431083658916N00432184WA0128001370
B1431093658918N00432188WA0127901370
B1431103658918N00432192WA0127901369
B1431113658918N00432196WA0127701368
B1431123658918N00432200WA0127601367
B1431133658918N00432205WA0127401366
B1431143658918N00432209WA0127301364
B1431153658918N00432212WA0127201363
B1431163658918N00432216WA0126901361
B1431173658918N00432219WA0126701359
B1431183658918N00432223WA0126501356
B1431193658918N00432228WA0126301353
B1431203658918N00432234WA0126201351
B1431213658919N00432239WA0126201350
B1431223658919N00432243WA0126201350
B1431233658919N00432247WA0126201351
B1431243658920N00432250WA0126001350
B1431253658920N00432254WA0125801349
B1431263658920N00432257WA0125501347
B1431273658920N00432261WA0125301345
B1431283658920N00432266WA0125001341
B1431293658921N00432274WA0124801336
B1431303658921N00432274WA0124801336
B1431313658923N00432277WA0124801336
B1431323658925N00432279WA0124601335
B1431333658926N00432281WA0124401334
B1431343658928N00432284WA0124201332
B1431353658929N00432287WA0123901330
B1431363658931N00432290WA0123801327
B1431373658933N00432293WA0123501325
B1431383658935N00432296WA0123401323
B1431393658936N00432298WA0123201321
B1431403658937N00432299WA0123001319
B1431413658939N00432302WA0122801317
B1431423658940N00432304WA0122701315
B1431433658942N00432307WA0122501313
B1431443658944N00432310WA0122401312
B1431453658946N00432313WA0122401311
B1431463658947N00432315WA0122201311
B1431473658949N00432318WA0122201310
B1431483658950N00432322WA0122101308
B1431493658951N00432326WA0122001307
B1431503658952N00432330WA0121901306
B1431513658953N00432334WA0121901305
B1431523658955N00432338WA0121801305
B1431533658956N00432341WA0121701304
B1431543658958N00432345WA0121601304
B1431553658960N00432351WA0121501302
B1431563658961N00432353WA0121301302
B1431573658962N00432357WA0121301300
B1431583658964N00432362WA0121301300
B1431593658965N00432366WA0121301299
B1432003658966N00432371WA0121301299
B1432013658967N00432375WA0121301299
B1432023658968N00432379WA0121201299
B1432033658968N00432384WA0121201299
B1432043658969N00432389WA0121201298
B1432053658969N00432393WA0121101298
B1432063658970N00432398WA0121101297
B1432073658971N00432402WA0121001297
B1432083658972N00432407WA0120901296
B1432093658972N00432412WA0120901295
B1432103658973N00432417WA0120801295
B1432113658974N00432421WA0120801294
B1432123658974N00432426WA0120701293
B1432133658975N00432430WA0120701293
B1432143658976N00432435WA0120501292
B1432153658976N00432440WA0120401290
B1432163658977N00432445WA0120301289
B1432173658977N00432450WA0120201288
B1432183658978N00432455WA0120101287
B1432193658979N00432460WA0119901286
B1432213658981N00432471WA0119601283
B1432223658982N00432476WA0119601281
B1432233658982N00432481WA0119601281
B1432243658983N00432485WA0119501281
B1432253658984N00432488WA0119401280
B1432263658984N00432492WA0119301279
B1432273658985N00432495WA0119101277
B1432283658985N00432499WA0118801275
B1432293658985N00432504WA0118601272
B1432303658985N00432509WA0118301270
B1432313658986N00432513WA0118101267
B1432323658987N00432518WA0117901265
B1432333658988N00432522WA0117801263
B1432343658989N00432526WA0117601261
B1432353658989N00432530WA0117401259
B1432363658990N00432533WA0117201257
B1432373658990N00432536WA0116901256
B1432383658990N00432539WA0116601253
B1432393658990N00432543WA0116301250
B1432403658989N00432547WA0115901246
B1432413658988N00432551WA0115601242
B1432423658986N00432555WA0115301239
B1432433658982N00432558WA0115101236
B1432443658979N00432561WA0114701233
B1432453658975N00432565WA0114501230
B1432463658972N00432571WA0114001224
B1432473658972N00432573WA0113901224
B1432483658971N00432577WA0113701221
B1432493658969N00432582WA0113401219
B1432503658967N00432586WA0113301217
B1432513658965N00432590WA0113001215
B1432523658963N00432595WA0112601212
B1432533658961N00432601WA0112201208
B1432543658961N00432607WA0112001204
B1432553658962N00432614WA0111601200
B1432563658963N00432620WA0111501198
B1432573658963N00432626WA0111401197
B1432583658964N00432630WA0111201195
B1432593658966N00432635WA0110901193
B1433003658968N00432639WA0110501190
B1433013658971N00432643WA0110101187
B1433023658974N00432648WA0109901183
B1433033658977N00432653WA0109601179
B1433043658979N00432659WA0109201176
B1433053658981N00432664WA0108901173
B1433063658984N00432668WA0108701170
B1433073658988N00432672WA0108501167
B1433083658992N00432675WA0108301164
B1433093658996N00432679WA0107901161
B1433103659000N00432683WA0107601158
B1433113659003N00432688WA0107501156
B1433123659007N00432694WA0107201152
B1433133659009N00432696WA0107101152
B1433143659013N00432700WA0106701149
B1433153659018N00432705WA0106301146
B1433163659022N00432710WA0106101142
B1433173659026N00432715WA0105901140
B1433183659029N00432720WA0105801138
B1433193659033N00432724WA0105501136
B1433203659036N00432728WA0105301134
B1433213659039N00432733WA0105101132
B1433223659042N00432737WA0104901129
B1433233659046N00432741WA0104501126
B1433243659050N00432745WA0104201123
B1433253659054N00432749WA0104001120
B1433263659058N00432753WA0103801117
B1433273659062N00432758WA0103601115
B1433283659065N00432763WA0103301113
B1433293659069N00432768WA0103101111
B1433303659073N00432772WA0102801109
B1433313659078N00432777WA0102601106
B1433323659082N00432781WA0102401103
B1433333659086N00432787WA0102101100
B1433343659089N00432792WA0102001099
B1433353659091N00432798WA0101801097
B1433363659094N00432803WA0101701095
B1433373659099N00432812WA0101101090
B1433383659100N00432813WA0101201090
B1433393659103N00432820WA0101001088
B1433403659105N00432826WA0101001087
B1433413659107N00432832WA0100901086
B1433423659110N00432838WA0101201086
B1433433659111N00432842WA0101201087
B1433443659112N00432847WA0101201088
B1433453659112N00432852WA0101001087
B1433463659112N00432858WA0100901086
B1433473659113N00432864WA0100901085
B1433483659114N00432870WA0100901085
B1433493659115N00432875WA0101001085
B1433503659116N00432881WA0101001086
B1433513659116N00432887WA0101001086
B1433523659116N00432893WA0100901085
B1433533659116N00432899WA0100801085
B1433543659116N00432906WA0100701084
B1433553659116N00432912WA0100601083
B1433563659116N00432918WA0100601083
B1433573659116N00432924WA0100601082
B1433583659116N00432930WA0100601081
B1433593659115N00432936WA0100301080
B1434003659116N00432942WA0100201078
B1434013659117N00432949WA0100101076
B1434023659118N00432954WA0100201076
B1434033659117N00432963WA0100301077
B1434043659117N00432965WA0100301077
B1434053659115N00432970WA0100401077
B1434063659114N00432975WA0100301078
B1434073659113N00432980WA0100201077
B1434083659112N00432986WA0100101076
B1434093659111N00432992WA0100001075
B1434103659110N00432999WA0099901074
B1434113659110N00433005WA0099901073
B1434123659110N00433011WA0100001073
B1434133659109N00433017WA0099901073
B1434143659107N00433022WA0099801073
B1434153659106N00433027WA0099701072
B1434163659104N00433033WA0099501071
B1434173659103N00433040WA0099301068
B1434183659101N00433047WA0099101066
B1434193659099N00433054WA0098901064
B1434203659098N00433061WA0099101064
B1434213659097N00433067WA0099101064
B1434223659095N00433074WA0099101064
B1434233659093N00433080WA0099201064
B1434243659090N00433085WA0099201064
B1434253659088N00433091WA0099201064
B1434263659086N00433096WA0099201064
B1434273659084N00433100WA0099201065
B1434293659082N00433109WA0099101064
B1434303659081N00433114WA0099101064
B1434313659079N00433119WA0099101063
B1434323659077N00433123WA0099201064
B1434333659075N00433128WA0099201064
B1434343659074N00433132WA0099201064
B1434353659072N00433137WA0099101064
B1434363659070N00433141WA0099001063
B1434373659068N00433147WA0098901062
B1434383659066N00433153WA0098801061
B1434393659064N00433159WA0098901061
B1434403659063N00433164WA0099001062
B1434413659062N00433169WA0099101062
B1434423659059N00433174WA0099101063
B1434433659057N00433180WA0099201063
B1434443659054N00433185WA0099301064
B1434453659052N00433191WA0099501065
B1434463659051N00433197WA0099501066
B1434473659050N00433203WA0099601068
B1434483659051N00433208WA0099601069
B1434493659054N00433212WA0099701070
B1434503659058N00433214WA0099701070
B1434513659062N00433214WA0099801070
B1434523659065N00433210WA0099901071
B1434533659066N00433204WA0100001072
B1434543659062N00433194WA0099901071
B1434553659059N00433191WA0100001071
B1434563659052N00433187WA0099901071
B1434573659045N00433187WA0100101072
B1434583659038N00433190WA0100201073
B1434593659033N00433194WA0100501075
B1435003659028N00433197WA0100601077
B1435013659023N00433200WA0100701079
B1435023659018N00433202WA0100801080
B1435033659013N00433206WA0100801081
B1435043659008N00433210WA0100901081
B1435053659003N00433215WA0101201082
B1435063658998N00433220WA0101401084
B1435073658994N00433224WA0101701087
B1435083658990N00433229WA0101901090
B1435093658987N00433233WA0102001093
B1435103658983N00433238WA0102201095
B1435113658980N00433242WA0102301096
B1435123658977N00433246WA0102401097
B1435133658973N00433250WA0102401098
B1435143658971N00433255WA0102401098
B1435153658969N00433260WA0102601099
B1435163658968N00433265WA0102701100
B1435173658967N00433270WA0102801101
B1435183658967N00433275WA0102901102
B1435193658967N00433279WA0102901103
B1435203658968N00433285WA0103001104
B1435213658970N00433287WA0103001104
B1435223658973N00433289WA0103101105
B1435233658975N00433290WA0103201105
B1435243658978N00433288WA0103201106
B1435253658980N00433284WA0103301107
B1435263658982N00433278WA0103301107
B1435273658982N00433271WA0103401107
B1435283658981N00433265WA0103601109
B1435293658977N00433258WA0103601110
B1435303658972N00433253WA0103701110
B1435313658966N00433250WA0103801111
B1435323658959N00433248WA0103901112
B1435333658953N00433249WA0104001113
B1435343658947N00433250WA0104001114
B1435353658941N00433252WA0104201115
B1435363658936N00433255WA0104301116
B1435373658931N00433258WA0104401118
B1435383658926N00433261WA0104501119
B1435393658921N00433265WA0104601120
B1435403658917N00433268WA0104701122
B1435413658914N00433273WA0104701122
B1435423658911N00433278WA0104701123
B1435433658909N00433283WA0104701123
B1435443658908N00433288WA0104901123
B1435453658908N00433296WA0105101125
B1435463658908N00433297WA0105101125
B1435473658909N00433301WA0105201126
B1435483658910N00433304WA0105401128
B1435493658910N00433307WA0105501130
B1435503658911N00433311WA0105701131
B1435513658912N00433314WA0105801133
B1435523658914N00433317WA0106001134
B1435533658916N00433319WA0106101136
B1435543658918N00433321WA0106301138
B1435553658920N00433321WA0106301139
B1435563658922N00433321WA0106301140
B1435573658924N00433319WA0106301140
B1435583658926N00433315WA0106301140
B1435593658928N00433309WA0106301140
B1436003658927N00433301WA0106401140
B1436013658924N00433293WA0106501140
B1436023658920N00433285WA0106701141
B1436033658914N00433279WA0106801143
B1436043658908N00433275WA0107001145
B1436053658901N00433273WA0107301147
B1436063658894N00433273WA0107401149
B1436073658887N00433273WA0107501151
B1436083658881N00433275WA0107801153
B1436093658876N00433279WA0108101155
B1436103658871N00433284WA0108201157
B1436113658866N00433292WA0108401160
B1436123658865N00433294WA0108501160
B1436133658863N00433300WA0108701162
B1436143658862N00433305WA0108801164
B1436153658861N00433310WA0109001166
B1436163658861N00433315WA0109101167
B1436173658861N00433319WA0109201168
B1436183658862N00433323WA0109301169
B1436193658863N00433327WA0109301170
B1436203658864N00433331WA0109501171
B1436213658864N00433335WA0109501173
B1436223658865N00433338WA0109501173
B1436233658866N00433342WA0109501174
B1436243658867N00433344WA0109501173
B1436253658869N00433346WA0109401173
B1436263658872N00433347WA0109301172
B1436273658874N00433347WA0109301171
B1436283658877N00433348WA0109301171
B1436293658879N00433349WA0109401171
B1436303658881N00433351WA0109401172
B1436313658881N00433353WA0109501172
B1436323658882N00433356WA0109501173
B1436333658882N00433360WA0109501173
B1436343658882N00433364WA0109601173
B1436353658882N00433367WA0109601174
B1436373658882N00433373WA0109701174
B1436383658882N00433377WA0109601174
B1436393658881N00433381WA0109501174
B1436403658880N00433386WA0109501173
B1436413658880N00433390WA0109501173
B1436423658880N00433394WA0109401172
B1436433658880N00433397WA0109401172
B1436443658881N00433400WA0109401172
B1436453658882N00433402WA0109501172
B1436463658883N00433404WA0109401172
B1436473658884N00433405WA0109401172
B1436483658885N00433406WA0109301172
B1436493658887N00433406WA0109201170
B1436503658890N00433406WA0109101169
B1436513658893N00433405WA0109001168
B1436523658895N00433403WA0109101168
B1436533658897N00433401WA0109101168
B1436543658898N00433397WA0109001168
B1436553658898N00433392WA0108901167
B1436563658897N00433384WA0108701166
B1436573658895N00433377WA0108701165
B1436583658890N00433370WA0108701164
B1436593658884N00433364WA0108801165
B1437003658878N00433361WA0108801165
B1437013658870N00433358WA0108701165
B1437023658859N00433358WA0108801165
B1437033658855N00433359WA0108901165
B1437043658848N00433362WA0108901166
B1437053658842N00433367WA0109001166
B1437063658838N00433372WA0109001166
B1437073658834N00433378WA0109001167
B1437083658831N00433384WA0109101168
B1437093658829N00433389WA0109001168
B1437103658828N00433395WA0109001168
B1437113658826N00433401WA0109001168
B1437123658824N00433407WA0109101168
B1437133658823N00433412WA0109101169
B1437143658820N00433418WA0109201169
B1437153658818N00433423WA0109401170
B1437163658816N00433429WA0109501171
B1437173658814N00433434WA0109801172
B1437183658812N00433439WA0110001175
B1437193658812N00433444WA0110101177
B1437203658811N00433447WA0110201179
B1437213658811N00433450WA0110201180
B1437223658810N00433454WA0110201180
B1437233658809N00433457WA0110101181
B1437243658807N00433460WA0110001180
B1437253658807N00433464WA0110001179
B1437263658807N00433467WA0110001178
B1437273658806N00433472WA0110101178
B1437283658804N00433477WA0110301181
B1437293658802N00433480WA0110301181
B1437303658800N00433484WA0110301181
B1437313658799N00433489WA0110501182
B1437323658799N00433494WA0110701182
B1437333658799N00433499WA0110901184
B1437343658800N00433503WA0111201187
B1437353658800N00433506WA0111501189
B1437363658800N00433510WA0111801193
B1437373658802N00433512WA0112101196
B1437383658804N00433514WA0112401199
B1437393658806N00433516WA0112601203
B1437403658808N00433517WA0113001206
B1437413658808N00433519WA0113101209
B1437423658808N00433521WA0113201212
B1437433658808N00433524WA0113201213
B1437443658808N00433529WA0113301213
B1437453658808N00433534WA0113701213
B1437463658808N00433540WA0113901215
B1437473658808N00433546WA0114501219
B1437483658808N00433550WA0115101226
B1437493658809N00433551WA0115401231
B1437503658810N00433553WA0115701235
B1437513658812N00433556WA0115901238
B1437523658813N00433562WA0116201240
B1437533658816N00433572WA0116801246
B1437543658817N00433573WA0116901246
B1437553658819N00433577WA0117201250
B1437563658822N00433579WA0117501254
B1437573658825N00433580WA0117801257
B1437583658828N00433580WA0117901260
B1437593658830N00433582WA0117901262
B1438003658831N00433586WA0117901263
B1438013658832N00433591WA0118001263
B1438023658833N00433595WA0118101264
B1438033658833N00433599WA0118201265
B1438043658833N00433601WA0118201266
B1438053658833N00433604WA0118201267
B1438063658833N00433608WA0118101266
B1438073658833N00433613WA0118101265
B1438083658832N00433617WA0118201265
B1438093658831N00433621WA0118301266
B1438103658830N00433624WA0118301267
B1438113658830N00433628WA0118301267
B1438123658830N00433632WA0118301266
B1438133658830N00433637WA0118501267
B1438143658830N00433641WA0118801268
B1438153658830N00433645WA0119001270
B1438163658830N00433648WA0119301273
B1438173658830N00433652WA0119501275
B1438183658830N00433655WA0119701278
B1438193658832N00433661WA0120201284
B1438203658832N00433663WA0120401284
B1438213658833N00433667WA0120801287
B1438223658833N00433671WA0121101291
B1438233658833N00433675WA0121401295
B1438243658834N00433678WA0121701298
B1438253658834N00433681WA0122001301
B1438263658835N00433684WA0122201304
B1438273658836N00433687WA0122401307
B1438283658836N00433691WA0122601309
B1438293658837N00433694WA0122801311
B1438303658837N00433697WA0123001313
B1438313658838N00433701WA0123301315
B1438323658838N00433705WA0123601318
B1438333658837N00433709WA0123801321
B1438343658837N00433713WA0124101324
B1438353658837N00433717WA0124601327
B1438363658837N00433721WA0125101332
B1438373658836N00433724WA0125501337
B1438383658835N00433727WA0125801341
B1438393658834N00433730WA0126101345
B1438403658833N00433732WA0126201347
B1438413658832N00433735WA0126301349
B1438423658831N00433738WA0126401350
B1438433658831N00433741WA0126601352
B1438453658831N00433747WA0127001356
B1438463658832N00433749WA0127301358
B1438473658831N00433752WA0127501360
B1438483658831N00433756WA0127601362
B1438493658831N00433759WA0127701364
B1438503658831N00433763WA0127801365
B1438513658832N00433767WA0127901366
B1438523658832N00433771WA0128101367
B1438533658833N00433775WA0128201368
B1438543658834N00433779WA0128401370
B1438553658835N00433783WA0128601372
B1438563658837N00433787WA0128701374
B1438573658838N00433791WA0128901376
B1438583658839N00433796WA0129101377
B1438593658839N00433800WA0129201379
B1439003658840N00433805WA0129301381
B1439013658840N00433810WA0129301381
B1439023658840N00433814WA0129401382
B1439033658840N00433820WA0129401383
B1439043658841N00433825WA0129401383
B1439053658843N00433830WA0129501383
B1439063658844N00433835WA0129601384
B1439073658845N00433840WA0129701385
B1439083658845N00433845WA0129701386
B1439093658845N00433850WA0129801386
B1439103658845N00433857WA0129601386
B1439113658845N00433860WA0129501386
B1439123658844N00433865WA0129401384
B1439133658844N00433870WA0129201383
B1439143658844N00433875WA0129001381
B1439153658845N00433880WA0128801379
B1439163658846N00433885WA0128601377
B1439173658847N00433889WA0128501376
B1439183658848N00433894WA0128401374
B1439193658849N00433898WA0128201372
B1439203658849N00433903WA0128001371
B1439213658850N00433908WA0127801369
B1439223658851N00433913WA0127601366
B1439233658853N00433918WA0127401364
B1439243658854N00433923WA0127201362
B1439253658855N00433928WA0127001361
B1439263658855N00433932WA0126901359
B1439273658855N00433937WA0126701357
B1439283658856N00433941WA0126501354
B1439293658857N00433946WA0126301352
B1439303658858N00433951WA0126301351
B1439313658859N00433956WA0126101350
B1439323658860N00433961WA0126101349
B1439333658861N00433966WA0125901348
B1439343658862N00433971WA0125701346
B1439353658863N00433975WA0125501344
B1439363658866N00433982WA0125301340
B1439373658868N00433985WA0125201340
B1439383658870N00433990WA0125101338
B1439393658872N00433995WA0125101337
B1439403658874N00433999WA0125001336
B1439413658876N00434004WA0124901336
B1439423658878N00434007WA0124801335
B1439433658880N00434011WA0124501334
B1439443658883N00434014WA0124301332
B1439453658885N00434017WA0123901329
B1439463658887N00434021WA0123801326
B1439473658889N00434025WA0123601323
B1439483658890N00434029WA0123501321
B1439493658890N00434033WA0123401320
B1439503658891N00434037WA0123201318
B1439513658893N00434040WA0123001317
B1439523658894N00434043WA0122701315
B1439533658895N00434047WA0122401312
B1439543658896N00434051WA0122201310
B1439553658896N00434055WA0121901307
B1439563658897N00434059WA0121701304
B1439573658898N00434063WA0121501301
B1439583658899N00434069WA0121201299
B1439593658899N00434074WA0121101297
B1440003658899N00434078WA0121001295
B1440013658898N00434085WA0120601293
B1440023658898N00434086WA0120601293
B1440033658898N00434090WA0120201290
B1440043658898N00434095WA0119901286
B1440053658898N00434101WA0119801283
B1440063658897N00434106WA0119701282
B1440073658895N00434111WA0119601281
B1440083658893N00434115WA0119501281
B1440093658892N00434120WA0119401280
B1440103658891N00434125WA0119301278
B1440113658890N00434130WA0119001276
B1440123658889N00434134WA0118901275
B1440133658888N00434139WA0118601273
B1440143658887N00434143WA0118401271
B1440153658886N00434148WA0118001268
B1440163658886N00434155WA0117801265
B1440173658884N00434162WA0117401261
B1440183658883N00434169WA0117201258
B1440193658882N00434176WA0117101256
B1440203658881N00434182WA0117101255
B1440213658880N00434188WA0116901253
B1440223658880N00434194WA0116701251
B1440233658878N00434201WA0116501249
B1440243658877N00434208WA0116401247
B1440253658876N00434215WA0116201245
B1440263658876N00434221WA0116201244
B1440273658876N00434228WA0116301244
B1440283658875N00434230WA0116301244
B1440293658873N00434234WA0116201244
B1440303658871N00434238WA0116101243
B1440313658869N00434243WA0115901242
B1440323658866N00434248WA0115801240
B1440333658864N00434254WA0115701239
B1440343658860N00434258WA0115901239
B1440353658856N00434262WA0115901240
B1440363658853N00434265WA0115901241
B1440373658850N00434268WA0115901241
B1440383658848N00434271WA0115801241
B1440393658845N00434274WA0115801241
B1440403658843N00434278WA0115801240
B1440413658841N00434281WA0115801240
B1440423658839N00434284WA0115801241
B1440433658837N00434286WA0115801240
B1440443658836N00434289WA0115701240
B1440453658834N00434292WA0115601239
B1440463658832N00434296WA0115501238
B1440473658829N00434300WA0115401237
B1440483658827N00434303WA0115401236
B1440493658825N00434307WA0115301236
B1440503658824N00434310WA0115201235
B1440513658823N00434313WA0115201234
B1440533658820N00434319WA0115001232
B1440543658817N00434322WA0114801231
B1440553658816N00434326WA0114701230
B1440563658814N00434330WA0114501228
B1440573658813N00434334WA0114401226
B1440583658811N00434338WA0114401225
B1440593658809N00434342WA0114401224
B1441003658806N00434346WA0114501225
B1441013658803N00434348WA0114601226
B1441023658801N00434350WA0114601227
B1441033658799N00434352WA0114601227
B1441043658798N00434355WA0114501226
B1441053658795N00434357WA0114201225
B1441063658792N00434360WA0114001223
B1441073658787N00434364WA0113901221
B1441083658782N00434367WA0114001219
B1441093658778N00434370WA0114001220
B1441103658775N00434373WA0114001221
B1441113658772N00434376WA0113901221
B1441123658770N00434380WA0113901220
B1441133658769N00434383WA0113801220
B1441143658769N00434386WA0113801219
B1441153658770N00434388WA0113601218
B1441163658773N00434387WA0113401216
B1441173658777N00434384WA0113301214
B1441183658780N00434372WA0113201212
B1441193658780N00434370WA0113201212
B1441203658779N00434360WA0113001211
B1441213658776N00434351WA0112901210
B1441223658772N00434342WA0112801208
B1441233658767N00434334WA0112801207
B1441243658761N00434327WA0112801207
B1441253658755N00434322WA0112801207
B1441263658748N00434319WA0112701207
B1441273658741N00434316WA0112701206
B1441283658734N00434315WA0112701206
B1441293658727N00434314WA0112701206
B1441303658721N00434315WA0112701207
B1441313658715N00434318WA0112701206
B1441323658711N00434321WA0112801206
B1441333658710N00434326WA0112801206
B1441343658710N00434330WA0112801206
B1441353658712N00434331WA0112801207
B1441363658714N00434332WA0112901207
B1441373658717N00434330WA0112901208
B1441383658719N00434327WA0112901208
B1441393658722N00434324WA0112801208
B1441403658724N00434319WA0112801207
B1441413658725N00434313WA0112701207
B1441423658726N00434307WA0112601206
B1441433658727N00434299WA0112501205
B1441443658726N00434288WA0112401202
B1441453658726N00434281WA0112401202
B1441463658725N00434273WA0112401201
B1441473658724N00434264WA0112401201
B1441483658723N00434256WA0112301201
B1441493658721N00434248WA0112201200
B1441503658720N00434239WA0112101199
B1441513658718N00434230WA0112001198
B1441523658715N00434221WA0112001198
B1441533658712N00434213WA0112001197
B1441543658709N00434205WA0111801196
B1441553658705N00434197WA0111801196
B1441563658702N00434189WA0111801195
B1441573658699N00434181WA0111801195
B1441583658696N00434173WA0111801195
B1441593658693N00434165WA0111701195
B1442003658692N00434158WA0111701195
B1442013658691N00434150WA0111701194
B1442023658691N00434142WA0111601194
B1442033658692N00434135WA0111501193
B1442043658692N00434127WA0111401193
B1442053658693N00434120WA0111301192
B1442063658694N00434114WA0111201191
B1442073658695N00434107WA0111201189
B1442083658695N00434101WA0111101189
B1442093658695N00434089WA0111001188
B1442103658695N00434088WA0110901188
B1442113658694N00434080WA0110901187
B1442123658691N00434073WA0110901186
B1442133658689N00434066WA0110801186
B1442143658688N00434059WA0110801185
B1442153658686N00434052WA0110701185
B1442163658686N00434045WA0110601184
B1442173658685N00434039WA0110501183
B1442183658685N00434033WA0110301182
B1442193658684N00434027WA0110101181
B1442203658683N00434020WA0110001179
B1442213658682N00434012WA0109901177
B1442223658681N00434005WA0109701175
B1442233658679N00433998WA0109601173
B1442243658678N00433991WA0109401172
B1442253658676N00433983WA0109201170
B1442263658674N00433976WA0108901167
B1442273658672N00433968WA0108701165
B1442283658670N00433961WA0108701164
B1442293658668N00433954WA0108501162
B1442303658666N00433947WA0108301161
B1442313658664N00433940WA0108101159
B1442323658661N00433933WA0108001157
B1442333658659N00433926WA0107901155
B1442343658658N00433919WA0107701154
B1442353658658N00433909WA0107601152
B1442363658658N00433906WA0107501152
B1442373658658N00433900WA0107501151
B1442383658658N00433893WA0107401150
B1442393658658N00433886WA0107401149
B1442403658658N00433879WA0107401148
B1442413658658N00433871WA0107401148
B1442423658659N00433864WA0107501149
B1442433658661N00433858WA0107501150
B1442443658662N00433852WA0107501151
B1442453658664N00433846WA0107601152
B1442463658667N00433841WA0107701152
B1442473658670N00433837WA0107701153
B1442483658674N00433836WA0107701153
B1442493658678N00433836WA0107701153
B1442503658680N00433838WA0107801153
B1442513658682N00433840WA0107901154
B1442523658683N00433843WA0108001155
B1442533658683N00433847WA0107901155
B1442543658683N00433851WA0107901155
B1442553658683N00433856WA0108001155
B1442563658682N00433861WA0108101155
B1442573658681N00433865WA0108301157
B1442583658680N00433869WA0108401158
B1442593658681N00433872WA0108401160
B1443013658683N00433880WA0108401159
B1443023658684N00433885WA0108501159
B1443033658684N00433890WA0108601160
B1443043658685N00433893WA0108801162
B1443053658687N00433896WA0108901164
B1443063658689N00433897WA0109001165
B1443073658693N00433898WA0109001166
B1443083658697N00433897WA0109101167
B1443093658700N00433894WA0109201168
B1443103658703N00433889WA0109401169
B1443113658704N00433882WA0109401170
B1443123658704N00433875WA0109501171
B1443133658702N00433868WA0109701172
B1443143658699N00433861WA0109801173
B1443153658694N00433855WA0109801174
B1443163658689N00433851WA0109901174
B1443173658683N00433848WA0110001175
B1443183658676N00433847WA0110001176
B1443193658670N00433848WA0110001176
B1443203658665N00433851WA0110101177
B1443213658661N00433856WA0110201178
B1443223658660N00433861WA0110501179
B1443233658659N00433866WA0110601181
B1443243658659N00433870WA0110801183
B1443253658659N00433874WA0111001185
B1443263658659N00433881WA0111201188
B1443273658659N00433882WA0111201188
B1443283658660N00433886WA0111301190
B1443293658662N00433890WA0111401191
B1443303658664N00433894WA0111501192
B1443313658666N00433896WA0111601193
B1443323658667N00433899WA0111701194
B1443333658670N00433901WA0111701195
B1443343658673N00433902WA0111701195
B1443353658676N00433901WA0111701195
B1443363658680N00433897WA0111701195
B1443373658681N00433890WA0111801195
B1443383658681N00433882WA0111901196
B1443393658677N00433875WA0111901196
B1443403658671N00433869WA0112001197
B1443413658664N00433867WA0112001198
B1443423658656N00433868WA0112201198
B1443433658650N00433872WA0112301199
B1443443658646N00433877WA0112501200
B1443453658644N00433882WA0112501202
B1443463658643N00433886WA0112501204
B1443473658642N00433890WA0112601204
B1443483658642N00433894WA0112601205
B1443493658642N00433897WA0112601205
B1443503658642N00433900WA0112501205
B1443513658643N00433903WA0112501205
B1443523658644N00433907WA0112401203
B1443533658645N00433909WA0112301203
B1443543658647N00433911WA0112201202
B1443553658649N00433911WA0112101201
B1443563658651N00433910WA0111901200
B1443573658654N00433908WA0111701198
B1443583658656N00433905WA0111601196
B1443593658659N00433902WA0111401195
B1444003658661N00433898WA0111401194
B1444013658662N00433894WA0111301193
B1444023658663N00433890WA0111201192
B1444033658664N00433884WA0111201191
B1444043658665N00433879WA0111201190
B1444053658666N00433873WA0111201190
B1444063658668N00433868WA0111201190
B1444073658670N00433861WA0111201190
B1444083658671N00433855WA0111301190
B1444093658672N00433848WA0111601192
B1444103658673N00433841WA0111801194
B1444113658674N00433836WA0112101196
B1444123658675N00433831WA0112201200
B1444133658676N00433827WA0112101201
B1444143658677N00433823WA0112001200
B1444153658679N00433818WA0111901198
B1444163658682N00433814WA0111801197
B1444173658687N00433813WA0111501195
B1444183658687N00433814WA0111501195
B1444193658689N00433818WA0111301193
B1444203658689N00433823WA0111301192
B1444213658687N00433828WA0111201191
B1444223658685N00433832WA0111201191
B1444233658683N00433835WA0111201191
B1444243658681N00433839WA0111201191
B1444253658679N00433845WA0111201190
B1444263658679N00433852WA0111201190
B1444273658679N00433858WA0111101190
B1444283658678N00433863WA0111201190
B1444293658678N00433868WA0111201191
B1444303658677N00433873WA0111201191
B1444313658676N00433877WA0111201191
B1444323658676N00433881WA0111201191
B1444333658678N00433884WA0111101190
B1444343658679N00433887WA0111201190
B1444353658681N00433890WA0111201190
B1444363658682N00433892WA0111301191
B1444373658683N00433893WA0111201192
B1444383658685N00433894WA0111201192
B1444393658687N00433895WA0111201191
B1444403658690N00433895WA0111301191
B1444413658693N00433895WA0111401191
B1444423658695N00433894WA0111401192
B1444433658698N00433892WA0111501194
B1444443658700N00433891WA0111501194
B1444453658702N00433889WA0111501194
B1444463658706N00433885WA0111401194
B1444473658708N00433882WA0111401193
B1444483658711N00433878WA0111301193
B1444493658713N00433873WA0111201193
B1444503658715N00433868WA0111001191
B1444513658717N00433861WA0110801189
B1444523658719N00433855WA0110601187
B1444533658720N00433849WA0110601185
B1444543658722N00433844WA0110501184
B1444553658724N00433841WA0110401184
B1444563658727N00433840WA0110201183
B1444573658729N00433840WA0110001181
B1444583658732N00433840WA0110001179
B1444593658735N00433842WA0110001178
B1445003658737N00433844WA0110001178
B1445013658739N00433847WA0110001178
B1445023658741N00433850WA0109801177
B1445033658742N00433853WA0109701175
B1445043658744N00433856WA0109601175
B1445053658746N00433859WA0109601174
B1445063658747N00433862WA0109501174
B1445073658749N00433864WA0109401173
B1445093658753N00433868WA0109201171
B1445103658755N00433869WA0109001170
B1445113658757N00433871WA0108801169
B1445123658759N00433872WA0108701167
B1445133658761N00433873WA0108601165
B1445143658763N00433875WA0108401163
B1445153658765N00433877WA0108201162
B1445163658767N00433879WA0108001160
B1445173658769N00433881WA0107801158
B1445183658770N00433883WA0107701156
B1445193658772N00433885WA0107501155
B1445203658774N00433887WA0107401153
B1445213658776N00433889WA0107201151
B1445223658779N00433890WA0107101150
B1445233658780N00433893WA0106901148
B1445243658782N00433895WA0106701147
B1445253658784N00433897WA0106601145
B1445263658786N00433899WA0106401144
B1445273658788N00433901WA0106301142
B1445283658789N00433904WA0106101140
B1445293658789N00433906WA0105901138
B1445303658790N00433909WA0105701136
B1445313658791N00433912WA0105501133
B1445323658792N00433915WA0105301132
B1445333658793N00433917WA0105101130
B1445343658795N00433922WA0104801126
B1445353658796N00433922WA0104801126
B1445363658797N00433925WA0104801124
B1445373658798N00433928WA0104501123
B1445383658798N00433931WA0104301122
B1445393658799N00433933WA0104101120
B1445403658800N00433935WA0103901117
B1445413658802N00433937WA0103701115
B1445423658802N00433939WA0103501113
B1445433658801N00433941WA0103201111
B1445443658798N00433943WA0102801108
B1445453658795N00433946WA0102501104
B1445463658791N00433949WA0102201100
B1445473658787N00433951WA0102001097
B1445483658783N00433954WA0101701095
B1445493658779N00433957WA0101601092
B1445503658775N00433961WA0101501090
B1445513658771N00433964WA0101401088
B1445523658767N00433967WA0101301087
B1445533658763N00433969WA0101101086
B1445543658758N00433971WA0101101085
B1445553658753N00433972WA0101001084
B1445563658749N00433974WA0101001083
B1445573658744N00433977WA0100901083
B1445583658740N00433979WA0100901083
B1445593658736N00433982WA0100801083
B1446003658731N00433985WA0100701081
B1446013658729N00433987WA0100701081
B1446023658726N00433991WA0100601080
B1446033658724N00433995WA0100601080
B1446043658722N00433998WA0100601080
B1446053658720N00434001WA0100601080
B1446063658718N00434004WA0100501079
B1446073658715N00434007WA0100401078
B1446083658712N00434011WA0100301077
B1446093658710N00434015WA0100201076
B1446103658709N00434018WA0100201076
B1446113658708N00434022WA0100201075
B1446123658706N00434027WA0100201075
B1446133658703N00434032WA0100101074
B1446143658702N00434037WA0100101074
B1446153658701N00434042WA0100101074
B1446163658700N00434047WA0100001074
B1446173658699N00434051WA0099901073
B1446183658699N00434054WA0099801072
B1446193658699N00434059WA0099601071
B1446203658699N00434064WA0099601069
B1446213658701N00434069WA0099501068
B1446223658702N00434074WA0099501068
B1446233658704N00434078WA0099601068
B1446243658707N00434082WA0099501068
B1446253658711N00434089WA0099501067
B1446263658711N00434090WA0099501067
B1446273658713N00434094WA0099501067
B1446283658714N00434098WA0099501067
B1446293658715N00434102WA0099401067
B1446303658715N00434105WA0099301067
B1446313658716N00434108WA0099101065
B1446323658717N00434112WA0098901063
B1446333658719N00434115WA0098801062
B1446343658720N00434119WA0098601060
B1446353658722N00434122WA0098501059
B1446363658724N00434125WA0098501058
B1446373658725N00434128WA0098401057
B1446383658727N00434131WA0098301056
B1446393658729N00434134WA0098201055
B1446403658731N00434136WA0098001054
B1446413658734N00434138WA0097701052
B1446423658737N00434141WA0097501050
B1446433658739N00434144WA0097301047
B1446443658742N00434148WA0097301045
B1446453658745N00434152WA0097201043
B1446463658747N00434156WA0097101042
B1446473658749N00434160WA0097201042
B1446483658751N00434164WA0097301043
B1446493658755N00434166WA0097301044
B1446503658759N00434169WA0097301044
B1446513658764N00434174WA0097701047
B1446523658765N00434176WA0097801047
B1446533658766N00434181WA0097901048
B1446543658767N00434186WA0098001050
B1446553658769N00434190WA0098101051
B1446563658771N00434195WA0098201052
B1446573658772N00434200WA0098401053
B1446583658772N00434206WA0098501055
B1446593658772N00434211WA0098701057
B1447003658772N00434216WA0098901059
B1447013658773N00434221WA0099001060
B1447023658774N00434226WA0099101061
B1447033658775N00434230WA0099101062
B1447043658776N00434236WA0099101063
B1447053658776N00434242WA0099101062
B1447063658776N00434249WA0099201062
B1447073658776N00434255WA0099401063
B1447083658777N00434261WA0099501065
B1447093658778N00434266WA0099601067
B1447103658779N00434271WA0099701068
B1447113658780N00434275WA0099801070
B1447123658782N00434279WA0099801071
B1447133658784N00434282WA0099801071
B1447143658789N00434283WA0099601070
B1447153658794N00434280WA0099501068
B1447173658799N00434268WA0099501067
B1447183658797N00434260WA0099501067
B1447193658793N00434253WA0099501066
B1447203658787N00434248WA0099501066
B1447213658781N00434244WA0099801067
B1447223658776N00434241WA0100001069
B1447233658772N00434237WA0100101071
B1447243658769N00434233WA0100201073
B1447253658764N00434230WA0100201073
B1447263658758N00434227WA0100201073
B1447273658752N00434225WA0100401073
B1447283658746N00434226WA0100601074
B1447293658741N00434228WA0100601076
B1447303658736N00434231WA0100801078
B1447313658733N00434235WA0100901080
B1447323658730N00434240WA0101001081
B1447333658728N00434246WA0101101082
B1447343658727N00434251WA0101201083
B1447353658728N00434257WA0101301084
B1447363658728N00434262WA0101501086
B1447373658728N00434268WA0101501087
B1447383658728N00434273WA0101501088
B1447393658728N00434278WA0101501088
B1447403658729N00434284WA0101501088
B1447413658730N00434289WA0101701088
B1447423658733N00434296WA0101701090
B1447433658733N00434297WA0101701090
B1447443658735N00434301WA0101701091
B1447453658737N00434305WA0101601091
B1447463658739N00434309WA0101501090
B1447473658741N00434314WA0101501089
B1447483658744N00434318WA0101501088
B1447493658746N00434322WA0101501089
B1447503658748N00434327WA0101601089
B1447513658749N00434331WA0101601089
B1447523658750N00434336WA0101601090
B1447533658751N00434340WA0101501090
B1447543658751N00434344WA0101501089
B1447553658752N00434348WA0101301089
B1447563658754N00434353WA0101201087
B1447573658754N00434357WA0101101086
B1447583658754N00434362WA0101001085
B1447593658755N00434366WA0100801084
B1448003658755N00434371WA0100701083
B1448013658756N00434375WA0100601081
B1448023658756N00434380WA0100501080
B1448033658756N00434385WA0100401079
B1448043658757N00434391WA0100301078
B1448053658757N00434395WA0100101077
B1448063658758N00434400WA0100001075
B1448073658759N00434405WA0099801074
B1448083658760N00434413WA0099701072
B1448093658760N00434418WA0099701072
B1448103658760N00434423WA0099601071
B1448113658761N00434429WA0099501071
B1448123658762N00434434WA0099501070
B1448133658762N00434440WA0099301068
B1448143658763N00434447WA0099201067
B1448153658762N00434453WA0099001066
B1448163658762N00434460WA0099001065
B1448173658763N00434466WA0098901064
B1448183658763N00434471WA0098801063
B1448193658764N00434476WA0098701062
B1448203658764N00434481WA0098601061
B1448213658764N00434487WA0098501059
B1448223658764N00434493WA0098401057
B1448233658764N00434499WA0098401057
B1448243658765N00434504WA0098401058
B1448253658765N00434510WA0098401058
B1448263658766N00434515WA0098301057
B1448273658766N00434521WA0098201056
B1448283658767N00434528WA0098201054
B1448293658767N00434535WA0098401055
B1448303658768N00434540WA0098501056
B1448313658769N00434544WA0098601057
B1448323658770N00434549WA0098801059
B1448333658771N00434558WA0099001062
B1448343658771N00434559WA0099101062
B1448353658772N00434564WA0099201063
B1448363658773N00434569WA0099401064
B1448373658774N00434573WA0099501066
B1448383658775N00434578WA0099701068
B1448393658776N00434583WA0100001070
B1448403658777N00434588WA0100301072
B1448413658778N00434592WA0100501075
B1448423658778N00434597WA0100801078
B1448433658778N00434601WA0101101081
B1448443658779N00434605WA0101401085
B1448453658781N00434609WA0101701088
B1448463658782N00434613WA0102001090
B1448473658783N00434618WA0102301093
B1448483658783N00434622WA0102701097
B1448493658784N00434626WA0103001100
B1448503658785N00434631WA0103301104
B1448513658786N00434636WA0103701108
B1448523658788N00434641WA0104001111
B1448533658790N00434645WA0104301115
B1448543658792N00434650WA0104701119
B1448553658793N00434654WA0105101123
B1448563658794N00434659WA0105301126
B1448573658794N00434664WA0105401129
B1448583658794N00434669WA0105501130
B1448593658794N00434677WA0105501133
B1449003658794N00434679WA0105601133
B1449013658795N00434684WA0105701133
B1449023658796N00434690WA0105801134
B1449033658797N00434695WA0106201135
B1449043658797N00434701WA0106301138
B1449053658796N00434707WA0106501140
B1449063658796N00434712WA0106701142
B1449073658798N00434716WA0106801145
B1449083658800N00434719WA0106901146
B1449093658803N00434724WA0107201147
B1449103658804N00434730WA0107501149
B1449113658803N00434736WA0107701152
B1449123658802N00434741WA0107901155
B1449133658801N00434747WA0108101157
B1449143658801N00434753WA0108101159
B1449153658801N00434759WA0108201159
B1449163658800N00434766WA0108401160
B1449173658799N00434773WA0108701162
B1449183658797N00434780WA0109101165
B1449193658796N00434786WA0109301169
B1449203658797N00434792WA0109701172
B1449213658798N00434795WA0110001175
B1449223658799N00434798WA0110401179
B1449233658800N00434802WA0110701183
B1449253658800N00434811WA0111101188
B1449263658800N00434815WA0111201191
B1449273658802N00434819WA0111401192
B1449283658804N00434823WA0111601194
B1449293658806N00434828WA0112001196
B1449303658806N00434833WA0112301199
B1449313658805N00434837WA0112701203
B1449323658804N00434841WA0113001207
B1449333658804N00434844WA0113201211
B1449343658803N00434848WA0113301213
B1449353658803N00434853WA0113401215
B1449363658802N00434858WA0113601216
B1449373658801N00434864WA0113801217
B1449383658801N00434870WA0114001219
B1449393658801N00434875WA0114301222
B1449403658802N00434879WA0114701225
B1449413658803N00434881WA0115001228
B1449423658805N00434884WA0115201231
B1449433658805N00434886WA0115301233
B1449443658806N00434889WA0115401235
B1449453658806N00434892WA0115401236
B1449463658805N00434896WA0115501237
B1449473658805N00434901WA0115401237
B1449483658805N00434905WA0115401237
B1449493658805N00434910WA0115301236
B1449503658807N00434919WA0115301235
B1449513658807N00434920WA0115401235
B1449523658808N00434925WA0115501236
B1449533658808N00434929WA0115701237
B1449543658808N00434933WA0115901239
B1449553658808N00434936WA0115901241
B1449563658808N00434939WA0115901241
B1449573658808N00434941WA0115901241
B1449583658808N00434944WA0115801241
B1449593658807N00434948WA0115701241
B1450003658805N00434952WA0115601239
B1450013658804N00434957WA0115501238
B1450023658803N00434961WA0115501237
B1450033658802N00434965WA0115601237
B1450043658802N00434968WA0115601238
B1450053658802N00434971WA0115601238
B1450063658802N00434975WA0115601238
B1450073658801N00434980WA0115601238
B1450083658801N00434985WA0115801238
B1450093658801N00434989WA0116001240
B1450103658801N00434992WA0116201242
B1450113658801N00434996WA0116301244
B1450123658801N00435000WA0116401245
B1450133658800N00435005WA0116501246
B1450143658800N00435009WA0116601247
B1450153658801N00435013WA0116701249
B1450163658802N00435015WA0117001252
B1450173658804N00435016WA0117101252
B1450183658806N00435016WA0117301254
B1450193658808N00435014WA0117501255
B1450203658809N00435010WA0117501257
B1450213658811N00435005WA0117601257
B1450223658812N00434998WA0117601258
B1450233658812N00434990WA0117701258
B1450243658810N00434981WA0117801258
B1450253658806N00434972WA0117901259
B1450263658799N00434965WA0117901259
B1450273658790N00434962WA0117901259
B1450283658783N00434964WA0118001260
B1450293658777N00434967WA0118301262
B1450303658774N00434971WA0118401264
B1450313658771N00434975WA0118601266
B1450323658769N00434979WA0118801268
B1450333658767N00434983WA0118901270
B1450343658765N00434987WA0119101271
B1450353658764N00434990WA0119101273
B1450363658764N00434992WA0119201274
B1450373658764N00434993WA0119301275
B1450383658763N00434995WA0119101276
B1450393658761N00434997WA0119001275
B1450403658760N00435000WA0118901274
B1450413658759N00435005WA0118701271
B1450423658759N00435006WA0118701271
B1450433658759N00435009WA0118501270
B1450443658759N00435013WA0118401269
B1450453658760N00435016WA0118401268
B1450463658760N00435018WA0118201267
B1450473658760N00435020WA0118101266
B1450483658760N00435022WA0117901264
B1450493658760N00435025WA0117801263
B1450503658761N00435028WA0117701261
B1450513658760N00435032WA0117601259
B1450523658759N00435036WA0117501259
B1450533658758N00435039WA0117501258
B1450543658757N00435044WA0117501258
B1450553658756N00435049WA0117501257
B1450563658755N00435053WA0117701257
B1450573658753N00435058WA0117901259
B1450583658752N00435062WA0117901260
B1450593658751N00435065WA0117901262
B1451003658752N00435068WA0118001262
B1451013658752N00435070WA0118101263
B1451023658752N00435073WA0118101264
B1451033658752N00435076WA0118101264
B1451043658751N00435080WA0118101265
B1451053658751N00435083WA0118301265
B1451063658752N00435086WA0118401266
B1451073658753N00435090WA0118401267
B1451083658753N00435091WA0118501267
B1451093658753N00435094WA0118601268
B1451103658754N00435097WA0118601269
B1451113658754N00435100WA0118701270
B1451123658755N00435102WA0118801271
B1451133658755N00435105WA0118901271
B1451143658756N00435108WA0119001272
B1451153658757N00435111WA0119101273
B1451163658757N00435114WA0119201274
B1451173658758N00435118WA0119301276
B1451183658758N00435121WA0119401277
B1451193658758N00435124WA0119401278
B1451203658758N00435127WA0119301279
B1451213658758N00435130WA0119301278
B1451223658758N00435133WA0119201277
B1451233658758N00435138WA0119201276
B1451243658758N00435141WA0119101275
B1451253658758N00435145WA0119101276
B1451263658758N00435148WA0119001275
B1451273658759N00435151WA0118801275
B1451283658759N00435155WA0118601273
B1451293658759N00435159WA0118501271
B1451303658759N00435162WA0118401270
B1451313658759N00435165WA0118401270
B1451333658759N00435171WA0118001268
B1451343658760N00435174WA0117901266
B1451353658760N00435178WA0117801264
B1451363658760N00435182WA0117701262
B1451373658759N00435187WA0117601261
B1451383658758N00435191WA0117501260
B1451393658758N00435195WA0117401258
B1451403658757N00435200WA0117201256
B1451413658756N00435205WA0117101255
B1451423658756N00435210WA0117001254
B1451433658755N00435215WA0116901253
B1451443658755N00435219WA0116701252
B1451453658754N00435224WA0116601251
B1451463658754N00435228WA0116501250
B1451473658754N00435233WA0116501249
B1451483658753N00435237WA0116301248
B1451493658753N00435240WA0116101246
B1451503658752N00435244WA0115801243
B1451513658752N00435248WA0115501241
B1451523658752N00435253WA0115301238
B1451533658752N00435258WA0115201236
B1451543658752N00435262WA0115101234
B1451553658752N00435267WA0115101234
B1451563658752N00435271WA0115001233
B1451573658752N00435275WA0114901232
B1451583658751N00435283WA0114601228
B1451593658751N00435284WA0114601228
B1452003658751N00435288WA0114501227
B1452013658751N00435292WA0114401226
B1452023658750N00435296WA0114301226
B1452033658750N00435300WA0114201225
B1452043658749N00435304WA0114101224
B1452053658749N00435308WA0114101223
B1452063658749N00435313WA0113901222
B1452073658750N00435317WA0113801221
B1452083658750N00435321WA0113801220
B1452093658751N00435325WA0113701219
B1452103658752N00435329WA0113701218
B1452113658752N00435333WA0113601217
B1452123658752N00435337WA0113501217
B1452133658752N00435341WA0113401217
B1452143658753N00435344WA0113301216
B1452153658754N00435346WA0113101214
B1452163658755N00435349WA0112901213
B1452173658756N00435352WA0112601211
B1452183658756N00435356WA0112501208
B1452193658757N00435360WA0112301206
B1452203658757N00435364WA0112101204
B1452213658757N00435368WA0112001202
B1452223658756N00435373WA0111901200
B1452233658755N00435377WA0111801199
B1452243658754N00435382WA0111601196
B1452253658753N00435385WA0111401196
B1452263658753N00435389WA0111201194
B1452273658752N00435394WA0111101192
B1452283658752N00435398WA0111001191
B1452293658751N00435402WA0110801189
B1452303658750N00435407WA0110801188
B1452313658749N00435411WA0110701187
B1452323658748N00435415WA0110401185
B1452333658748N00435420WA0110301184
B1452343658748N00435425WA0110001182
B1452353658747N00435430WA0110001180
B1452363658745N00435436WA0109801178
B1452373658744N00435440WA0109701177
B1452383658743N00435444WA0109501176
B1452393658742N00435448WA0109301174
B1452403658740N00435453WA0109001172
B1452413658738N00435458WA0108701169
B1452423658736N00435464WA0108601166
B1452433658733N00435469WA0108501164
B1452443658730N00435474WA0108501163
B1452453658728N00435480WA0108401162
B1452463658725N00435485WA0108501161
B1452473658721N00435489WA0108501161
B1452483658718N00435493WA0108401162
B1452493658713N00435500WA0108201160
B1452503658713N00435501WA0108201160
B1452513658709N00435506WA0108101159
B1452523658706N00435511WA0108001158
B1452533658703N00435516WA0108001157
B1452543658699N00435520WA0108001157
B1452553658697N00435525WA0107901157
B1452563658694N00435529WA0107801156
B1452573658691N00435534WA0107501155
B1452583658689N00435540WA0107501153
B1452593658687N00435545WA0107301151
B1453003658687N00435550WA0107301150
B1453013658686N00435555WA0107201149
B1453023658684N00435561WA0107101148
B1453033658682N00435566WA0107101147
B1453043658680N00435572WA0107001147
B1453053658679N00435577WA0107001146
B1453063658678N00435583WA0107101146
B1453073658677N00435589WA0107201146
B1453083658674N00435595WA0107401147
B1453093658672N00435600WA0107301148
B1453103658669N00435604WA0107301148
B1453113658667N00435609WA0107101148
B1453123658666N00435615WA0107001147
B1453133658665N00435622WA0107001146
B1453143658662N00435629WA0107101145
B1453153658656N00435636WA0107101146
B1453163658654N00435638WA0107101146
B1453173658651N00435643WA0107101147
B1453183658649N00435649WA0107001146
B1453193658647N00435656WA0106901145
B1453203658645N00435663WA0106901145
B1453213658642N00435669WA0106901144
B1453223658639N00435676WA0107101145
B1453233658637N00435682WA0107101146
B1453243658636N00435688WA0107001146
B1453253658635N00435694WA0107101146
B1453263658634N00435700WA0107201146
B1453273658632N00435706WA0107301147
B1453283658630N00435712WA0107501148
B1453293658629N00435717WA0107601150
B1453303658628N00435723WA0107701152
B1453313658627N00435730WA0107901153
B1453323658627N00435736WA0108001155
B1453333658627N00435742WA0108201157
B1453343658628N00435748WA0108201158
B1453353658628N00435753WA0108301159
B1453363658627N00435758WA0108301160
B1453373658626N00435764WA0108401160
B1453383658625N00435771WA0108401159
B1453393658624N00435777WA0108501160
B1453413658622N00435790WA0108901163
B1453423658621N00435796WA0109001165
B1453433658620N00435802WA0109001167
B1453443658620N00435808WA0109301168
B1453453658621N00435814WA0109601170
B1453463658622N00435820WA0109901172
B1453473658624N00435826WA0110201176
B1453483658626N00435832WA0110501179
B1453493658627N00435837WA0110801182
B1453503658628N00435843WA0111101185
B1453513658628N00435849WA0111201187
B1453523658629N00435855WA0111301189
B1453533658630N00435861WA0111601191
B1453543658632N00435867WA0111801193
B1453553658633N00435874WA0112201196
B1453563658634N00435879WA0112401199
B1453573658634N00435884WA0112501202
B1453583658634N00435889WA0112701204
B1453593658635N00435894WA0112901206
B1454003658635N00435900WA0113001207
B1454013658636N00435906WA0113201209
B1454023658636N00435911WA0113401212
B1454033658637N00435915WA0113601214
B1454043658638N00435920WA0113701216
B1454053658639N00435925WA0113701217
B1454063658639N00435934WA0113601217
B1454073658639N00435935WA0113601217
B1454083658638N00435941WA0113501216
B1454093658638N00435946WA0113401216
B1454103658638N00435951WA0113201214
B1454113658638N00435958WA0113101213
B1454123658638N00435964WA0112901211
B1454133658638N00435969WA0112801210
B1454143658637N00435974WA0112601209
B1454153658637N00435980WA0112501207
B1454163658637N00435985WA0112401206
B1454173658638N00435990WA0112201204
B1454183658638N00435995WA0112001202
B1454193658638N00435999WA0111901201
B1454203658637N00436004WA0111701199
B1454213658636N00436008WA0111501197
B1454223658636N00436013WA0111301195
B1454233658635N00436017WA0111101193
B1454243658634N00436023WA0110901191
B1454253658632N00436029WA0110601188
B1454263658630N00436035WA0110501186
B1454273658628N00436041WA0110201184
B1454283658627N00436047WA0110101182
B1454293658626N00436053WA0110001180
B1454303658624N00436058WA0109901179
B1454313658623N00436063WA0109701177
B1454323658620N00436070WA0109401173
B1454333658618N00436074WA0109201173
B1454343658616N00436080WA0109001171
B1454353658614N00436086WA0108801169
B1454363658612N00436091WA0108701167
B1454373658609N00436097WA0108701165
B1454383658606N00436103WA0108501163
B1454393658603N00436108WA0108301161
B1454403658600N00436113WA0108101160
B1454413658597N00436119WA0107901158
B1454423658594N00436124WA0107801156
B1454433658592N00436129WA0107601155
B1454443658591N00436135WA0107701153
B1454453658590N00436142WA0107901153
B1454463658590N00436147WA0108101154
B1454473658589N00436152WA0108401157
B1454483658588N00436156WA0108601160
B1454493658587N00436160WA0108601162
B1454503658587N00436165WA0108701162
B1454513658587N00436170WA0108701163
B1454523658587N00436175WA0108701163
B1454533658588N00436180WA0108901164
B1454543658589N00436185WA0109201166
B1454553658589N00436190WA0109501168
B1454563658589N00436194WA0109701171
B1454573658589N00436201WA0109901175
B1454583658589N00436202WA0109901175
B1454593658590N00436207WA0110001176
B1455003658592N00436213WA0110201177
B1455013658593N00436218WA0110501179
B1455023658594N00436222WA0110901182
B1455033658595N00436226WA0111101186
B1455043658596N00436229WA0111201189
B1455053658596N00436232WA0111301191
B1455063658597N00436236WA0111201191
B1455073658597N00436241WA0111201191
B1455083658597N00436247WA0111101190
B1455093658597N00436253WA0111101190
B1455103658598N00436259WA0111101190
B1455113658598N00436264WA0111201190
B1455123658599N00436269WA0111201190
B1455133658599N00436273WA0111201191
B1455143658599N00436277WA0111101191
B1455153658599N00436281WA0110901190
B1455163658599N00436286WA0110701188
B1455173658599N00436291WA0110501186
B1455183658599N00436296WA0110201184
B1455193658599N00436301WA0110001183
B1455203658598N00436305WA0109801180
B1455213658597N00436310WA0109501177
B1455223658597N00436315WA0109101174
B1455233658595N00436324WA0108701167
B1455243658595N00436327WA0108701167
B1455253658594N00436333WA0108501165
B1455263658594N00436339WA0108501164
B1455273658594N00436344WA0108401163
B1455283658595N00436350WA0108301161
B1455293658595N00436356WA0108201160
B1455303658595N00436361WA0108301160
B1455313658595N00436366WA0108301160
B1455323658594N00436371WA0108301160
B1455333658594N00436376WA0108201160
B1455343658594N00436382WA0108001159
B1455353658593N00436387WA0107801158
B1455363658592N00436393WA0107601156
B1455373658592N00436399WA0107401154
B1455383658592N00436405WA0107201152
B1455393658592N00436411WA0107001150
B1455403658593N00436417WA0106901149
B1455413658594N00436423WA0106801147
B1455423658595N00436429WA0106601146
B1455433658595N00436435WA0106401144
B1455443658595N00436441WA0106301143
B1455453658595N00436447WA0106301141
B1455463658595N00436453WA0106201140
B1455473658595N00436459WA0106001139
B1455493658594N00436470WA0105501135
B1455503658593N00436477WA0105301133
B1455513658592N00436483WA0105101130
B1455523658591N00436489WA0105001128
B1455533658591N00436495WA0104801126
B1455543658590N00436501WA0104601124
B1455553658590N00436507WA0104501123
B1455563658590N00436512WA0104301121
B1455573658590N00436518WA0104101119
B1455583658589N00436525WA0104001118
B1455593658589N00436530WA0104001116
B1456003658587N00436536WA0103801115
B1456013658586N00436541WA0103701113
B1456023658583N00436547WA0103501112
B1456033658581N00436552WA0103401110
B1456043658579N00436558WA0103401109
B1456053658578N00436563WA0103301108
B1456063658576N00436568WA0103201107
B1456073658575N00436572WA0103001107
B1456083658573N00436577WA0102801106
B1456093658571N00436582WA0102701104
B1456103658568N00436587WA0102601102
B1456113658565N00436592WA0102601101
B1456123658562N00436597WA0102601100
B1456133658560N00436603WA0102401100
B1456143658557N00436612WA0102501099
B1456153658556N00436613WA0102501099
B1456163658553N00436617WA0102401099
B1456173658550N00436621WA0102301099
B1456183658548N00436625WA0102201098
B1456193658545N00436631WA0102201097
B1456203658542N00436637WA0102401096
B1456213658540N00436641WA0102601097
B1456223658538N00436645WA0102801099
B1456233658536N00436648WA0102801102
B1456243658534N00436650WA0102601102
B1456253658532N00436652WA0102301100
B1456263658531N00436657WA0102001098
B1456273658529N00436662WA0101701094
B1456283658529N00436667WA0101701092
B1456293658530N00436672WA0101701091
B1456303658529N00436676WA0101701091
B1456313658528N00436680WA0101601091
B1456323658526N00436685WA0101501090
B1456333658524N00436690WA0101301088
B1456343658522N00436696WA0101201086
B1456353658520N00436701WA0101201085
B1456363658518N00436706WA0101301086
B1456373658517N00436710WA0101301086
B1456383658515N00436714WA0101301086
B1456393658514N00436718WA0101201087
B1456403658511N00436723WA0101101085
B1456413658509N00436727WA0101101085
B1456423658507N00436731WA0101001085
B1456433658506N00436736WA0101001084
B1456443658504N00436741WA0100901083
B1456453658502N00436745WA0100701082
B1456463658499N00436750WA0100601081
B1456473658497N00436755WA0100601080
B1456483658495N00436761WA0100701079
B1456493658494N00436766WA0100701080
B1456503658493N00436771WA0100901081
B1456513658492N00436776WA0100901082
B1456523658491N00436781WA0101001083
B1456533658491N00436786WA0101101084
B1456543658491N00436792WA0101201084
B1456553658492N00436797WA0101201085
B1456563658493N00436802WA0101201086
B1456573658495N00436805WA0101301086
B1456583658497N00436809WA0101301087
B1456593658499N00436812WA0101501087
B1457003658499N00436816WA0101601088
B1457013658499N00436820WA0101701090
B1457023658498N00436825WA0101701091
B1457033658496N00436830WA0101801091
B1457043658495N00436835WA0101901092
B1457063658496N00436842WA0102201095
B1457073658499N00436843WA0102301096
B1457083658502N00436840WA0102401097
B1457093658505N00436834WA0102401097
B1457103658505N00436825WA0102601097
B1457113658502N00436816WA0102701098
B1457123658497N00436809WA0102801099
B1457133658491N00436805WA0103001100
B1457143658485N00436804WA0103101102
B1457153658479N00436804WA0103201103
B1457163658474N00436805WA0103201104
B1457173658469N00436807WA0103301105
B1457183658463N00436810WA0103301105
B1457193658459N00436815WA0103301106
B1457203658455N00436820WA0103401106
B1457213658453N00436826WA0103501107
B1457223658452N00436832WA0103601108
B1457233658450N00436837WA0103801109
B1457243658449N00436842WA0103901110
B1457253658448N00436847WA0103901112
B1457263658448N00436851WA0104001113
B1457273658449N00436855WA0104001113
B1457283658451N00436859WA0103901113
B1457293658454N00436861WA0103901113
B1457303658458N00436861WA0104001113
B1457313658463N00436853WA0104001113
B1457323658464N00436850WA0104001113
B1457333658464N00436842WA0104201113
B1457343658463N00436835WA0104301115
B1457353658459N00436828WA0104401116
B1457363658453N00436823WA0104501116
B1457373658446N00436819WA0104701117
B1457383658439N00436817WA0105001120
B1457393658434N00436817WA0105101123
B1457403658429N00436819WA0105201125
B1457413658425N00436822WA0105201126
B1457423658420N00436825WA0105101126
B1457433658415N00436828WA0105201126
B1457443658411N00436831WA0105201126
B1457453658407N00436835WA0105301127
B1457463658404N00436839WA0105301127
B1457473658401N00436844WA0105501128
B1457483658399N00436848WA0105601129
B1457493658398N00436852WA0105801131
B1457503658397N00436857WA0106101133
B1457513658397N00436860WA0106301135
B1457523658397N00436863WA0106401137
B1457533658398N00436866WA0106701140
B1457543658399N00436870WA0106901142
B1457553658400N00436873WA0107301145
B1457573658404N00436878WA0107801152
B1457583658405N00436881WA0108001155
B1457593658406N00436883WA0108201157
B1458003658406N00436887WA0108201158
B1458013658406N00436891WA0108201159
B1458023658407N00436895WA0108401159
B1458033658408N00436899WA0108601161
B1458043658410N00436903WA0108701163
B1458053658412N00436906WA0108801164
B1458063658415N00436908WA0109101166
B1458073658417N00436910WA0109301168
B1458083658418N00436913WA0109401171
B1458093658419N00436917WA0109501172
B1458103658420N00436921WA0109601173
B1458113658420N00436925WA0109601173
B1458123658421N00436928WA0109801174
B1458133658422N00436932WA0109901175
B1458143658422N00436937WA0110001176
B1458153658421N00436941WA0110001177
B1458163658421N00436946WA0110101179
B1458173658421N00436950WA0110301180
B1458183658421N00436955WA0110401181
B1458193658421N00436959WA0110401182
B1458203658421N00436964WA0110401182
B1458213658421N00436970WA0110501182
B1458223658421N00436981WA0110901184
B1458233658421N00436983WA0110901184
B1458243658421N00436989WA0111201187
B1458253658420N00436995WA0111501190
B1458263658420N00437000WA0111701193
B1458273658420N00437004WA0112101196
B1458283658420N00437008WA0112201199
B1458293658419N00437012WA0112401201
B1458303658417N00437017WA0112401202
B1458313658416N00437023WA0112401203
B1458323658416N00437029WA0112401202
B1458333658415N00437035WA0112501203
B1458343658416N00437041WA0112501203
B1458353658416N00437047WA0112601204
B1458363658415N00437052WA0112801206
B1458373658414N00437058WA0112801207
B1458383658414N00437063WA0112801207
B1458393658413N00437069WA0112801207
B1458403658411N00437075WA0112901207
B1458413658410N00437081WA0113001208
B1458423658408N00437087WA0113101209
B1458433658405N00437093WA0113201210
B1458443658403N00437099WA0113401211
B1458453658402N00437105WA0113701213
B1458463658401N00437111WA0113801215
B1458473658400N00437117WA0114001217
B1458483658398N00437123WA0114501223
B1458493658396N00437127WA0114801223
B1458503658393N00437131WA0115101227
B1458513658391N00437135WA0115301230
B1458523658389N00437138WA0115501233
B1458533658387N00437142WA0115701235
B1458543658385N00437146WA0115901237
B1458553658382N00437150WA0116001239
B1458563658379N00437155WA0116101240
B1458573658376N00437159WA0116301242
B1458583658374N00437164WA0116401243
B1458593658371N00437168WA0116501244
B1459003658369N00437173WA0116501245
B1459013658365N00437178WA0116501245
B1459023658362N00437182WA0116501246
B1459033658358N00437186WA0116501246
B1459043658355N00437191WA0116501246
B1459053658352N00437195WA0116401245
B1459063658349N00437200WA0116401244
B1459073658345N00437204WA0116401244
B1459083658341N00437209WA0116401244
B1459093658338N00437213WA0116301244
B1459103658335N00437217WA0116401244
B1459113658332N00437222WA0116301243
B1459123658328N00437227WA0116301243
B1459143658322N00437236WA0116101242
B1459153658319N00437241WA0116001242
B1459163658315N00437246WA0115901241
B1459173658312N00437251WA0115801240
B1459183658309N00437256WA0115701239
B1459193658306N00437261WA0115601237
B1459203658303N00437267WA0115601236
B1459213658299N00437273WA0115801236
B1459223658296N00437277WA0115901237
B1459233658293N00437282WA0116101239
B1459243658291N00437287WA0116501241
B1459253658289N00437292WA0116501243
B1459263658287N00437297WA0116501245
B1459273658284N00437301WA0116401245
B1459283658282N00437306WA0116201244
B1459293658279N00437311WA0116001242
B1459303658277N00437317WA0115801240
B1459313658275N00437323WA0115701238
B1459323658273N00437330WA0115601237
B1459333658272N00437336WA0115401235
B1459343658270N00437342WA0115401234
B1459353658268N00437347WA0115401234
B1459363658266N00437352WA0115301234
B1459373658263N00437357WA0115301233
B1459383658260N00437362WA0115201233
B1459393658255N00437369WA0115201232
B1459403658253N00437372WA0115201232
B1459413658249N00437376WA0115301232
B1459423658245N00437380WA0115301232
B1459433658240N00437385WA0115301232
B1459443658236N00437389WA0115201232
B1459453658231N00437393WA0115201232
B1459463658227N00437398WA0115201232
B1459473658222N00437402WA0115201232
B1459483658218N00437407WA0115201232
B1459493658213N00437412WA0115101231
B1459503658207N00437417WA0114901229
B1459513658201N00437423WA0114801227
B1459523658196N00437429WA0114701226
B1459533658191N00437434WA0114501225
B1459543658187N00437439WA0114301224
B1459553658184N00437443WA0114101223
B1459563658180N00437449WA0113801220
B1459573658175N00437455WA0113701217
B1459583658171N00437462WA0113601215
B1459593658168N00437468WA0113601214
B1500003658165N00437474WA0113501213
B1500013658162N00437479WA0113401213
B1500023658159N00437485WA0113301212
B1500033658156N00437490WA0113201211
B1500053658150N00437501WA0113101209
B1500063658147N00437506WA0113001209
B1500073658144N00437511WA0112901208
B1500083658142N00437517WA0112701207
B1500093658139N00437522WA0112601206
B1500103658136N00437526WA0112501204
B1500113658133N00437531WA0112501203
B1500123658130N00437536WA0112301202
B1500133658127N00437541WA0112201201
B1500143658125N00437545WA0112001200
B1500153658123N00437549WA0111801198
B1500163658120N00437554WA0111701197
B1500173658117N00437559WA0111401194
B1500183658115N00437565WA0111301192
B1500193658113N00437572WA0111201190
B1500203658112N00437577WA0111201190
B1500213658111N00437583WA0111201189
B1500223658110N00437588WA0111201189
B1500233658108N00437594WA0111201188
B1500243658106N00437599WA0111101188
B1500253658103N00437603WA0111201188
B1500263658100N00437608WA0111201188
B1500273658097N00437612WA0111101188
B1500283658093N00437617WA0111101188
B1500293658090N00437622WA0111001187
B1500303658085N00437632WA0110801185
B1500313658084N00437633WA0110801185
B1500323658081N00437639WA0110801185
B1500333658078N00437644WA0110701184
B1500343658074N00437648WA0110601184
B1500353658071N00437653WA0110601183
B1500363658067N00437658WA0110501182
B1500373658065N00437663WA0110501181
B1500383658063N00437668WA0110501181
B1500393658061N00437673WA0110501181
B1500403658058N00437678WA0110401182
B1500413658056N00437682WA0110401181
B1500423658054N00437687WA0110301180
B1500433658051N00437692WA0110301180
B1500443658048N00437696WA0110201179
B1500453658045N00437701WA0110201179
B1500463658041N00437706WA0110101178
B1500473658039N00437711WA0110001177
B1500483658037N00437716WA0109901176
B1500493658035N00437721WA0109901175
B1500503658033N00437726WA0109901175
B1500513658030N00437731WA0109801174
B1500523658027N00437735WA0109701174
B1500533658024N00437739WA0109501173
B1500543658021N00437743WA0109401171
B1500553658019N00437748WA0109201169
B1500563658016N00437754WA0108901166
B1500573658014N00437757WA0108801166
B1500583658010N00437762WA0108701164
B1500593658007N00437766WA0108701163
B1501003658004N00437771WA0108501162
B1501013658002N00437776WA0108401161
B1501023657999N00437781WA0108301159
B1501033657997N00437787WA0108301158
B1501043657994N00437791WA0108201158
B1501053657992N00437796WA0108101157
B1501063657991N00437801WA0108001156
B1501073657989N00437807WA0107801155
B1501083657988N00437813WA0107801153
B1501093657986N00437818WA0107701152
B1501103657985N00437823WA0107801152
B1501113657984N00437828WA0107901153
B1501123657983N00437834WA0108001154
B1501133657983N00437839WA0108201154
B1501143657982N00437844WA0108301156
B1501153657981N00437848WA0108401157
B1501163657980N00437853WA0108301158
B1501173657979N00437858WA0108301158
B1501183657978N00437863WA0108301158
B1501193657977N00437868WA0108301157
B1501203657976N00437872WA0108301158
B1501223657974N00437879WA0108001157
B1501233657974N00437884WA0107701155
B1501243657973N00437888WA0107501152
B1501253657973N00437893WA0107301150
B1501263657973N00437898WA0107101148
B1501273657974N00437902WA0107001146
B1501283657974N00437907WA0106901145
B1501293657975N00437911WA0106801144
B1501303657975N00437916WA0106701143
B1501313657976N00437920WA0106501142
B1501323657977N00437924WA0106301140
B1501333657978N00437929WA0106201138
B1501343657979N00437933WA0106101137
B1501353657980N00437938WA0105901135
B1501363657980N00437942WA0105801134
B1501373657980N00437946WA0105501132
B1501383657981N00437950WA0105201130
B1501393657982N00437955WA0105001127
B1501403657983N00437960WA0104901124
B1501413657983N00437965WA0104701123
B1501423657983N00437969WA0104501121
B1501433657983N00437974WA0104301119
B1501443657984N00437978WA0104001117
B1501453657985N00437984WA0104001115
B1501463657985N00437989WA0103901114
B1501473657985N00437996WA0103701112
B1501483657985N00437998WA0103601112
B1501493657986N00438002WA0103401110
B1501503657987N00438007WA0103201109
B1501513657987N00438012WA0103001106
B1501523657988N00438017WA0102901105
B1501533657989N00438022WA0102801103
B1501543657989N00438027WA0102801102
B1501553657990N00438032WA0102701101
B1501563657990N00438037WA0102701100
B1501573657990N00438042WA0102601099
B1501583657990N00438047WA0102601099
B1501593657990N00438051WA0102501098
B1502003657990N00438056WA0102401098
B1502013657990N00438061WA0102401097
B1502023657990N00438066WA0102201096
B1502033657990N00438071WA0102101094
B1502043657991N00438078WA0101901093
B1502053657991N00438083WA0101801092
B1502063657991N00438089WA0101801091
B1502073657992N00438094WA0101701091
B1502083657993N00438099WA0101701090
B1502093657994N00438104WA0101501088
B1502103657995N00438109WA0101301087
B1502113657996N00438115WA0101301085
B1502123657998N00438120WA0101201084
B1502133658000N00438125WA0101201084
B1502143658002N00438130WA0101201084
B1502153658003N00438134WA0101101084
B1502163658004N00438139WA0100901083
B1502173658004N00438144WA0100801081
B1502183658005N00438150WA0100601079
B1502193658006N00438156WA0100501077
B1502203658007N00438162WA0100401076
B1502213658008N00438169WA0100301074
B1502223658009N00438174WA0100201074
B1502233658009N00438179WA0100101073
B1502243658009N00438184WA0100001073
B1502253658009N00438189WA0099901072
B1502263658009N00438195WA0099601070
B1502273658009N00438201WA0099501068
B1502283658009N00438207WA0099401066
B1502293658009N00438212WA0099301064
B1502303658008N00438217WA0099201063
B1502313658008N00438222WA0099001062
B1502323658008N00438227WA0098701060
B1502333658008N00438232WA0098401057
B1502343658008N00438238WA0098201054
B1502353658007N00438244WA0098001052
B1502363658007N00438250WA0097701049
B1502373658008N00438256WA0097401047
B1502383658009N00438268WA0097101041
B1502393658009N00438269WA0097101041
B1502403658010N00438276WA0097001040
B1502413658009N00438282WA0096901038
B1502423658008N00438288WA0096801037
B1502433658008N00438295WA0096601036
B1502443658009N00438302WA0096501034
B1502453658011N00438308WA0096501033
B1502463658013N00438314WA0096701033
B1502473658013N00438319WA0096701034
B1502483658013N00438324WA0096601034
B1502493658011N00438329WA0096501035
B1502503658010N00438333WA0096301034
B1502513658009N00438337WA0096101032
B1502523658008N00438342WA0095701029
B1502533658007N00438348WA0095401026
B1502543658005N00438353WA0095101022
B1502553658004N00438358WA0094701019
B1502563658002N00438363WA0094101015
B1502573658001N00438370WA0093801010
B1502583657999N00438377WA0093401005
B1502593657996N00438383WA0093301002
B1503003657993N00438390WA0093100999
B1503013657989N00438396WA0093100998
B1503023657985N00438402WA0093000997
B1503033657981N00438407WA0092800995
B1503043657977N00438415WA0092600993
B1503053657974N00438419WA0092500993
B1503063657970N00438425WA0092200991
B1503073657966N00438431WA0092100989
B1503083657961N00438438WA0092000986
B1503093657956N00438445WA0091800985
B1503103657951N00438452WA0091800983
B1503113657947N00438459WA0091900983
B1503123657945N00438465WA0092000984
B1503133657945N00438471WA0092000985
B1503143657944N00438477WA0092000985
B1503153657944N00438482WA0092000986
B1503163657944N00438488WA0091900986
B1503173657943N00438493WA0092000985
B1503183657943N00438498WA0092000985
B1503193657943N00438502WA0092100986
B1503203657944N00438505WA0092100987
B1503213657946N00438506WA0091900987
B1503223657949N00438505WA0091900985
B1503233657952N00438503WA0092000985
B1503243657954N00438504WA0092000985
B1503253657956N00438506WA0092000986
B1503263657957N00438509WA0092000986
B1503273657957N00438512WA0092000986
B1503283657957N00438516WA0091900986
B1503303657956N00438525WA0091800985
B1503313657956N00438531WA0091700984
B1503323657955N00438536WA0091700983
B1503333657955N00438542WA0091700983
B1503343657953N00438547WA0091600983
B1503353657952N00438553WA0091700983
B1503363657951N00438558WA0091700983
B1503373657951N00438563WA0091800983
B1503383657950N00438567WA0092000984
B1503393657949N00438571WA0092100986
B1503403657948N00438573WA0092100987
B1503413657947N00438576WA0092100988
B1503423657946N00438578WA0092000988
B1503433657946N00438582WA0091800986
B1503443657945N00438586WA0091700985
B1503453657943N00438591WA0091600984
B1503463657941N00438595WA0091700983
B1503473657940N00438599WA0091500983
B1503483657940N00438603WA0091300981
B1503493657940N00438607WA0091200980
B1503503657940N00438611WA0091100979
B1503513657940N00438615WA0091200979
B1503523657939N00438619WA0091200979
B1503533657938N00438623WA0091300979
B1503543657937N00438628WA0091200978
B1503553657936N00438636WA0091100977
B1503563657935N00438638WA0091100977
B1503573657935N00438643WA0091000976
B1503583657935N00438646WA0091000976
B1503593657935N00438650WA0091000976
B1504003657934N00438654WA0090800976
B1504013657933N00438658WA0090600974
B1504023657933N00438663WA0090600973
B1504033657932N00438668WA0090600972
B1504043657932N00438674WA0090500972
B1504053657932N00438679WA0090500971
B1504063657932N00438683WA0090400971
B1504073657931N00438688WA0090300970
B1504083657930N00438693WA0090200969
B1504093657928N00438700WA0090100967
B1504103657927N00438706WA0089900965
B1504113657926N00438713WA0089900964
B1504123657925N00438718WA0089900964
B1504133657924N00438723WA0089700964
B1504143657923N00438727WA0089500963
B1504153657922N00438733WA0089100960
B1504163657920N00438740WA0088800956
B1504173657919N00438747WA0088400952
B1504183657918N00438753WA0088300949
B1504193657917N00438760WA0088100947
B1504203657916N00438765WA0088100946
B1504213657915N00438771WA0087900944
B1504223657915N00438777WA0087800943
B1504233657915N00438783WA0087700941
B1504243657914N00438788WA0087700940
B1504253657913N00438792WA0087600940
B1504263657911N00438795WA0087500940
B1504273657909N00438799WA0087300938
B1504283657908N00438804WA0087100936
B1504293657906N00438810WA0086700932
B1504303657904N00438817WA0086700929
B1504313657902N00438823WA0086800929
B1504323657900N00438827WA0087000931
B1504333657899N00438831WA0087100932
B1504343657898N00438834WA0087100933
B1504353657896N00438837WA0087100934
B1504363657895N00438842WA0087100934
B1504373657892N00438847WA0087100933
B1504383657890N00438851WA0087200933
B1504393657888N00438855WA0087200934
B1504403657887N00438860WA0087200935
B1504413657886N00438864WA0087200935
B1504423657886N00438869WA0087300935
B1504433657886N00438872WA0087400936
B1504443657887N00438875WA0087500938
B1504453657888N00438875WA0087600939
B1504463657893N00438873WA0087600939
B1504473657893N00438873WA0087600939
B1504483657896N00438871WA0087700939
B1504493657898N00438870WA0087800940
B1504503657899N00438868WA0088000941
B1504513657900N00438866WA0088000942
B1504523657900N00438861WA0087700942
B1504533657900N00438854WA0087600941
B1504543657898N00438847WA0087500939
B1504553657895N00438839WA0087400938
B1504563657890N00438832WA0087200937
B1504573657883N00438826WA0087000935
B1504583657875N00438823WA0086800933
B1504593657866N00438821WA0086500930
B1505003657858N00438821WA0086400928
B1505013657850N00438823WA0086200926
B1505023657843N00438828WA0086100924
B1505033657839N00438833WA0086000922
B1505043657836N00438839WA0086000921
B1505053657833N00438845WA0086100920
B1505063657831N00438850WA0086200921
B1505073657828N00438854WA0086200923
B1505083657826N00438858WA0086100923
B1505093657823N00438862WA0086200923
B1505103657822N00438867WA0086100923
B1505113657821N00438871WA0086100922
B1505123657820N00438876WA0086200923
B1505133657819N00438878WA0086100923
B1505143657818N00438882WA0086000923
B1505153657817N00438886WA0086000922
B1505163657816N00438891WA0086000922
B1505173657815N00438895WA0086200922
B1505183657813N00438899WA0086100923
B1505193657811N00438902WA0086100923
B1505203657808N00438906WA0086200923
B1505213657806N00438911WA0086100923
B1505223657806N00438915WA0086100922
B1505233657805N00438919WA0086200923
B1505243657805N00438923WA0086200923
B1505253657804N00438926WA0086200924
B1505263657803N00438930WA0086200925
B1505273657803N00438933WA0086200925
B1505283657803N00438936WA0086000924
B1505293657803N00438938WA0085900922
B1505303657804N00438941WA0085800921
B1505313657805N00438943WA0085600921
B1505323657806N00438945WA0085600920
B1505333657807N00438947WA0085300918
B1505343657809N00438949WA0085200916
B1505353657810N00438951WA0085100915
B1505363657812N00438952WA0084900913
B1505383657815N00438957WA0084700911
B1505393657816N00438960WA0084500910
B1505403657817N00438963WA0084300909
B1505413657819N00438965WA0084100906
B1505423657822N00438967WA0083900904
B1505433657825N00438968WA0083600901
B1505443657827N00438969WA0083400899
B1505453657829N00438971WA0083200897
B1505463657832N00438974WA0082900894
B1505473657836N00438978WA0082900891
B1505483657840N00438982WA0083100890
B1505493657843N00438986WA0083400892
B1505503657843N00438989WA0083700897
B1505513657842N00438991WA0083700899
B1505523657842N00438994WA0083600899
B1505533657842N00438998WA0083300898
B1505543657844N00439002WA0083100895
B1505553657847N00439006WA0083400893
B1505563657849N00439009WA0083700895
B1505573657848N00439012WA0084000899
B1505583657847N00439015WA0084200902
B1505593657846N00439019WA0084300904
B1506003657844N00439023WA0084300905
B1506013657843N00439028WA0084500905
B1506023657842N00439033WA0084700907
B1506033657842N00439039WA0085100911
B1506043657842N00439040WA0085300911
B1506053657842N00439043WA0085500914
B1506063657842N00439046WA0085700918
B1506073657842N00439048WA0085900920
B1506083657842N00439052WA0086000922
B1506093657844N00439055WA0086000923
B1506103657846N00439058WA0086200923
B1506113657848N00439061WA0086300925
B1506123657849N00439064WA0086600927
B1506133657850N00439066WA0086800930
B1506143657851N00439068WA0086900931
B1506153657851N00439070WA0087000932
B1506163657853N00439072WA0086900932
B1506173657854N00439075WA0086800932
B1506183657855N00439078WA0086800931
B1506193657856N00439082WA0086800931
B1506203657856N00439086WA0086900931
B1506213657856N00439089WA0086900932
B1506223657857N00439092WA0086900932
B1506233657858N00439095WA0086700931
B1506243657860N00439098WA0086500930
B1506253657862N00439102WA0086500929
B1506263657864N00439105WA0086600929
B1506273657865N00439107WA0086600929
B1506283657867N00439110WA0086600929
B1506293657869N00439112WA0086500929
B1506303657872N00439114WA0086400928
B1506313657875N00439116WA0086500928
B1506323657877N00439117WA0086700929
B1506333657880N00439118WA0086700930
B1506343657882N00439119WA0086900931
B1506353657884N00439120WA0087200932
B1506363657887N00439122WA0087200934
B1506373657888N00439124WA0087500937
B1506383657890N00439125WA0087600939
B1506393657891N00439127WA0087800940
B1506403657892N00439128WA0087800941
B1506413657894N00439131WA0087900942
B1506423657896N00439134WA0088000942
B1506433657897N00439137WA0088000943
B1506443657898N00439139WA0088100944
B1506453657900N00439141WA0088100944
B1506463657901N00439143WA0088000944
B1506473657903N00439145WA0088000944
B1506483657906N00439147WA0087900943
B1506493657907N00439149WA0088000943
B1506503657908N00439151WA0088100943
B1506513657909N00439153WA0088100944
B1506523657910N00439154WA0088100944
B1506533657911N00439156WA0088100944
B1506543657914N00439161WA0088200945
B1506553657914N00439162WA0088200945
B1506563657915N00439164WA0088400946
B1506573657916N00439167WA0088500948
B1506583657916N00439169WA0088600949
B1506593657917N00439172WA0088700950
B1507003657917N00439175WA0088800950
B1507013657918N00439179WA0088800951
B1507023657919N00439182WA0088900951
B1507033657920N00439186WA0089000952
B1507043657920N00439189WA0088900953
B1507053657919N00439193WA0088900953
B1507063657918N00439198WA0088800953
B1507073657917N00439203WA0088600952
B1507083657917N00439208WA0088700951
B1507093657917N00439214WA0088800950
B1507103657918N00439218WA0088900952
B1507113657919N00439221WA0089100953
B1507123657919N00439225WA0089100955
B1507133657920N00439228WA0089200956
B1507143657920N00439232WA0089200956
B1507153657920N00439236WA0089200956
B1507163657920N00439240WA0089100957
B1507173657921N00439244WA0089100957
B1507183657922N00439247WA0089000956
B1507193657923N00439250WA0089000955
B1507203657925N00439253WA0088900954
B1507213657926N00439255WA0088800954
B1507223657928N00439258WA0088700953
B1507233657929N00439260WA0088600952
B1507243657930N00439262WA0088300951
B1507253657932N00439265WA0088100948
B1507263657933N00439268WA0087800946
B1507273657934N00439271WA0087600943
B1507283657934N00439274WA0087400941
B1507293657934N00439277WA0087200939
B1507303657934N00439280WA0086900937
B1507313657934N00439283WA0086500934
B1507323657934N00439288WA0086200930
B1507333657934N00439293WA0086000926
B1507343657933N00439297WA0085800923
B1507353657932N00439302WA0085600921
B1507363657930N00439306WA0085500920
B1507373657928N00439311WA0085300918
B1507383657926N00439316WA0085200916
B1507393657924N00439322WA0085100914
B1507403657922N00439328WA0085100913
B1507413657921N00439333WA0085100912
B1507423657919N00439338WA0085000912
B1507433657917N00439343WA0084900912
B1507443657915N00439348WA0084700910
B1507463657911N00439360WA0084400907
B1507473657909N00439365WA0084300906
B1507483657908N00439370WA0084300905
B1507493657906N00439375WA0084100904
B1507503657904N00439381WA0083900902
B1507513657903N00439387WA0083700900
B1507523657901N00439392WA0083600898
B1507533657900N00439397WA0083500897
B1507543657899N00439401WA0083400896
B1507553657898N00439405WA0083200895
B1507563657897N00439409WA0083000893
B1507573657895N00439413WA0082600891
B1507583657894N00439418WA0082500888
B1507593657892N00439423WA0082300885
B1508003657891N00439428WA0082200884
B1508013657890N00439432WA0082100882
B1508023657889N00439437WA0081800881
B1508033657886N00439441WA0081600879
B1508043657884N00439446WA0081400876
B1508053657882N00439451WA0081200874
B1508063657881N00439456WA0080900871
B1508073657879N00439461WA0080800869
B1508083657876N00439465WA0080700867
B1508093657874N00439470WA0080400865
B1508103657870N00439474WA0080200863
B1508113657864N00439482WA0080100860
B1508123657862N00439484WA0080000860
B1508133657859N00439489WA0080000859
B1508143657857N00439494WA0079900858
B1508153657855N00439499WA0079800858
B1508163657854N00439505WA0079900857
B1508173657852N00439510WA0079900857
B1508183657852N00439515WA0080000857
B1508193657852N00439521WA0079900858
B1508203657852N00439525WA0079900858
B1508213657852N00439530WA0080100858
B1508223657851N00439535WA0080000858
B1508233657849N00439540WA0080100859
B1508243657847N00439545WA0080200860
B1508253657847N00439550WA0080200860
B1508263657847N00439555WA0080300861
B1508273657847N00439560WA0080500862
B1508283657846N00439566WA0080600863
B1508293657846N00439572WA0080700865
B1508303657846N00439577WA0080800866
B1508313657848N00439581WA0081000868
B1508323657850N00439583WA0081100869
B1508333657853N00439584WA0081200870
B1508343657856N00439584WA0081400872
B1508353657858N00439582WA0081500873
B1508363657859N00439578WA0081500874
B1508373657860N00439572WA0081500874
B1508383657859N00439564WA0081600874
B1508393657855N00439558WA0081900875
B1508403657849N00439553WA0082100876
B1508413657840N00439552WA0082300877
B1508423657833N00439554WA0082500880
B1508433657826N00439559WA0082700883
B1508443657822N00439564WA0082900885
B1508453657819N00439570WA0083100888
B1508463657819N00439575WA0083200890
B1508473657820N00439579WA0083300892
B1508483657822N00439582WA0083400893
B1508493657824N00439585WA0083500894
B1508503657826N00439587WA0083700896
B1508513657829N00439588WA0083800897
B1508523657832N00439587WA0083800898
B1508533657835N00439583WA0083800898
B1508543657837N00439578WA0083900897
B1508553657837N00439571WA0084100899
B1508563657834N00439564WA0084300900
B1508573657828N00439559WA0084300901
B1508583657821N00439556WA0084600902
B1508593657814N00439557WA0084800906
B1509003657808N00439559WA0085100909
B1509013657803N00439564WA0085300911
B1509023657797N00439572WA0085600916
B1509033657796N00439573WA0085700916
B1509043657794N00439578WA0085900918
B1509053657792N00439582WA0086000921
B1509063657792N00439586WA0086100922
B1509073657793N00439590WA0086100922
B1509083657795N00439594WA0086100923
B1509093657797N00439595WA0086100923
B1509103657800N00439594WA0086100923
B1509113657804N00439589WA0086100923
B1509123657805N00439582WA0086200922
B1509133657805N00439575WA0086200923
B1509143657802N00439567WA0086500924
B1509153657798N00439560WA0086700926
B1509163657792N00439556WA0086900928
B1509173657786N00439552WA0087100930
B1509183657780N00439551WA0087200932
B1509193657775N00439552WA0087300934
B1509203657769N00439555WA0087300935
B1509213657765N00439560WA0087500936
B1509223657762N00439566WA0087600936
B1509233657762N00439572WA0087900938
B1509243657762N00439576WA0088100941
B1509253657763N00439579WA0088200943
B1509263657764N00439582WA0088300945
B1509273657764N00439585WA0088300947
B1509283657765N00439589WA0088400948
B1509293657766N00439592WA0088400948
B1509303657769N00439594WA0088500948
B1509313657773N00439594WA0088600949
B1509323657777N00439591WA0088600949
B1509333657779N00439585WA0088700950
B1509343657780N00439578WA0088900951
B1509353657779N00439570WA0089100952
B1509363657775N00439563WA0089200953
B1509373657769N00439558WA0089300954
B1509383657762N00439557WA0089500956
B1509393657755N00439557WA0089700957
B1509403657749N00439560WA0090000959
B1509413657745N00439565WA0090200962
B1509423657743N00439570WA0090400965
B1509433657743N00439576WA0090400967
B1509443657745N00439581WA0090600968
B1509453657746N00439585WA0090800970
B1509463657747N00439589WA0091000973
B1509473657749N00439593WA0091100974
B1509483657751N00439596WA0091100976
B1509493657753N00439598WA0091200976
B1509503657756N00439599WA0091200977
B1509513657759N00439598WA0091400978
B1509523657763N00439596WA0091500979
B1509543657766N00439585WA0091900981
B1509553657763N00439578WA0092000983
B1509563657759N00439572WA0092100984
B1509573657753N00439568WA0092300985
B1509583657746N00439565WA0092600987
B1509593657739N00439564WA0092700990
B1510003657733N00439566WA0092800992
B1510013657728N00439570WA0092900993
B1510023657724N00439575WA0093000994
B1510033657722N00439581WA0093100995
B1510043657721N00439586WA0093200997
B1510053657721N00439590WA0093400999
B1510063657722N00439594WA0093401000
B1510073657724N00439598WA0093601001
B1510083657727N00439601WA0093801002
B1510093657731N00439602WA0094001004
B1510103657735N00439601WA0094201006
B1510113657738N00439598WA0094501009
B1510123657741N00439593WA0094801012
B1510133657743N00439587WA0095001014
B1510143657743N00439580WA0095201017
B1510153657741N00439573WA0095501019
B1510163657737N00439568WA0095601022
B1510173657732N00439564WA0095801024
B1510183657725N00439563WA0096001025
B1510193657716N00439566WA0096201028
B1510203657714N00439568WA0096301028
B1510213657710N00439573WA0096701030
B1510223657709N00439578WA0097101034
B1510233657708N00439583WA0097401038
B1510243657708N00439587WA0097601042
B1510253657708N00439592WA0097901045
B1510263657709N00439596WA0098201048
B1510273657709N00439601WA0098401050
B1510283657710N00439605WA0098701053
B1510293657710N00439610WA0099001056
B1510303657710N00439614WA0099301060
B1510313657711N00439618WA0099501062
B1510323657711N00439623WA0099701065
B1510333657712N00439628WA0099901067
B1510343657713N00439632WA0099901069
B1510353657712N00439636WA0100101070
B1510363657712N00439640WA0100201072
B1510373657713N00439644WA0100401073
B1510383657713N00439649WA0100601075
B1510393657714N00439654WA0100801077
B1510403657715N00439658WA0101101079
B1510413657717N00439661WA0101401083
B1510423657718N00439665WA0101701086
B1510433657720N00439668WA0101801088
B1510443657722N00439672WA0102101090
B1510453657723N00439676WA0102501093
B1510463657724N00439678WA0102801097
B1510473657725N00439681WA0102901101
B1510483657727N00439683WA0103001103
B1510493657729N00439686WA0103101104
B1510503657731N00439689WA0103301105
B1510513657733N00439692WA0103501106
B1510523657734N00439696WA0103901109
B1510533657735N00439700WA0104101113
B1510543657736N00439703WA0104401116
B1510553657737N00439706WA0104701119
B1510563657739N00439710WA0105101121
B1510573657740N00439714WA0105501125
B1510583657742N00439719WA0106001129
B1510593657743N00439722WA0106501134
B1511003657745N00439725WA0107001140
B1511013657747N00439727WA0107501145
B1511023657749N00439729WA0107801149
B1511033657752N00439731WA0108201153
B1511043657754N00439734WA0108601158
B1511053657756N00439737WA0108801162
B1511063657757N00439740WA0109201165
B1511073657758N00439744WA0109501168
B1511083657759N00439747WA0109801172
B1511093657759N00439751WA0110001175
B1511103657760N00439758WA0110401180
B1511113657761N00439759WA0110401180
B1511123657761N00439763WA0110701182
B1511133657762N00439766WA0110901185
B1511143657762N00439769WA0111001186
B1511153657762N00439773WA0111101188
B1511163657763N00439777WA0111001188
B1511173657764N00439781WA0111001188
B1511183657765N00439786WA0111101188
B1511193657766N00439791WA0111101189
B1511203657767N00439795WA0111101189
B1511213657768N00439799WA0111201189
B1511223657770N00439803WA0111201189
B1511233657771N00439806WA0111201190
B1511243657772N00439809WA0111201190
B1511253657773N00439810WA0111101190
B1511263657774N00439811WA0110901189
B1511273657776N00439812WA0110701187
B1511283657776N00439814WA0110601185
B1511293657777N00439816WA0110201184
B1511303657778N00439819WA0110101181
B1511313657779N00439821WA0110001179
B1511323657779N00439824WA0109801177
B1511333657780N00439826WA0109501175
B1511343657781N00439828WA0109201173
B1511353657782N00439832WA0108801170
B1511363657784N00439836WA0108601163
B1511373657785N00439839WA0108401163
B1511383657786N00439842WA0108301162
B1511393657787N00439845WA0108201160
B1511403657788N00439848WA0108001159
B1511413657789N00439851WA0107801157
B1511423657790N00439855WA0107601155
B1511433657791N00439859WA0107301152
B1511443657792N00439863WA0107101150
B1511453657794N00439868WA0106901148
B1511463657796N00439873WA0106601145
B1511473657798N00439877WA0106501143
B1511483657801N00439881WA0106501142
B1511493657803N00439886WA0106301141
B1511503657804N00439891WA0106201140
B1511513657805N00439896WA0106101138
B1511523657806N00439901WA0106001137
B1511533657808N00439906WA0105801136
B1511543657809N00439910WA0105701134
B1511553657811N00439915WA0105501132
B1511563657813N00439920WA0105301130
B1511573657814N00439925WA0105201128
B1511583657815N00439930WA0105101127
B1511593657817N00439935WA0104901126
B1512003657818N00439939WA0104701124
B1512023657822N00439949WA0104201119
B1512033657824N00439955WA0104001116
B1512043657825N00439960WA0104001115
B1512053657826N00439964WA0103901115
B1512063657826N00439967WA0103601113
B1512073657827N00439971WA0103401111
B1512083657828N00439977WA0103101108
B1512093657829N00439983WA0103001105
B1512103657830N00439988WA0103101104
B1512113657832N00439992WA0103201105
B1512123657833N00439994WA0103301106
B1512133657834N00439996WA0103401107
B1512143657835N00439999WA0103401108
B1512153657835N00440003WA0103301107
B1512163657835N00440007WA0103401107
B1512173657836N00440011WA0103501107
B1512183657837N00440014WA0103701108
B1512193657838N00440017WA0103801110
B1512203657838N00440020WA0103801111
B1512213657839N00440023WA0103801112
B1512223657839N00440027WA0103701111
B1512233657840N00440031WA0103701111
B1512243657842N00440035WA0103801111
B1512253657843N00440039WA0103901111
B1512263657845N00440042WA0103901112
B1512273657847N00440046WA0103901113
B1512283657847N00440048WA0103901113
B1512293657848N00440051WA0103801113
B1512303657849N00440054WA0103701112
B1512313657851N00440056WA0103501110
B1512323657852N00440059WA0103301109
B1512333657854N00440062WA0103101107
B1512343657856N00440065WA0102901106
B1512353657857N00440069WA0102801104
B1512363657859N00440073WA0102601101
B1512373657860N00440076WA0102301099
B1512383657862N00440080WA0102101097
B1512393657864N00440083WA0101801095
B1512403657866N00440085WA0101701092
B1512413657868N00440088WA0101501090
B1512423657870N00440092WA0101201088
B1512433657871N00440095WA0101001085
B1512443657873N00440098WA0100701083
B1512453657875N00440101WA0100501080
B1512463657878N00440104WA0100201077
B1512473657881N00440108WA0099901074
B1512483657883N00440112WA0099601071
B1512493657886N00440116WA0099501068
B1512503657888N00440119WA0099401066
B1512513657890N00440122WA0099201065
B1512523657892N00440125WA0099001063
B1512533657895N00440129WA0098601058
B1512543657897N00440132WA0098401058
B1512553657900N00440135WA0098301055
B1512563657903N00440139WA0098201053
B1512573657905N00440142WA0098001052
B1512583657907N00440145WA0097701050
B1512593657909N00440148WA0097401047
B1513003657912N00440151WA0097101044
B1513013657915N00440155WA0096801041
B1513023657919N00440159WA0096701038
B1513033657923N00440162WA0096701036
B1513043657926N00440165WA0096701036
B1513053657928N00440168WA0096601037
B1513063657930N00440172WA0096501036
B1513073657933N00440177WA0096301035
B1513083657935N00440182WA0096201033
B1513093657939N00440186WA0096201032
B1513103657942N00440190WA0096201032
B1513113657945N00440193WA0096201031
B1513123657948N00440197WA0096101031
B1513133657950N00440201WA0095801030
B1513143657952N00440205WA0095701028
B1513153657954N00440210WA0095601027
B1513163657957N00440214WA0095401025
B1513173657959N00440218WA0095301024
B1513183657963N00440228WA0095201022
B1513193657963N00440229WA0095201022
B1513203657965N00440235WA0095201021
B1513213657967N00440240WA0095201021
B1513223657968N00440245WA0095401022
B1513233657970N00440249WA0095601024
B1513243657970N00440252WA0095701025
B1513253657970N00440256WA0095601026
B1513263657970N00440261WA0095401025
B1513273657970N00440266WA0095201024
B1513283657970N00440271WA0095201022
B1513293657971N00440276WA0095201021
B1513303657972N00440280WA0095201021
B1513313657972N00440285WA0095101020
B1513323657972N00440290WA0095101020
B1513333657971N00440294WA0095001020
B1513343657970N00440299WA0095001019
B1513353657970N00440305WA0094901018
B1513363657970N00440310WA0094901018
B1513373657970N00440315WA0094801018
B1513383657970N00440320WA0094801018
B1513393657970N00440324WA0094901018
B1513403657971N00440329WA0095001018
B1513413657971N00440334WA0095001018
B1513423657972N00440339WA0095101019
B1513433657973N00440344WA0095101019
B1513443657973N00440350WA0095201021
B1513453657972N00440354WA0095101021
B1513463657972N00440358WA0095101021
B1513473657973N00440363WA0095001020
B1513483657973N00440368WA0094901019
B1513493657974N00440373WA0094801018
B1513503657976N00440378WA0094801018
B1513513657977N00440383WA0095001018
B1513523657979N00440387WA0095001018
B1513533657979N00440392WA0095101019
B1513543657980N00440397WA0094901019
B1513553657982N00440401WA0094801018
B1513563657983N00440406WA0094601016
B1513573657985N00440412WA0094401015
B1513583657985N00440417WA0094301013
B1513593657986N00440423WA0094101012
B1514003657986N00440428WA0094001010
B1514013657986N00440433WA0093701008
B1514023657986N00440438WA0093401005
B1514033657987N00440444WA0093101002
B1514043657988N00440450WA0092900999
B1514053657988N00440456WA0092800996
B1514063657989N00440462WA0092700995
B1514073657989N00440467WA0092500994
B1514083657989N00440472WA0092200992
B1514103657991N00440484WA0091600986
B1514113657993N00440489WA0091400983
B1514123657995N00440495WA0091300981
B1514133657996N00440500WA0091200980
B1514143657996N00440505WA0091000978
B1514153657997N00440510WA0090700976
B1514163657997N00440516WA0090300973
B1514173657998N00440522WA0090000970
B1514183657999N00440528WA0089800966
B1514193658000N00440535WA0089600963
B1514203658001N00440541WA0089400961
B1514213658001N00440546WA0089300959
B1514223658002N00440551WA0089100957
B1514233658001N00440557WA0089000956
B1514243657999N00440563WA0088900954
B1514253657998N00440569WA0088700953
B1514263657997N00440574WA0088700952
B1514273657996N00440580WA0088500951
B1514283657996N00440585WA0088400950
B1514293657995N00440590WA0088200948
B1514303657994N00440596WA0088100947
B1514313657992N00440603WA0088000945
B1514323657991N00440609WA0087900943
B1514333657991N00440615WA0087700942
B1514343657990N00440621WA0087600941
B1514353657988N00440631WA0087300938
B1514363657988N00440634WA0087300938
B1514373657987N00440641WA0087200936
B1514383657987N00440649WA0087200935
B1514393657986N00440656WA0087000934
B1514403657986N00440663WA0087000933
B1514413657984N00440669WA0087000933
B1514423657983N00440676WA0086900932
B1514433657982N00440682WA0086700931
B1514443657981N00440689WA0086400930
B1514453657981N00440695WA0086200928
B1514463657982N00440700WA0086200926
B1514473657982N00440706WA0086000925
B1514483657981N00440712WA0085900923
B1514493657981N00440718WA0085700922
B1514503657980N00440723WA0085700921
B1514513657980N00440728WA0085400919
B1514523657979N00440733WA0085300917
B1514533657979N00440739WA0085100915
B1514543657978N00440746WA0085000913
B1514553657977N00440752WA0084900912
B1514563657976N00440757WA0084900912
B1514573657975N00440761WA0084800911
B1514583657974N00440766WA0084600910
B1514593657972N00440770WA0084300908
B1515003657970N00440775WA0084300906
B1515013657968N00440780WA0084000902
B1515023657968N00440784WA0083800902
B1515033657968N00440788WA0083400900
B1515043657967N00440792WA0083300897
B1515053657967N00440796WA0083100895
B1515063657965N00440800WA0082800892
B1515073657964N00440804WA0082500889
B1515083657963N00440809WA0082200885
B1515093657962N00440814WA0081800882
B1515103657961N00440819WA0081500879
B1515113657960N00440824WA0081300876
B1515123657960N00440829WA0081100873
B1515133657959N00440834WA0080800871
B1515143657958N00440838WA0080600868
B1515153657958N00440843WA0080300865
B1515163657957N00440849WA0080000862
B1515173657956N00440854WA0079700859
B1515183657956N00440859WA0079500856
B1515193657956N00440864WA0079200854
B1515203657955N00440869WA0078900851
B1515213657955N00440874WA0078600848
B1515223657955N00440879WA0078400845
B1515233657955N00440884WA0078100842
B1515243657956N00440889WA0077700839
B1515253657958N00440895WA0077200835
B1515263657962N00440905WA0076700827
B1515273657962N00440906WA0076600827
B1515283657965N00440911WA0076400824
B1515293657967N00440916WA0076300821
B1515303657969N00440920WA0076000819
B1515313657971N00440925WA0075600817
B1515323657973N00440930WA0075400814
B1515333657974N00440936WA0075100811
B1515343657976N00440942WA0074700807
B1515353657977N00440948WA0074400804
B1515363657978N00440954WA0074100801
B1515373657979N00440960WA0073700798
B1515383657980N00440966WA0073700795
B1515393657981N00440971WA0073300792
B1515403657981N00440977WA0073000789
B1515413657980N00440983WA0072900786
B1515423657978N00440988WA0072700784
B1515433657976N00440993WA0072400781
B1515443657975N00440999WA0072100779
B1515453657973N00441005WA0071900776
B1515463657972N00441011WA0071600773
B1515473657971N00441016WA0071400771
B1515483657969N00441022WA0071300768
B1515493657968N00441028WA0071100766
B1515503657966N00441033WA0071000764
B1515513657964N00441039WA0070900762
B1515523657961N00441045WA0070800761
B1515533657960N00441050WA0070700761
B1515543657958N00441055WA0070800761
B1515553657957N00441061WA0070700761
B1515563657955N00441067WA0070600761
B1515573657953N00441072WA0070500760
B1515583657951N00441079WA0070400759
B1515593657950N00441085WA0070400758
B1516003657948N00441091WA0070200756
B1516013657947N00441097WA0070100755
B1516023657945N00441104WA0069900754
B1516033657944N00441111WA0069800753
B1516043657943N00441117WA0069700752
B1516053657943N00441123WA0069600751
B1516063657942N00441129WA0069400749
B1516073657941N00441135WA0069200747
B1516083657939N00441142WA0068900745
B1516093657937N00441148WA0068800742
B1516103657937N00441155WA0068700741
B1516113657936N00441161WA0068600740
B1516123657936N00441167WA0068500739
B1516133657936N00441173WA0068300738
B1516143657936N00441179WA0068000735
B1516153657935N00441185WA0067800733
B1516163657934N00441191WA0067500730
B1516183657932N00441203WA0067100725
B1516193657930N00441209WA0066700722
B1516203657929N00441216WA0066500719
B1516213657928N00441222WA0066400716
B1516223657927N00441228WA0066100714
B1516233657925N00441234WA0066000712
B1516243657924N00441240WA0065600710
B1516253657922N00441246WA0065400707
B1516263657920N00441253WA0065100704
B1516273657918N00441260WA0064900701
B1516283657916N00441266WA0064600698
B1516293657914N00441273WA0064300695
B1516303657911N00441280WA0064100692
B1516313657909N00441286WA0063900690
B1516323657906N00441292WA0063600687
B1516333657904N00441298WA0063400684
B1516343657901N00441304WA0063200682
B1516353657899N00441310WA0063000680
B1516363657896N00441315WA0062600677
B1516373657894N00441321WA0062500675
B1516383657891N00441327WA0062300673
B1516393657888N00441333WA0062000670
B1516403657885N00441339WA0061800668
B1516413657882N00441345WA0061600665
B1516423657879N00441351WA0061500663
B1516433657874N00441360WA0061400661
B1516443657873N00441363WA0061300661
B1516453657871N00441369WA0061300660
B1516463657869N00441375WA0061200659
B1516473657867N00441381WA0061100659
B1516483657865N00441386WA0061000658
B1516493657864N00441391WA0060800657
B1516503657862N00441397WA0060500655
B1516513657861N00441404WA0060400653
B1516523657859N00441411WA0060400651
B1516533657856N00441417WA0060400651
B1516543657854N00441423WA0060400651
B1516553657852N00441429WA0060300651
B1516563657851N00441435WA0060300651
B1516573657850N00441442WA0060400650
B1516583657849N00441449WA0060500651
B1516593657847N00441455WA0060600652
B1517003657846N00441460WA0060700653
B1517013657845N00441466WA0060800654
B1517023657843N00441471WA0060800655
B1517033657841N00441477WA0060900655
B1517043657840N00441484WA0060900656
B1517053657839N00441490WA0061100657
B1517063657838N00441496WA0061300659
B1517073657837N00441501WA0061500661
B1517083657836N00441506WA0061500663
B1517093657834N00441512WA0061400663
B1517103657832N00441517WA0061300663
B1517113657829N00441524WA0061300662
B1517123657827N00441531WA0061300661
B1517133657826N00441538WA0061200661
B1517143657824N00441544WA0061200661
B1517153657823N00441551WA0061100661
B1517163657822N00441558WA0061100660
B1517173657819N00441566WA0060900658
B1517183657816N00441573WA0060700656
B1517193657813N00441581WA0060700655
B1517203657812N00441589WA0060700654
B1517213657811N00441597WA0060800653
B1517223657810N00441605WA0061000654
B1517233657809N00441611WA0061600657
B1517243657808N00441615WA0062000663
B1517253657806N00441618WA0062200667
B1517263657804N00441622WA0062200669
B1517273657802N00441627WA0062100670
B1517283657801N00441633WA0062000669
B1517293657800N00441640WA0062000668
B1517303657799N00441646WA0062200668
B1517313657797N00441652WA0062300669
B1517323657796N00441657WA0062400671
B1517333657795N00441663WA0062500672
B1517343657792N00441673WA0062700674
B1517353657792N00441675WA0062800674
B1517363657792N00441679WA0063000677
B1517373657792N00441683WA0063200678
B1517383657791N00441687WA0063300680
B1517393657791N00441690WA0063200681
B1517403657790N00441695WA0063000681
B1517413657790N00441700WA0063000679
B1517423657790N00441705WA0063000678
B1517433657789N00441710WA0063200679
B1517443657789N00441714WA0063300680
B1517453657788N00441718WA0063300682
B1517463657787N00441721WA0063300682
B1517473657786N00441725WA0063100682
B1517483657785N00441729WA0063200681
B1517493657784N00441734WA0063300681
B1517503657784N00441738WA0063300682
B1517513657784N00441741WA0063400683
B1517523657784N00441745WA0063500683
B1517533657784N00441751WA0063700684
B1517543657783N00441757WA0063800685
B1517553657781N00441763WA0064100686
B1517563657779N00441768WA0064300689
B1517573657778N00441773WA0064500692
B1517583657776N00441778WA0064700694
B1517593657776N00441784WA0064800696
B1518003657775N00441792WA0065000699
B1518013657775N00441797WA0065100699
B1518023657774N00441802WA0065300701
B1518033657774N00441808WA0065500703
B1518043657774N00441813WA0065600705
B1518053657774N00441819WA0065600706
B1518063657773N00441826WA0065800706
B1518073657772N00441833WA0066000708
B1518083657771N00441840WA0066200710
B1518093657770N00441847WA0066400712
B1518103657769N00441853WA0066700715
B1518113657767N00441859WA0067000718
B1518123657766N00441865WA0067100720
B1518133657764N00441870WA0067200722
B1518143657762N00441877WA0067300723
B1518153657761N00441883WA0067500724
B1518163657760N00441890WA0067700726
B1518173657758N00441896WA0067900728
B1518183657757N00441902WA0068000730
B1518193657757N00441909WA0068000731
B1518203657756N00441916WA0068000731
B1518213657757N00441923WA0068000732
B1518223657757N00441930WA0068200732
B1518233657757N00441937WA0068200733
B1518243657756N00441943WA0068200734
B1518263657755N00441955WA0068000733
B1518273657755N00441962WA0067600731
B1518283657754N00441968WA0067400728
B1518293657754N00441975WA0067200726
B1518303657753N00441981WA0067200724
B1518313657752N00441987WA0067200723
B1518323657752N00441993WA0067100722
B1518333657751N00441998WA0067000722
B1518343657751N00442003WA0066800721
B1518353657750N00442007WA0066600720
B1518363657750N00442013WA0066400717
B1518373657750N00442020WA0066300715
B1518383657750N00442026WA0066200713
B1518393657749N00442031WA0066100713
B1518403657749N00442036WA0066100712
B1518413657748N00442041WA0065800711
B1518423657748N00442048WA0065600708
B1518433657748N00442055WA0065500706
B1518443657747N00442061WA0065400704
B1518453657746N00442067WA0065400703
B1518463657746N00442072WA0065300703
B1518473657747N00442076WA0065100703
B1518483657747N00442081WA0065000701
B1518493657747N00442087WA0064900700
B1518503657748N00442094WA0064900698
B1518513657748N00442104WA0064900698
B1518523657748N00442107WA0064900698
B1518533657749N00442112WA0064900699
B1518543657748N00442117WA0064900699
B1518553657748N00442122WA0064800698
B1518563657748N00442128WA0064600697
B1518573657748N00442133WA0064600696
B1518583657748N00442138WA0064500695
B1518593657748N00442143WA0064400694
B1519003657748N00442148WA0064500694
B1519013657748N00442152WA0064500694
B1519023657748N00442156WA0064500695
B1519033657747N00442160WA0064500695
B1519043657747N00442164WA0064500695
B1519053657747N00442168WA0064600695
B1519063657747N00442171WA0064700695
B1519073657746N00442174WA0064700696
B1519083657745N00442176WA0064600696
B1519093657744N00442178WA0064400696
B1519103657743N00442181WA0064300695
B1519113657743N00442184WA0064300694
B1519123657744N00442187WA0064300693
B1519133657744N00442190WA0064300693
B1519143657744N00442193WA0064300693
B1519153657743N00442195WA0064300693
B1519163657743N00442197WA0064200693
B1519173657742N00442200WA0064100691
B1519183657741N00442202WA0064100691
B1519193657740N00442205WA0064100690
B1519203657739N00442208WA0064100690
B1519213657738N00442211WA0064000690
B1519223657738N00442214WA0063900689
B1519233657737N00442217WA0063800687
B1519243657737N00442221WA0063700687
B1519253657738N00442224WA0063600686
B1519263657738N00442227WA0063600686
B1519273657738N00442230WA0063600685
B1519283657737N00442233WA0063500685
B1519293657737N00442237WA0063400684
B1519303657736N00442241WA0063400683
B1519313657736N00442246WA0063500683
B1519323657735N00442250WA0063700683
B1519333657736N00442254WA0063900685
B1519343657736N00442258WA0064100687
B1519353657736N00442260WA0064300690
B1519363657736N00442262WA0064400692
B1519373657736N00442264WA0064500693
B1519383657735N00442266WA0064500694
B1519393657734N00442269WA0064400694
B1519403657735N00442273WA0064600694
B1519413657735N00442277WA0064700694
B1519423657735N00442282WA0065100699
B1519433657735N00442283WA0065200699
B1519443657735N00442285WA0065200701
B1519453657735N00442287WA0065200702
B1519463657734N00442290WA0065100702
B1519473657734N00442293WA0065000701
B1519483657733N00442296WA0064900700
B1519493657731N00442300WA0064900699
B1519503657730N00442304WA0064900698
B1519513657728N00442307WA0064900698
B1519523657726N00442311WA0064800698
B1519533657725N00442314WA0064800697
B1519543657724N00442318WA0064800696
B1519553657722N00442322WA0064900696
B1519563657720N00442325WA0064900697
B1519573657718N00442328WA0065000698
B1519583657716N00442330WA0065000700
B1519593657715N00442332WA0065100700
B1520003657713N00442334WA0065100701
B1520013657711N00442337WA0065000700
B1520023657709N00442340WA0065100700
B1520033657707N00442343WA0065000700
B1520043657705N00442346WA0065100701
B1520053657705N00442349WA0065000701
B1520063657704N00442352WA0065000701
B1520073657704N00442356WA0065000700
B1520083657702N00442360WA0064900699
B1520093657701N00442362WA0064800699
B1520103657699N00442365WA0064700698
B1520113657697N00442369WA0064600696
B1520123657695N00442372WA0064600695
B1520133657693N00442376WA0064600695
B1520143657692N00442378WA0064700696
B1520153657691N00442381WA0064800696
B1520163657690N00442383WA0064800697
B1520173657689N00442385WA0064700697
B1520183657689N00442388WA0064800697
B1520193657688N00442391WA0064700696
B1520203657686N00442394WA0064700696
B1520213657684N00442396WA0064600697
B1520223657682N00442398WA0064400696
B1520233657680N00442401WA0064200694
B1520243657678N00442405WA0064100692
B1520253657676N00442409WA0064100690
B1520263657674N00442413WA0064100690
B1520273657672N00442415WA0064000690
B1520283657671N00442418WA0063900689
B1520293657670N00442421WA0063700687
B1520303657668N00442425WA0063500686
B1520313657667N00442428WA0063400684
B1520323657667N00442431WA0063400684
B1520343657667N00442435WA0063200683
B1520353657666N00442437WA0063100681
B1520363657665N00442440WA0062900679
B1520373657665N00442445WA0062800678
B1520383657664N00442449WA0062900677
B1520393657664N00442453WA0063000678
B1520403657663N00442456WA0063100679
B1520413657662N00442459WA0063000679
B1520423657660N00442463WA0062700678
B1520433657657N00442469WA0062600676
B1520443657655N00442475WA0062500673
B1520453657653N00442481WA0062500672
B1520463657652N00442486WA0062600672
B1520473657650N00442491WA0062400673
B1520483657648N00442495WA0062400672
B1520493657645N00442499WA0062200671
B1520503657643N00442504WA0061900669
B1520513657640N00442508WA0061800667
B1520523657637N00442512WA0061600666
B1520533657635N00442515WA0061400664
B1520543657633N00442518WA0061200662
B1520553657631N00442521WA0061100661
B1520563657628N00442524WA0061100660
B1520573657626N00442526WA0061000659
B1520583657625N00442529WA0060700657
B1520593657623N00442533WA0060300652
B1521003657622N00442535WA0060200652
B1521013657621N00442539WA0060200650
B1521023657618N00442543WA0060100649
B1521033657615N00442545WA0060100649
B1521043657612N00442548WA0060000649
B1521053657610N00442550WA0059800648
B1521063657608N00442554WA0059600646
B1521073657607N00442557WA0059500644
B1521083657605N00442561WA0059500643
B1521093657604N00442564WA0059300642
B1521103657603N00442567WA0059100641
B1521113657603N00442570WA0058900639
B1521123657603N00442573WA0058800637
B1521133657603N00442577WA0058800635
B1521143657604N00442580WA0058700634
B1521153657604N00442583WA0058600633
B1521163657604N00442585WA0058700633
B1521173657604N00442587WA0058700633
B1521183657604N00442589WA0058800633
B1521193657603N00442591WA0058800633
B1521203657602N00442593WA0058800633
B1521213657601N00442595WA0058800633
B1521223657600N00442598WA0058800633
B1521233657599N00442601WA0058800633
B1521243657599N00442605WA0058800634
B1521253657598N00442609WA0058800634
B1521263657598N00442611WA0058800634
B1521273657598N00442614WA0058800634
B1521283657598N00442617WA0058700634
B1521293657597N00442620WA0058600633
B1521303657596N00442623WA0058400632
B1521313657596N00442628WA0058200630
B1521323657595N00442632WA0058200628
B1521333657595N00442635WA0058200628
B1521343657595N00442638WA0058200628
B1521353657594N00442640WA0058100628
B1521363657593N00442643WA0057800627
B1521373657592N00442647WA0057700624
B1521383657592N00442651WA0057400622
B1521393657592N00442654WA0057400621
B1521403657592N00442657WA0057300620
B1521413657591N00442660WA0057200619
B1521423657591N00442663WA0057000617
B1521433657591N00442667WA0056800616
B1521443657591N00442670WA0056800614
B1521453657590N00442674WA0056600613
B1521463657589N00442678WA0056600612
B1521473657589N00442681WA0056300611
B1521483657588N00442684WA0056200609
B1521493657589N00442688WA0056000607
B1521503657589N00442694WA0055900604
B1521513657589N00442695WA0055900604
B1521523657589N00442699WA0055900604
B1521533657589N00442702WA0055700603
B1521543657589N00442705WA0055500602
B1521553657590N00442708WA0055400600
B1521563657591N00442711WA0055300599
B1521573657591N00442714WA0055200598
B1521583657592N00442717WA0055200597
B1521593657593N00442720WA0055100596
B1522003657594N00442722WA0054900595
B1522013657595N00442725WA0054800594
B1522023657596N00442728WA0054700593
B1522033657597N00442731WA0054700592
B1522043657598N00442734WA0054600591
B1522053657598N00442738WA0054600591
B1522063657598N00442742WA0054500590
B1522073657598N00442745WA0054500590
B1522083657598N00442750WA0054500590
B1522093657597N00442754WA0054400590
B1522103657596N00442758WA0054500589
B1522113657594N00442762WA0054400589
B1522123657591N00442766WA0054400589
B1522133657588N00442770WA0054400588
B1522143657584N00442774WA0054300588
B1522153657581N00442778WA0054200587
B1522163657577N00442783WA0054100585
B1522173657574N00442786WA0054000585
B1522183657571N00442790WA0054000585
B1522193657568N00442795WA0053800583
B1522203657565N00442801WA0053900582
B1522213657562N00442806WA0053900582
B1522223657559N00442810WA0054000582
B1522233657555N00442813WA0053900583
B1522243657551N00442815WA0053900583
B1522253657547N00442817WA0053700582
B1522263657543N00442821WA0053600581
B1522273657539N00442825WA0053500579
B1522283657535N00442829WA0053400578
B1522293657532N00442831WA0053400577
B1522303657530N00442834WA0053200577
B1522313657528N00442836WA0053000576
B1522323657528N00442840WA0052900574
B1522333657528N00442843WA0052700572
B1522343657529N00442846WA0052700570
B1522353657530N00442849WA0052500569
B1522363657531N00442851WA0052300568
B1522373657533N00442854WA0052200567
B1522383657533N00442858WA0052100565
B1522393657533N00442862WA0052000563
B1522403657533N00442866WA0052000562
B1522423657535N00442871WA0051700562
B1522433657536N00442872WA0051700562
B1522443657537N00442874WA0051700561
B1522453657538N00442875WA0051600560
B1522463657538N00442876WA0051600559
B1522473657538N00442876WA0051600559
B1522483657539N00442876WA0051600559
B1522493657539N00442876WA0051600559
B1522503657539N00442876WA0051600559
B1522513657539N00442876WA0051600559
B1522523657540N00442876WA0051600559
B1522533657540N00442877WA0051600559
B1522543657539N00442877WA0051600559
B1522553657539N00442878WA0051600559
B1522563657539N00442878WA0051600559
B1522573657539N00442878WA0051600559
B1522583657539N00442878WA0051600559
B1522593657538N00442879WA0051600559
B1523003657538N00442880WA0051600559
B1523013657538N00442880WA0051600558
B1523023657537N00442881WA0051600558
B1523033657538N00442881WA0051600558
B1523043657537N00442881WA0051600558
B1523053657537N00442881WA0051600558
B1523063657537N00442881WA0051600558
B1523073657537N00442881WA0051600557
B1523083657537N00442881WA0051600557
B1523093657537N00442881WA0051600557
B1523103657536N00442881WA0051600557
B1523113657536N00442881WA0051600557
LXGD GpsDump version 4.66
LXGD Downloaded 2012-05-28  21:11:41
GBAEDBF8091E840CE
